Date StartTime U_cm/s V_cm/s W_cm/s Ustd_cm/s Vstd_cm/s Wstd_cm/s Uvar_(cm/s)^2 Vvar_(cm/s)^2 Wvar_(cm/s)^2 KE_(m/s)^2 TurbulentKE_(m/s)^2 HorizWindSpeed_cm/s FrictionSpeec_cm/s DragCoef SpeedOfSound_m/s SonicTemperature_C Pressure_mb 
07/09/2014  00:00:00      -73.534      -20.561       -6.122       19.964       18.242       11.865      398.554      332.788      140.787        0.337        0.044       76.354        3.523        0.002      345.845       23.667      863.010
07/09/2014  00:01:00      -71.123       -5.932       -4.964       35.420       22.020       13.946     1254.580      484.873      194.482        0.353        0.097       71.370       17.739        0.062      345.805       23.597      863.004
07/09/2014  00:02:00      -97.778      -20.407       -0.077       33.071       22.393       15.487     1093.661      501.461      239.861        0.591        0.092       99.885       15.438        0.024      345.755       23.514      863.008
07/09/2014  00:03:00      -78.336       -1.074        3.232       42.474       26.322       21.768     1804.057      692.856      473.840        0.456        0.149       78.343       21.365        0.074      345.672       23.368      863.010
07/09/2014  00:04:00      -77.971      -15.855        4.026       43.202       27.520       22.145     1866.423      757.369      490.382        0.473        0.156       79.567       22.619        0.081      345.611       23.264      863.015
07/09/2014  00:05:00      -90.667      -32.077       -2.885       32.872       21.986       16.013     1080.594      483.403      256.405        0.554        0.091       96.174       12.328        0.016      345.642       23.317      863.012
07/09/2014  00:06:00     -107.559      -29.521        6.027       34.162       28.866       20.767     1167.068      833.266      431.251        0.745        0.122      111.537       18.276        0.027      345.619       23.277      863.007
07/09/2014  00:07:00      -94.837      -25.465        2.706       29.416       23.641       18.301      865.330      558.876      334.928        0.570        0.088       98.196       16.127        0.027      345.629       23.296      862.992
07/09/2014  00:08:00      -40.901      -38.258        1.578       32.626       31.300       15.010     1064.428      979.721      225.296        0.270        0.113       56.005       14.333        0.065      345.664       23.356      862.978
07/09/2014  00:09:00      -44.916      -39.120       -6.887       28.244       20.083       13.984      797.709      403.320      195.563        0.250        0.070       59.563       11.415        0.037      345.664       23.353      862.985
07/09/2014  00:10:00      -50.009      -23.719       -2.297       18.029       14.388       11.354      325.044      207.013      128.904        0.186        0.033       55.348       10.286        0.035      345.694       23.407      862.990
07/09/2014  00:11:00      -70.532      -27.524       -9.013       18.587       22.740       13.471      345.482      517.114      181.470        0.343        0.052       75.712       12.236        0.026      345.759       23.518      862.988
07/09/2014  00:12:00      -34.688      -22.561        4.691       16.347       12.697       11.178      267.227      161.202      124.946        0.114        0.028       41.379        4.852        0.014      345.667       23.361      862.984
07/09/2014  00:13:00      -29.635        3.890        3.684       12.342       10.725        6.453      152.327      115.025       41.641        0.061        0.015       29.889        3.238        0.012      345.749       23.502      862.974
07/09/2014  00:14:00      -13.182        0.938        0.641        7.527        5.993        2.957       56.650       35.917        8.743        0.014        0.005       13.216        1.446        0.012      345.722       23.455      862.966
07/09/2014  00:15:00        9.031       -0.799       -5.277        5.865       10.285        5.084       34.393      105.789       25.850        0.014        0.008        9.066        5.819        0.412      345.664       23.356      862.967
07/09/2014  00:16:00       -7.633       -3.217       -6.244       12.580        7.916        5.845      158.263       62.658       34.168        0.018        0.013        8.283        3.673        0.197      345.703       23.423      862.974
07/09/2014  00:17:00      -20.256        2.993       -4.887        4.370        3.603        5.865       19.098       12.981       34.396        0.025        0.003       20.476        3.304        0.026      345.684       23.388      862.979
07/09/2014  00:18:00      -42.053        5.823       -3.144       19.465        7.940        6.856      378.888       63.044       47.005        0.115        0.024       42.455        7.022        0.027      345.602       23.248      862.976
07/09/2014  00:19:00      -73.621       -4.011       -9.312       22.387       17.189       10.203      501.159      295.471      104.110        0.321        0.045       73.731        8.598        0.014      345.495       23.064      862.974
07/09/2014  00:20:00      -45.120       -2.550       -1.827       37.871       30.882       17.183     1434.193      953.716      295.265        0.236        0.134       45.192       15.652        0.120      345.435       22.964      862.969
07/09/2014  00:21:00      -53.333       20.197       -3.436       19.300       25.492       16.280      372.502      649.836      265.041        0.228        0.064       57.029        9.689        0.029      345.448       22.986      862.954
07/09/2014  00:22:00      -41.524       15.773       -8.443       18.405       20.037       11.145      338.737      401.472      124.219        0.145        0.043       44.418        6.564        0.022      345.428       22.951      862.946
07/09/2014  00:23:00      -27.708       25.739       -4.030       16.480       17.151       10.876      271.596      294.140      118.297        0.107        0.034       37.819        2.774        0.005      345.403       22.910      862.938
07/09/2014  00:24:00      -14.152       15.962       -9.782       17.498       18.430        6.438      306.191      339.676       41.454        0.062        0.034       21.332        4.255        0.040      345.457       23.002      862.935
07/09/2014  00:25:00      -17.436       -6.930       -0.866        9.283       17.473       10.620       86.182      305.312      112.776        0.043        0.025       18.763        8.655        0.213      345.483       23.044      862.930
07/09/2014  00:26:00      -19.788       -9.950        6.813       18.626       12.650        9.427      346.919      160.033       88.877        0.057        0.030       22.149        5.271        0.057      345.472       23.026      862.916
07/09/2014  00:27:00       -4.919      -25.843        2.493        9.257       18.183        8.955       85.686      330.630       80.195        0.060        0.025       26.307        7.849        0.089      345.486       23.053      862.914
07/09/2014  00:28:00      -13.476       -0.119        2.867        8.962        5.861        6.753       80.322       34.349       45.609        0.018        0.008       13.477        6.297        0.218      345.441       22.974      862.916
07/09/2014  00:29:00      -35.877        0.980       -1.492       18.401       12.303        8.834      338.580      151.372       78.035        0.093        0.028       35.891        9.986        0.077      345.484       23.046      862.928
07/09/2014  00:30:00      -60.562        1.145       -8.788        7.990       10.437        8.842       63.833      108.929       78.182        0.200        0.013       60.573        7.312        0.015      345.401       22.906      862.925
07/09/2014  00:31:00      -88.325      -20.819       -8.002       16.377       15.620       10.995      268.212      243.976      120.899        0.447        0.032       90.745        5.329        0.003      345.352       22.820      862.921
07/09/2014  00:32:00      -83.814      -18.732       -7.902       31.255       14.070       12.123      976.878      197.958      146.972        0.438        0.066       85.882       11.685        0.019      345.348       22.813      862.913
07/09/2014  00:33:00      -90.249      -28.325       -5.662       23.009       16.811       11.583      529.436      282.620      134.171        0.496        0.047       94.589       10.559        0.012      345.370       22.853      862.903
07/09/2014  00:34:00      -97.217      -52.453       -6.990       15.023       11.710        9.330      225.678      137.114       87.058        0.635        0.022      110.464        8.362        0.006      345.375       22.861      862.889
07/09/2014  00:35:00      -88.978      -52.684       -6.446       18.199       15.260       13.084      331.198      232.878      171.179        0.573        0.037      103.405        9.246        0.008      345.366       22.846      862.874
07/09/2014  00:36:00      -66.102      -43.292        4.982       26.175       21.749       14.533      685.119      473.008      211.208        0.382        0.068       79.017       11.527        0.021      345.370       22.850      862.857
07/09/2014  00:37:00      -50.488      -42.643        6.910       31.570       28.471       21.769      996.658      810.585      473.896        0.335        0.114       66.087       17.398        0.069      345.362       22.838      862.836
07/09/2014  00:38:00      -58.812      -31.497        5.816       36.134       29.846       21.453     1305.663      890.788      460.229        0.357        0.133       66.715       20.595        0.095      345.450       22.988      862.823
07/09/2014  00:39:00      -64.788      -39.688       -2.750       27.502       18.706       13.829      756.384      349.896      191.234        0.354        0.065       75.978       14.805        0.038      345.489       23.055      862.816
07/09/2014  00:40:00      -55.098      -37.604       -9.512       10.243       18.342        7.660      104.925      336.441       58.682        0.252        0.025       66.707        4.392        0.004      345.579       23.212      862.820
07/09/2014  00:41:00      -22.460      -17.477       -4.147       15.946       12.495        8.321      254.270      156.126       69.243        0.065        0.024       28.459        5.234        0.034      345.591       23.230      862.830
07/09/2014  00:42:00       -5.133       -8.356       -2.674       10.358        8.209       10.766      107.297       67.383      115.904        0.020        0.015        9.807        5.060        0.266      345.571       23.196      862.844
07/09/2014  00:43:00       -7.809        0.969        0.814        7.481        4.953        6.017       55.958       24.533       36.207        0.009        0.006        7.869        4.804        0.373      345.554       23.167      862.849
07/09/2014  00:44:00        0.426        6.761        6.764        8.304        4.188        5.647       68.959       17.539       31.884        0.010        0.006        6.774        5.884        0.755      345.512       23.095      862.861
07/09/2014  00:45:00      -15.384       12.329        3.700       16.941       15.587        8.359      287.010      242.948       69.869        0.050        0.030       19.715       12.661        0.412      345.495       23.065      862.865
07/09/2014  00:46:00      -38.408       36.656       -5.791        6.902        5.335        3.996       47.639       28.468       15.964        0.147        0.005       53.093        3.446        0.004      345.477       23.038      862.867
07/09/2014  00:47:00      -56.842       23.267       -8.086        9.817       10.033        6.487       96.378      100.662       42.079        0.204        0.012       61.419        6.250        0.010      345.327       22.778      862.856
07/09/2014  00:48:00      -47.539       -3.989       -1.706        7.725       13.936        7.028       59.668      194.210       49.397        0.129        0.015       47.706        3.512        0.005      345.348       22.816      862.851
07/09/2014  00:49:00      -41.884       -9.561       -7.889       14.130        8.697        6.993      199.665       75.643       48.907        0.112        0.016       42.961        5.696        0.018      345.273       22.685      862.838
07/09/2014  00:50:00      -51.636      -20.043       -2.945       17.413       16.067        8.650      303.197      258.141       74.820        0.186        0.032       55.389        4.565        0.007      345.245       22.638      862.837
07/09/2014  00:51:00     -111.990      -16.795      -10.124       22.617       13.800       11.893      511.547      190.450      141.446        0.688        0.042      113.242       11.734        0.011      345.178       22.523      862.833
07/09/2014  00:52:00     -123.543      -17.292       -6.970       30.554       27.141       16.391      933.531      736.629      268.670        0.877        0.097      124.747       14.346        0.013      345.115       22.416      862.819
07/09/2014  00:53:00      -91.918      -15.752       -1.619       29.433       27.898       19.131      866.280      778.324      365.995        0.535        0.101       93.258       15.334        0.027      345.056       22.315      862.808
07/09/2014  00:54:00     -100.323      -27.551       -7.239       16.165       19.408       10.964      261.320      376.663      120.200        0.582        0.038      104.037        8.412        0.007      345.086       22.368      862.793
07/09/2014  00:55:00      -73.510      -34.359       -2.860       43.783       27.012       16.130     1916.987      729.635      260.190        0.475        0.145       81.143       15.570        0.037      345.077       22.350      862.781
07/09/2014  00:56:00      -97.396      -56.908       -7.621       32.341       38.414       17.355     1045.946     1475.613      301.195        0.780        0.141      112.803       14.256        0.016      345.127       22.435      862.775
07/09/2014  00:57:00      -74.623      -39.009        0.354       30.271       29.042       17.507      916.346      843.425      306.484        0.458        0.103       84.204       14.414        0.029      345.142       22.461      862.766
07/09/2014  00:58:00     -102.115      -32.364       -3.807       29.833       19.945       14.730      889.984      397.814      216.981        0.650        0.075      107.121       12.519        0.014      345.143       22.464      862.766
07/09/2014  00:59:00      -87.892      -48.468       -3.948       31.556       19.126       15.241      995.769      365.811      232.287        0.584        0.080      100.370       16.499        0.027      345.084       22.363      862.768
07/09/2014  01:00:00      -70.339       -5.906       -3.847       30.272       22.400       16.627      916.369      501.767      276.453        0.335        0.085       70.587       17.574        0.062      345.034       22.277      862.759
07/09/2014  01:01:00      -96.613        4.655       -6.963       26.927       26.584       15.313      725.068      706.693      234.485        0.553        0.083       96.725       14.132        0.021      344.985       22.192      862.750
07/09/2014  01:02:00     -110.992        1.767      -10.344       24.105       15.456       13.883      581.064      238.888      192.737        0.672        0.051      111.006       13.090        0.014      344.976       22.176      862.742
07/09/2014  01:03:00      -60.721       -5.956       -5.260       25.244       18.993       11.090      637.249      360.728      122.999        0.244        0.056       61.013        8.329        0.019      344.959       22.148      862.723
07/09/2014  01:04:00      -65.538        4.181       -2.499       25.770       16.546       14.377      664.106      273.762      206.706        0.273        0.057       65.671       11.873        0.033      344.992       22.205      862.712
07/09/2014  01:05:00      -73.847       -4.245       -8.906       24.379       20.026       13.586      594.331      401.041      184.570        0.337        0.059       73.968        7.429        0.010      345.020       22.252      862.695
07/09/2014  01:06:00      -86.358      -17.553       -8.187       29.640       30.478       13.670      878.537      928.924      186.861        0.491        0.100       88.124       13.528        0.024      345.023       22.256      862.680
07/09/2014  01:07:00      -73.800      -18.242        1.084       34.668       29.923       18.209     1201.871      895.406      331.567        0.410        0.121       76.021       19.429        0.065      344.908       22.061      862.671
07/09/2014  01:08:00     -111.811      -15.546      -15.583       21.973       24.864       14.407      482.829      618.212      207.557        0.715        0.065      112.887       12.664        0.013      344.879       22.011      862.673
07/09/2014  01:09:00      -72.854      -36.229       -5.701       31.117       29.104       18.123      968.290      847.071      328.436        0.440        0.107       81.365       17.628        0.047      344.867       21.989      862.665
07/09/2014  01:10:00      -62.248        3.410      -10.417       19.907       17.517       15.638      396.278      306.848      244.563        0.247        0.047       62.341       13.148        0.044      344.802       21.880      862.658
07/09/2014  01:11:00      -52.768        7.979       -8.809       28.436       17.884       16.064      808.608      319.832      258.049        0.216        0.069       53.368       13.220        0.061      344.723       21.744      862.649
07/09/2014  01:12:00      -89.687       20.980       -5.842       22.981       14.722       13.229      528.109      216.735      175.004        0.472        0.046       92.108        8.881        0.009      344.808       21.888      862.655
07/09/2014  01:13:00      -69.166       33.217       -5.559       28.693       18.336       15.590      823.276      336.219      243.038        0.366        0.070       76.729       10.011        0.017      344.800       21.876      862.648
07/09/2014  01:14:00      -82.487       23.006       -8.518       23.648       21.753       14.444      559.227      473.186      208.643        0.432        0.062       85.635        6.770        0.006      344.946       22.126      862.637
07/09/2014  01:15:00      -51.195        2.462       -1.988       17.651       20.087        8.801      311.562      403.491       77.458        0.171        0.040       51.254        7.835        0.023      344.908       22.062      862.631
07/09/2014  01:16:00      -63.659       -5.350       -9.505       20.288       17.121       13.104      411.616      293.141      171.705        0.252        0.044       63.884       12.582        0.039      344.895       22.037      862.634
07/09/2014  01:17:00      -72.882      -12.481       -7.908       19.390       33.605       15.623      375.963     1129.283      244.063        0.364        0.087       73.943       13.372        0.033      344.834       21.934      862.637
07/09/2014  01:18:00      -59.828       -7.862        3.710       35.646       30.860       23.324     1270.617      952.318      544.002        0.321        0.138       60.342       25.026        0.172      344.828       21.924      862.638
07/09/2014  01:19:00       -9.626        3.458       11.253       12.410       20.948       12.099      154.004      438.817      146.384        0.049        0.037       10.229        8.820        0.744      344.829       21.925      862.643
07/09/2014  01:20:00      -42.806      -40.697       -0.104       20.554       20.855       10.931      422.464      434.938      119.490        0.223        0.049       59.064        5.680        0.009      344.835       21.936      862.666
07/09/2014  01:21:00      -20.092      -21.985        6.091       21.021       12.453       11.868      441.887      155.083      140.845        0.083        0.037       29.783       12.774        0.184      344.858       21.974      862.680
07/09/2014  01:22:00        1.402      -13.026        0.997        9.771        8.514        8.732       95.464       72.494       76.247        0.021        0.012       13.101        6.167        0.222      344.880       22.015      862.693
07/09/2014  01:23:00       -9.975      -12.808       -7.390        9.969        6.705        5.292       99.390       44.958       28.002        0.025        0.009       16.234        4.538        0.078      344.887       22.023      862.697
07/09/2014  01:24:00        0.794       -3.999       -4.117        3.256        3.724        3.028       10.602       13.865        9.166        0.003        0.002        4.077        1.665        0.167      344.952       22.136      862.701
07/09/2014  01:25:00       -1.545       -0.456        4.289        3.180        5.588        3.520       10.114       31.229       12.391        0.004        0.003        1.611        3.434        4.541      345.045       22.296      862.696
07/09/2014  01:26:00        8.997       12.392       12.598        5.571        4.285        4.567       31.039       18.359       20.853        0.023        0.004       15.313        2.852        0.035      345.001       22.222      862.698
07/09/2014  01:27:00        0.457        0.698        9.000        4.381        7.104        4.473       19.195       50.465       20.007        0.009        0.004        0.835        3.071       13.538      344.992       22.206      862.701
07/09/2014  01:28:00        8.111        1.814        1.190        3.745        5.485        5.601       14.025       30.088       31.372        0.007        0.004        8.311        3.766        0.205      344.968       22.161      862.705
07/09/2014  01:29:00        3.615       -2.552       -0.591        5.888        9.733        8.825       34.670       94.733       77.882        0.011        0.010        4.425        4.632        1.096      344.971       22.169      862.710
07/09/2014  01:30:00        4.161       -7.048        5.986       12.418       15.410        9.470      154.205      237.478       89.674        0.029        0.024        8.184        6.995        0.730      345.041       22.288      862.703
07/09/2014  01:31:00        8.658       15.378       11.074        9.925       13.189        7.330       98.513      173.947       53.727        0.038        0.016       17.648        4.961        0.079      345.006       22.228      862.687
07/09/2014  01:32:00       38.887       18.077        5.335       11.013       10.089        9.091      121.289      101.789       82.646        0.109        0.015       42.883        7.344        0.029      345.001       22.221      862.662
07/09/2014  01:33:00       19.537       13.336        2.023       15.414       11.820       11.050      237.597      139.720      122.105        0.053        0.025       23.655       12.161        0.264      344.961       22.153      862.648
07/09/2014  01:34:00       13.397        9.301        4.064        9.091        7.373        8.109       82.654       54.354       65.750        0.024        0.010       16.309        7.224        0.196      344.883       22.021      862.637
07/09/2014  01:35:00       29.580       17.217        3.051        8.411        9.521        6.467       70.740       90.641       41.819        0.069        0.010       34.226        4.369        0.016      344.966       22.157      862.624
07/09/2014  01:36:00       19.634       25.597        1.522       12.832        9.024        8.207      164.666       81.435       67.348        0.068        0.016       32.260        6.774        0.044      344.959       22.147      862.621
07/09/2014  01:37:00       -8.670       28.603       -1.503        7.736        4.925        3.730       59.839       24.260       13.913        0.050        0.005       29.888        3.185        0.011      344.966       22.165      862.618
07/09/2014  01:38:00      -20.658       25.604       -5.098        8.212        4.546        4.743       67.429       20.670       22.492        0.061        0.006       32.899        4.798        0.021      344.934       22.106      862.616
07/09/2014  01:39:00      -14.450       32.345       -3.353       11.790        6.143        6.464      139.005       37.733       41.781        0.074        0.011       35.426        7.488        0.045      344.978       22.181      862.605
07/09/2014  01:40:00       15.739       37.672       -1.331       10.745        8.569        4.111      115.465       73.435       16.901        0.094        0.010       40.827        4.483        0.012      345.059       22.321      862.595
07/09/2014  01:41:00       46.280       40.470        6.631       15.796       19.659       10.608      249.508      386.463      112.527        0.229        0.037       61.479        3.993        0.004      344.984       22.192      862.583
07/09/2014  01:42:00       59.428       53.660        1.352       31.396       24.214       19.305      985.707      586.302      372.678        0.418        0.097       80.069       18.844        0.055      344.765       21.817      862.563
07/09/2014  01:43:00       49.843       38.777        6.627       22.883       20.119       13.625      523.624      404.754      185.652        0.257        0.056       63.151        9.088        0.021      344.801       21.876      862.545
07/09/2014  01:44:00       47.370       35.932        4.855       12.685       13.465       10.278      160.914      181.303      105.644        0.200        0.022       59.456        7.309        0.015      344.798       21.871      862.529
07/09/2014  01:45:00       45.795       19.148        0.178       10.300        9.340       11.563      106.082       87.227      133.709        0.140        0.016       49.637        6.826        0.019      344.856       21.974      862.511
07/09/2014  01:46:00       13.893        6.671        2.461        7.677        7.944        5.913       58.932       63.113       34.963        0.020        0.008       15.412        3.437        0.050      344.838       21.941      862.497
07/09/2014  01:47:00        5.889       10.815       -2.748       11.479        6.395        5.533      131.758       40.902       30.613        0.018        0.010       12.315        4.880        0.157      344.869       21.998      862.491
07/09/2014  01:48:00      -20.892       10.986       -0.660       12.891        8.904        9.249      166.177       79.282       85.542        0.044        0.017       23.605        5.480        0.054      344.876       22.007      862.484
07/09/2014  01:49:00      -27.103       -3.393       -2.778       10.533        5.754        5.390      110.953       33.110       29.056        0.046        0.009       27.315        4.544        0.028      344.877       22.011      862.476
07/09/2014  01:50:00      -55.275        5.075       -5.080        7.631        4.939        4.477       58.239       24.396       20.046        0.160        0.005       55.507        4.680        0.007      344.815       21.902      862.482
07/09/2014  01:51:00      -67.396        6.366       -1.741        5.506        6.590        5.612       30.314       43.422       31.497        0.235        0.005       67.696        2.360        0.001      344.841       21.943      862.480
07/09/2014  01:52:00      -77.029        6.371       -5.314       15.884       15.902       11.070      252.293      252.871      122.542        0.331        0.031       77.292        9.422        0.015      344.722       21.741      862.484
07/09/2014  01:53:00      -68.239       -0.287       -5.496       30.602       28.373       21.316      936.486      805.011      454.361        0.344        0.110       68.240       18.911        0.077      344.551       21.450      862.490
07/09/2014  01:54:00      -90.872       -1.340       -8.359       17.947       18.156       14.539      322.095      329.650      211.386        0.460        0.043       90.882       11.144        0.015      344.534       21.421      862.489
07/09/2014  01:55:00      -78.178      -18.419       -6.355       22.904       16.618       10.868      524.607      276.151      118.114        0.370        0.046       80.318        7.554        0.009      344.556       21.459      862.478
07/09/2014  01:56:00      -59.403      -14.930       -1.267       31.025       19.377       16.511      962.559      375.486      272.627        0.268        0.081       61.251       13.866        0.051      344.545       21.440      862.453
07/09/2014  01:57:00      -28.880        3.046        1.289       33.777       14.387       11.255     1140.917      206.973      126.672        0.116        0.074       29.040        5.471        0.035      344.494       21.350      862.431
07/09/2014  01:58:00      -91.676       13.967       -4.669       31.892       20.764       15.987     1017.096      431.139      255.593        0.516        0.085       92.734       12.929        0.019      344.588       21.513      862.423
07/09/2014  01:59:00      -92.727       27.346       -8.070       31.107       21.601       18.240      967.618      466.603      332.704        0.559        0.088       96.675       16.270        0.028      344.571       21.484      862.428
07/09/2014  02:00:00      -99.064       21.520       -7.798       18.654       22.620       16.653      347.964      511.664      277.323        0.574        0.057      101.374       10.584        0.011      344.583       21.505      862.431
07/09/2014  02:01:00      -93.682        6.778       -6.879       30.729       18.134       17.037      944.299      328.849      290.276        0.522        0.078       93.927       17.172        0.033      344.579       21.499      862.430
07/09/2014  02:02:00      -76.072       -0.018       -8.669       26.448       23.272       12.725      699.511      541.573      161.919        0.363        0.070       76.072        8.935        0.014      344.606       21.546      862.429
07/09/2014  02:03:00      -63.170        4.058      -15.967       24.785       24.179       14.641      614.301      584.631      214.352        0.284        0.071       63.300       15.373        0.059      344.576       21.495      862.428
07/09/2014  02:04:00      -44.630      -20.607       -1.203       17.598       25.009       16.498      309.689      625.469      272.169        0.181        0.060       49.158       12.812        0.068      344.531       21.416      862.428
07/09/2014  02:05:00      -30.221       -6.003        1.416       31.052       21.797       13.525      964.250      475.117      182.914        0.129        0.081       30.811       14.927        0.235      344.487       21.341      862.442
07/09/2014  02:06:00      -72.794      -36.493       -1.954       27.996       25.317       13.200      783.762      640.939      174.231        0.412        0.080       81.429       10.991        0.018      344.519       21.395      862.447
07/09/2014  02:07:00      -46.249      -43.538       -2.867       23.766       18.460       12.252      564.807      340.786      150.104        0.255        0.053       63.518        7.086        0.012      344.507       21.374      862.445
07/09/2014  02:08:00      -11.129       -4.219        9.492       21.440       18.657       14.828      459.661      348.071      219.859        0.063        0.051       11.902       15.495        1.695      344.483       21.335      862.439
07/09/2014  02:09:00      -61.961      -10.159       -0.331       19.983       19.221       14.261      399.309      369.448      203.371        0.246        0.049       62.788       12.079        0.037      344.522       21.401      862.443
07/09/2014  02:10:00      -64.958      -17.945       -3.208       18.513       13.573       13.693      342.724      184.230      187.503        0.263        0.036       67.391       12.506        0.034      344.535       21.423      862.454
07/09/2014  02:11:00      -43.404      -16.857       -2.108       22.781       17.159       13.269      518.983      294.441      176.072        0.158        0.049       46.562       13.491        0.084      344.539       21.431      862.455
07/09/2014  02:12:00      -41.227        0.417        6.956       39.827       26.423       16.123     1586.223      698.183      259.951        0.215        0.127       41.229       20.345        0.244      344.526       21.409      862.454
07/09/2014  02:13:00      -85.040       -2.522       -4.399       33.437       22.307       16.108     1118.021      497.591      259.477        0.457        0.094       85.078       15.913        0.035      344.572       21.486      862.460
07/09/2014  02:14:00      -35.254      -27.198       -0.352       20.785       17.937       12.417      432.015      321.726      154.189        0.145        0.045       44.526        7.133        0.026      344.516       21.391      862.469
07/09/2014  02:15:00      -16.414        8.067        1.891       13.245       17.768       12.914      175.427      315.685      166.760        0.050        0.033       18.289       12.208        0.446      344.524       21.405      862.458
07/09/2014  02:16:00      -23.184       27.781       -6.420       14.073       11.193        8.847      198.063      125.292       78.266        0.088        0.020       36.184       10.516        0.084      344.574       21.490      862.457
07/09/2014  02:17:00        5.287       26.035       -0.542        8.014        9.898        4.795       64.226       97.971       22.988        0.045        0.009       26.566        4.665        0.031      344.761       21.806      862.459
07/09/2014  02:18:00       22.397       11.026        0.509       12.448        7.031        6.176      154.947       49.430       38.146        0.043        0.012       24.964        4.287        0.029      344.679       21.668      862.467
07/09/2014  02:19:00       37.126       15.958       13.416        9.084        8.098        6.764       82.522       65.584       45.748        0.100        0.010       40.411        3.150        0.006      344.632       21.587      862.475
07/09/2014  02:20:00       56.761       36.794        5.572       11.602        7.825        8.983      134.596       61.228       80.700        0.244        0.014       67.643        2.773        0.002      344.517       21.391      862.475
07/09/2014  02:21:00       64.945       44.941        7.171       12.213       10.499       14.272      149.160      110.219      203.681        0.338        0.023       78.978        9.188        0.014      344.459       21.290      862.480
07/09/2014  02:22:00       68.077       39.262        8.859       14.654       11.788       15.684      214.748      138.967      246.003        0.343        0.030       78.588        7.892        0.010      344.446       21.270      862.487
07/09/2014  02:23:00       27.471       30.580       27.823       18.606       15.637       17.795      346.168      244.527      316.663        0.169        0.045       41.107        8.964        0.048      344.469       21.308      862.495
07/09/2014  02:24:00       17.356       21.278       28.853       14.499       14.581        7.084      210.227      212.615       50.179        0.103        0.024       27.458        7.368        0.072      344.609       21.550      862.507
07/09/2014  02:25:00       41.378       32.298       23.237       17.849       14.148       13.627      318.579      200.172      185.693        0.200        0.035       52.491        9.915        0.036      344.730       21.757      862.511
07/09/2014  02:26:00       43.327       24.218        7.643       18.067       15.475       10.401      326.419      239.486      108.177        0.160        0.034       49.636        5.295        0.011      344.689       21.686      862.509
07/09/2014  02:27:00       37.965       28.526       22.330       19.653       15.044       14.270      386.233      226.311      203.625        0.178        0.041       47.487       10.723        0.051      344.680       21.669      862.504
07/09/2014  02:28:00       16.190       19.236       15.481       15.104       20.926       14.885      228.116      437.883      221.553        0.088        0.044       25.143       12.250        0.237      344.621       21.570      862.493
07/09/2014  02:29:00       -7.494        6.272        4.435       13.460       16.671       13.309      181.160      277.931      177.120        0.038        0.032        9.772       12.339        1.594      344.628       21.581      862.482
07/09/2014  02:30:00      -20.262       -8.443        2.814       11.999        9.337        8.646      143.975       87.176       74.745        0.040        0.015       21.951        5.695        0.067      344.703       21.711      862.483
07/09/2014  02:31:00      -43.592      -21.453       -0.197       20.707        9.387       11.522      428.786       88.109      132.749        0.150        0.032       48.585       11.975        0.061      344.690       21.687      862.486
07/09/2014  02:32:00      -11.152       -6.897        4.841       20.739       14.199       10.124      430.105      201.610      102.504        0.046        0.037       13.112        8.305        0.401      344.629       21.584      862.482
07/09/2014  02:33:00      -35.523      -16.370       -0.734       17.711       13.904        8.886      313.683      193.311       78.961        0.106        0.029       39.114        5.260        0.018      344.559       21.463      862.480
07/09/2014  02:34:00      -60.982      -23.116       -3.280       25.449       17.136       10.713      647.639      293.641      114.760        0.266        0.053       65.216        9.358        0.021      344.605       21.544      862.472
07/09/2014  02:35:00      -73.731      -33.633       -6.129       10.252        7.971        9.018      105.101       63.537       81.318        0.343        0.012       81.040        2.223        0.001      344.549       21.445      862.469
07/09/2014  02:36:00      -62.110      -33.474       -0.900       11.102       14.036       10.315      123.263      197.022      106.395        0.270        0.021       70.556        4.778        0.005      344.577       21.495      862.466
07/09/2014  02:37:00      -73.707      -24.463       -4.425       12.698       13.013        7.865      161.233      169.339       61.854        0.322        0.020       77.660        5.565        0.005      344.626       21.579      862.456
07/09/2014  02:38:00      -78.156      -15.748      -10.855       11.782       14.737        9.086      138.825      217.168       82.550        0.346        0.022       79.727        4.962        0.004      344.619       21.568      862.445
07/09/2014  02:39:00      -77.448        2.044       -9.648       15.365       14.984       10.569      236.074      224.518      111.710        0.333        0.029       77.475        8.492        0.012      344.549       21.448      862.438
07/09/2014  02:40:00      -79.928        0.204      -11.034       14.050       10.525        7.703      197.410      110.768       59.329        0.344        0.018       79.928        4.664        0.003      344.554       21.455      862.424
07/09/2014  02:41:00      -95.974       -6.298      -11.760       18.714       16.719       12.429      350.209      279.511      154.491        0.509        0.039       96.180       11.428        0.014      344.594       21.524      862.420
07/09/2014  02:42:00     -101.083       -5.117       -6.689       23.680       10.786       13.210      560.759      116.342      174.496        0.557        0.043      101.213       15.165        0.022      344.512       21.383      862.423
07/09/2014  02:43:00      -90.501       -7.137       -3.812       28.048       17.864       14.213      786.665      319.120      201.997        0.478        0.065       90.782       14.308        0.025      344.385       21.166      862.426
07/09/2014  02:44:00      -88.877      -11.906       -3.664       24.674       23.605       15.700      608.789      557.219      246.475        0.473        0.071       89.671       14.485        0.026      344.248       20.931      862.425
07/09/2014  02:45:00      -84.570       -2.526       -5.844       21.686       20.466       11.241      470.265      418.854      126.367        0.410        0.051       84.608        9.587        0.013      344.269       20.969      862.424
07/09/2014  02:46:00      -61.924      -14.820       -1.811       19.748       16.648       13.620      389.987      277.161      185.508        0.245        0.043       63.673       11.671        0.034      344.321       21.056      862.414
07/09/2014  02:47:00      -69.562       -9.220       -0.901       33.705       14.786       14.419     1136.050      218.636      207.898        0.324        0.078       70.171       16.515        0.055      344.290       21.003      862.396
07/09/2014  02:48:00      -35.406       -3.247       -6.548       20.023       17.719       14.908      400.919      313.964      222.244        0.112        0.047       35.555       10.839        0.093      344.236       20.913      862.381
07/09/2014  02:49:00      -50.806      -17.888       -9.107       21.635       11.842        9.280      468.065      140.222       86.124        0.184        0.035       53.863       10.930        0.041      344.311       21.041      862.373
07/09/2014  02:50:00      -62.421      -24.761       -9.160       19.431       17.382       13.350      377.551      302.139      178.221        0.273        0.043       67.153        8.752        0.017      344.333       21.080      862.381
07/09/2014  02:51:00     -103.797      -15.786      -12.402       24.193       18.288       18.600      585.323      334.436      345.975        0.622        0.063      104.990       12.530        0.014      344.173       20.805      862.401
07/09/2014  02:52:00      -75.058      -31.862       -2.997       36.156       25.017       15.908     1307.291      625.873      253.074        0.442        0.109       81.541       16.167        0.039      344.075       20.638      862.413
07/09/2014  02:53:00     -102.950      -32.289      -12.740       23.533       22.217       15.303      553.792      493.575      234.195        0.654        0.064      107.895       11.493        0.011      344.098       20.677      862.423
07/09/2014  02:54:00      -86.706      -66.018       -1.489       49.508       23.801       20.710     2451.055      566.477      428.898        0.766        0.172      108.979       22.186        0.041      344.130       20.729      862.425
07/09/2014  02:55:00      -69.335      -40.835       -4.459       37.075       21.819       18.069     1374.569      476.080      326.492        0.434        0.109       80.466       20.736        0.066      344.129       20.727      862.431
07/09/2014  02:56:00      -49.539      -13.745       -2.617       27.439       19.307       13.113      752.888      372.773      171.947        0.197        0.065       51.410       11.863        0.053      344.154       20.771      862.421
07/09/2014  02:57:00      -70.090      -13.260       -2.160       23.677       22.682       14.945      560.619      514.483      223.339        0.320        0.065       71.333       14.594        0.042      344.221       20.886      862.414
07/09/2014  02:58:00      -72.231        1.339       -7.056       17.122        9.577        8.193      293.146       91.716       67.121        0.286        0.023       72.244        8.000        0.012      344.194       20.840      862.412
07/09/2014  02:59:00      -90.557      -11.476      -11.863       11.932       12.127        9.911      142.374      147.064       98.219        0.443        0.019       91.281        7.093        0.006      344.227       20.896      862.414
07/09/2014  03:00:00      -86.710      -16.145       -5.704       21.391       12.034        9.815      457.594      144.819       96.341        0.426        0.035       88.201        5.533        0.004      344.245       20.927      862.413
07/09/2014  03:01:00      -87.330      -13.154      -12.181       22.036       11.826       10.988      485.575      139.862      120.734        0.435        0.037       88.315        9.694        0.012      344.237       20.914      862.404
07/09/2014  03:02:00      -85.717      -16.202      -11.323       29.495       15.307       15.038      869.959      234.292      226.128        0.453        0.067       87.234       17.470        0.040      344.229       20.899      862.399
07/09/2014  03:03:00      -93.734      -12.798      -11.348       24.403       21.283       15.932      595.518      452.980      253.832        0.519        0.065       94.604       13.227        0.020      344.145       20.756      862.394
07/09/2014  03:04:00      -90.771        5.485      -10.055       29.808       27.512       16.900      888.490      756.893      285.604        0.515        0.097       90.936       12.318        0.018      344.112       20.700      862.366
07/09/2014  03:05:00      -70.028       -5.076       -8.718       39.495       26.017       21.058     1559.833      676.863      443.439        0.384        0.134       70.212       22.713        0.105      344.025       20.551      862.334
07/09/2014  03:06:00      -24.371      -10.190        2.545       27.401       14.631       10.779      750.821      214.067      116.185        0.089        0.054       26.415       10.946        0.172      344.024       20.549      862.311
07/09/2014  03:07:00      -70.772      -13.733       -3.978       29.736       17.491       14.277      884.228      305.944      203.821        0.330        0.070       72.092       14.395        0.040      344.105       20.688      862.293
07/09/2014  03:08:00      -80.430      -32.581      -11.303       18.540       19.903       12.507      343.743      396.134      156.431        0.428        0.045       86.778       11.090        0.016      344.182       20.819      862.284
07/09/2014  03:09:00      -72.265      -32.061       -6.042       22.175       20.061       10.600      491.713      402.436      112.357        0.365        0.050       79.057        8.779        0.012      344.110       20.697      862.273
07/09/2014  03:10:00      -55.934      -35.574       -1.176       22.039       22.256       13.779      485.736      495.334      189.848        0.278        0.059       66.288        5.797        0.008      344.038       20.573      862.266
07/09/2014  03:11:00      -55.603      -48.075       -5.303       23.843       22.198       13.958      568.497      492.761      194.815        0.334        0.063       73.505       10.482        0.020      344.101       20.681      862.258
07/09/2014  03:12:00      -25.661        4.318        1.954       17.548       13.900       11.418      307.925      193.204      130.376        0.066        0.032       26.022        7.335        0.079      344.103       20.685      862.248
07/09/2014  03:13:00      -57.338      -20.280       -3.539       19.162       21.254       14.994      367.173      451.731      224.830        0.238        0.052       60.819        8.083        0.018      344.061       20.614      862.239
07/09/2014  03:14:00      -21.381      -38.039       -5.751       19.599       21.172       17.044      384.106      448.267      290.491        0.153        0.056       43.636        9.195        0.044      344.100       20.679      862.226
07/09/2014  03:15:00       -8.256       -6.062      -12.428       18.234        6.857        7.767      332.471       47.021       60.333        0.035        0.022       10.243        9.393        0.841      344.337       21.083      862.210
07/09/2014  03:16:00      -43.027       -9.646       -9.123        9.633       14.139        7.006       92.799      199.905       49.091        0.118        0.017       44.095        4.155        0.009      344.339       21.089      862.199
07/09/2014  03:17:00      -29.944       -5.455      -14.462        8.960       10.823        6.704       80.282      117.130       44.948        0.069        0.012       30.437        5.898        0.038      344.306       21.032      862.184
07/09/2014  03:18:00      -30.463       15.317      -18.876       17.421       12.037        8.962      303.480      144.878       80.311        0.102        0.026       34.097        6.001        0.031      344.266       20.962      862.159
07/09/2014  03:19:00      -50.508        0.216      -13.770        6.912       11.136        8.919       47.775      124.021       79.557        0.150        0.013       50.508        6.181        0.015      344.271       20.971      862.140
07/09/2014  03:20:00      -48.313       -5.884       -5.727       13.393       18.312       10.417      179.376      335.313      108.523        0.151        0.031       48.670        9.218        0.036      344.167       20.793      862.132
07/09/2014  03:21:00      -50.129        6.653       -9.271       13.309       11.141       11.983      177.139      124.121      143.602        0.154        0.022       50.569        6.950        0.019      344.175       20.807      862.133
07/09/2014  03:22:00      -28.922       -7.220       -2.922        9.848       11.148        6.329       96.990      124.289       40.050        0.058        0.013       29.810        5.377        0.033      344.223       20.888      862.124
07/09/2014  03:23:00      -54.055       -8.395      -12.242        9.856       10.154        9.396       97.143      103.099       88.286        0.172        0.014       54.703        6.975        0.016      344.211       20.869      862.123
07/09/2014  03:24:00      -49.215       -3.022       -8.882       13.210       12.097        6.655      174.514      146.343       44.295        0.144        0.018       49.307        5.573        0.013      344.122       20.715      862.117
07/09/2014  03:25:00      -28.730       -3.977       -6.182       12.041        8.310        7.143      144.982       69.062       51.021        0.057        0.013       29.004        7.591        0.069      344.215       20.875      862.109
07/09/2014  03:26:00      -12.270        2.044       -5.475        9.531        5.770        4.875       90.838       33.294       23.768        0.017        0.007       12.439        4.677        0.141      344.314       21.045      862.110
07/09/2014  03:27:00      -24.011       -2.315        1.032        8.299        6.679        9.165       68.882       44.612       83.991        0.039        0.010       24.122        6.878        0.081      344.331       21.074      862.120
07/09/2014  03:28:00      -25.638       -8.787       -5.359       15.008        8.573        8.988      225.236       73.489       80.793        0.057        0.019       27.102        5.693        0.044      344.255       20.947      862.114
07/09/2014  03:29:00      -47.140       -9.259       -6.384       16.275       10.294        8.674      264.865      105.973       75.230        0.140        0.022       48.041        8.603        0.032      344.211       20.869      862.111
07/09/2014  03:30:00      -57.686       -7.960      -12.741       10.863        7.300        5.946      118.000       53.291       35.352        0.188        0.010       58.233        3.645        0.004      344.129       20.730      862.108
07/09/2014  03:31:00      -40.187      -11.184       -6.713        9.845       10.822        5.807       96.920      117.108       33.718        0.102        0.012       41.714        3.919        0.009      344.062       20.615      862.103
07/09/2014  03:32:00      -25.315        0.544       -3.858       10.140        7.398        6.054      102.817       54.733       36.651        0.043        0.010       25.320        3.673        0.021      344.149       20.764      862.095
07/09/2014  03:33:00       17.984       37.801        5.212       14.750       13.723        9.694      217.571      188.322       93.978        0.114        0.025       41.861        8.356        0.040      344.402       21.195      862.098
07/09/2014  03:34:00       30.715       40.797        4.586       13.543       13.337        8.931      183.412      177.865       79.768        0.153        0.022       51.067        7.926        0.024      344.351       21.110      862.106
07/09/2014  03:35:00       23.531       33.627        2.402       18.301       12.967       10.431      334.940      168.137      108.816        0.115        0.031       41.043        7.657        0.035      344.268       20.968      862.108
07/09/2014  03:36:00       48.446       39.319        6.451       15.879       15.009       10.484      252.134      225.265      109.919        0.226        0.029       62.394        7.098        0.013      344.194       20.840      862.099
07/09/2014  03:37:00       58.615       42.605        9.946        9.718        9.877        8.173       94.436       97.556       66.806        0.280        0.013       72.463        4.180        0.003      344.159       20.782      862.095
07/09/2014  03:38:00       67.816       47.479       15.612       26.041       12.383       14.288      678.123      153.340      204.136        0.407        0.052       82.784        9.935        0.014      344.114       20.704      862.103
07/09/2014  03:39:00       74.666       43.968        2.055       24.128       15.175        9.844      582.176      230.286       96.897        0.421        0.045       86.650        8.308        0.009      344.093       20.667      862.103
07/09/2014  03:40:00       97.742       69.769       14.841       27.951       28.560       17.380      781.252      815.668      302.057        0.827        0.095      120.088        7.041        0.003      344.354       21.113      862.100
07/09/2014  03:41:00       53.781       25.043       13.996       18.737       14.541       14.414      351.077      211.433      207.757        0.224        0.039       59.326        9.234        0.024      344.309       21.036      862.109
07/09/2014  03:42:00       51.560       53.154        5.069       25.252       18.917       18.835      637.652      357.847      354.758        0.343        0.068       74.052       12.576        0.029      344.407       21.203      862.117
07/09/2014  03:43:00       94.448       54.479       20.253       14.163       14.935       17.025      200.603      223.066      289.838        0.651        0.036      109.034       11.071        0.010      344.398       21.188      862.107
07/09/2014  03:44:00       96.630       58.542       21.265       26.098       22.959       19.389      681.099      527.098      375.946        0.740        0.079      112.980       12.011        0.011      344.306       21.033      862.106
07/09/2014  03:45:00       65.093       40.425       19.241       24.146       19.021       23.636      583.044      361.817      558.672        0.387        0.075       76.625       14.650        0.037      344.292       21.007      862.111
07/09/2014  03:46:00       56.939       49.490       12.847       18.688       14.250       12.963      349.232      203.054      168.041        0.329        0.036       75.441        6.340        0.007      344.282       20.990      862.111
07/09/2014  03:47:00       56.467       45.490       14.913       14.688       12.758       11.849      215.744      162.771      140.388        0.300        0.026       72.511        3.687        0.003      344.272       20.974      862.099
07/09/2014  03:48:00       43.158       51.889        1.009       18.309       17.228       14.969      335.234      296.818      224.082        0.271        0.043       67.492       10.514        0.024      344.259       20.952      862.095
07/09/2014  03:49:00       44.229       37.656       -1.551       23.377       18.759       15.545      546.492      351.897      241.637        0.226        0.057       58.088       13.675        0.055      344.266       20.961      862.093
07/09/2014  03:50:00       35.125       33.990        2.521       24.123       10.744       21.928      581.925      115.443      480.856        0.179        0.059       48.879       18.137        0.138      344.342       21.093      862.101
07/09/2014  03:51:00       11.382        9.580        5.869       11.014        9.349       12.881      121.312       87.405      165.909        0.032        0.019       14.877        7.546        0.257      344.230       20.899      862.111
07/09/2014  03:52:00       14.845       -7.324       -7.555        8.995       14.351       11.192       80.909      205.947      125.269        0.037        0.021       16.554        6.207        0.141      344.357       21.121      862.113
07/09/2014  03:53:00      -14.711       -5.009       -0.380       19.063        7.996        8.300      363.404       63.934       68.893        0.037        0.025       15.541        6.588        0.180      344.268       20.967      862.113
07/09/2014  03:54:00      -70.000       -2.952       -6.634       17.825        8.797       11.563      317.743       77.388      133.702        0.274        0.026       70.062       10.769        0.024      344.129       20.728      862.114
07/09/2014  03:55:00      -95.047        3.184      -13.025       22.821       14.387       14.758      520.791      206.977      217.800        0.508        0.047       95.100       10.902        0.013      344.006       20.517      862.112
07/09/2014  03:56:00      -65.815       -3.649       -4.066       14.504       11.605        9.138      210.380      134.667       83.512        0.239        0.021       65.916        4.127        0.004      343.943       20.410      862.121
07/09/2014  03:57:00      -78.603        2.988       -6.691       13.910        9.784       12.952      193.485       95.734      167.742        0.334        0.023       78.660       10.407        0.018      343.985       20.484      862.136
07/09/2014  03:58:00      -88.840       -4.317      -10.642       10.252       10.012        9.609      105.101      100.236       92.337        0.416        0.015       88.945        7.296        0.007      344.084       20.651      862.142
07/09/2014  03:59:00      -64.641       -7.388       -4.123       25.628       10.058       14.313      656.780      101.155      204.863        0.261        0.048       65.062       13.291        0.042      344.069       20.627      862.146
07/09/2014  04:00:00      -65.611      -16.094       -3.901       12.011       12.659        7.110      144.266      160.247       50.551        0.247        0.018       67.556        4.499        0.004      344.082       20.648      862.152
07/09/2014  04:01:00      -48.436      -22.358        2.474       16.091       15.078        9.702      258.909      227.352       94.120        0.172        0.029       53.347        8.102        0.023      344.086       20.655      862.158
07/09/2014  04:02:00      -46.206      -39.773       -2.041       16.118        7.963        8.941      259.785       63.407       79.942        0.206        0.020       60.966        9.356        0.024      344.150       20.764      862.163
07/09/2014  04:03:00      -68.772      -39.242       -6.942       11.198        9.750        5.774      125.400       95.068       33.340        0.329        0.013       79.180        0.717        0.000      344.189       20.831      862.168
07/09/2014  04:04:00      -67.794      -38.930       -2.022       12.056        9.977        9.690      145.344       99.531       93.902        0.323        0.017       78.177        6.996        0.008      344.198       20.846      862.177
07/09/2014  04:05:00      -79.396      -26.532      -10.895       10.523       11.926        8.409      110.727      142.230       70.712        0.372        0.016       83.711        4.244        0.003      344.136       20.742      862.184
07/09/2014  04:06:00      -92.602      -26.365       -7.321       13.274       11.122        8.738      176.198      123.691       76.353        0.485        0.019       96.282        5.298        0.003      344.081       20.647      862.187
07/09/2014  04:07:00      -95.811      -17.788      -12.489       27.072       18.484       12.800      732.875      341.641      163.853        0.545        0.062       97.449       13.053        0.018      344.032       20.563      862.190
07/09/2014  04:08:00     -110.564      -13.419      -10.078       31.755       17.078       14.857     1008.368      291.672      220.725        0.701        0.076      111.375       15.036        0.018      343.917       20.368      862.184
07/09/2014  04:09:00     -124.048       -9.794       -7.050       32.829       22.465       21.525     1077.717      504.654      463.309        0.879        0.102      124.434       19.592        0.025      343.878       20.300      862.185
07/09/2014  04:10:00      -88.078      -10.030       -2.355       35.991       31.625       21.497     1295.320     1000.157      462.103        0.531        0.138       88.647       17.067        0.037      343.869       20.284      862.179
07/09/2014  04:11:00      -93.016        0.452       -9.899       42.815       28.037       19.120     1833.145      786.069      365.559        0.587        0.149       93.017       17.969        0.037      343.825       20.208      862.171
07/09/2014  04:12:00      -88.878       17.679       -4.550       44.373       30.429       21.178     1968.999      925.929      448.510        0.579        0.167       90.619       18.795        0.043      343.828       20.216      862.161
07/09/2014  04:13:00      -93.246        2.784       -9.714       41.250       22.277       12.962     1701.581      496.246      168.024        0.558        0.118       93.288       12.307        0.017      343.852       20.257      862.164
07/09/2014  04:14:00      -89.394      -11.075       -3.990       26.936       29.223       20.109      725.527      853.981      404.371        0.506        0.099       90.077       18.405        0.042      343.865       20.277      862.160
07/09/2014  04:15:00      -85.224      -54.544       -5.557       38.479       34.002       21.840     1480.615     1156.104      476.972        0.669        0.156      101.184       20.750        0.042      343.784       20.139      862.152
07/09/2014  04:16:00      -74.947      -38.898        3.588       51.444       33.642       21.245     2646.466     1131.753      451.363        0.569        0.211       84.440       16.364        0.038      343.730       20.048      862.150
07/09/2014  04:17:00      -72.383       -9.754       -1.557       53.199       34.054       22.437     2830.180     1159.663      503.427        0.491        0.225       73.037       19.860        0.074      343.761       20.101      862.145
07/09/2014  04:18:00     -111.546      -26.943       -6.820       25.629       33.458       17.732      656.865     1119.418      314.441        0.765        0.105      114.754       11.487        0.010      343.725       20.038      862.148
07/09/2014  04:19:00     -129.137       22.414      -13.518       25.534       34.674       19.203      651.992     1202.286      368.769        0.979        0.111      131.067       11.951        0.008      343.662       19.932      862.149
07/09/2014  04:20:00     -157.469        6.411      -21.238       34.486       29.021       20.736     1189.302      842.200      429.985        1.387        0.123      157.600       15.513        0.010      343.659       19.926      862.148
07/09/2014  04:21:00     -112.177      -18.335      -12.773       39.326       31.918       22.743     1546.554     1018.789      517.247        0.808        0.154      113.665       22.785        0.040      343.676       19.956      862.152
07/09/2014  04:22:00      -91.047      -19.671       -6.614       47.380       33.832       18.861     2244.875     1144.584      355.727        0.623        0.187       93.148       17.488        0.035      343.654       19.919      862.166
07/09/2014  04:23:00      -79.792       11.890       -4.087       38.898       28.044       24.420     1513.072      786.484      596.341        0.471        0.145       80.673       20.941        0.067      343.674       19.952      862.181
07/09/2014  04:24:00     -114.153       -3.188       -8.810       36.730       33.587       18.619     1349.105     1128.108      346.670        0.797        0.141      114.198       11.805        0.011      343.702       19.998      862.194
07/09/2014  04:25:00      -99.230       -0.912       -6.695       31.535       38.483       20.349      994.471     1480.945      414.069        0.639        0.144       99.234       15.860        0.026      343.699       19.994      862.191
07/09/2014  04:26:00      -22.827        7.831        6.129       22.483       31.364       18.047      505.471      983.708      325.683        0.122        0.091       24.133       16.032        0.441      343.664       19.933      862.188
07/09/2014  04:27:00      -55.410       -9.986       -3.039       26.225       33.780       20.224      687.762     1141.106      408.995        0.271        0.112       56.303       16.272        0.084      343.714       20.020      862.194
07/09/2014  04:28:00      -42.395       -7.603       -6.605       25.407       32.894       17.911      645.512     1082.017      320.791        0.197        0.102       43.072       11.842        0.076      343.725       20.040      862.191
07/09/2014  04:29:00      -52.972      -11.953        0.873       34.339       23.977       15.674     1179.186      574.902      245.678        0.247        0.100       54.303       16.438        0.092      343.659       19.927      862.187
07/09/2014  04:30:00      -36.219      -18.202       -3.051       21.643       20.463       11.793      468.421      418.746      139.080        0.134        0.051       40.536        6.992        0.030      343.705       20.005      862.193
07/09/2014  04:31:00      -23.824       -1.802       -1.455       23.899       15.628       14.481      571.175      244.235      209.691        0.080        0.051       23.892       14.753        0.381      343.716       20.025      862.213
07/09/2014  04:32:00      -33.486      -17.920       -2.753       18.264       22.891       13.468      333.556      523.996      181.399        0.124        0.052       37.979        6.193        0.027      343.818       20.196      862.225
07/09/2014  04:33:00      -58.313        4.202       -6.036       16.714       16.660       12.026      279.354      277.552      144.617        0.208        0.035       58.464       10.534        0.032      343.842       20.239      862.236
07/09/2014  04:34:00      -48.364        4.865       -5.519       22.570       16.035       10.995      509.409      257.117      120.895        0.164        0.044       48.608        6.985        0.021      343.811       20.186      862.244
07/09/2014  04:35:00      -13.814       -1.111       -4.059       20.343        8.879        7.804      413.824       78.833       60.908        0.038        0.028       13.859        4.846        0.122      343.811       20.186      862.248
07/09/2014  04:36:00       -3.401       19.997      -18.152       18.064       14.281       10.866      326.314      203.943      118.070        0.069        0.032       20.284        7.462        0.135      344.118       20.712      862.257
07/09/2014  04:37:00      -27.273      -10.718       -2.200       20.950       14.024       12.045      438.894      196.678      145.090        0.082        0.039       29.304        3.891        0.018      343.988       20.488      862.256
07/09/2014  04:38:00      -77.356      -30.741       -5.129       22.199       21.161       13.885      492.783      447.806      192.804        0.404        0.057       83.240        9.460        0.013      343.867       20.281      862.266
07/09/2014  04:39:00      -90.848      -50.272      -10.167       22.334       23.618       14.355      498.822      557.821      206.071        0.607        0.063      103.830       11.981        0.013      343.780       20.132      862.279
07/09/2014  04:40:00      -81.003      -63.250       -3.716       22.522       14.997       14.481      507.222      224.908      209.711        0.576        0.047      102.772        7.518        0.005      343.748       20.078      862.285
07/09/2014  04:41:00      -67.820      -45.744       -9.237       29.772       16.865       15.960      886.382      284.436      254.709        0.410        0.071       81.805       13.590        0.028      343.729       20.047      862.282
07/09/2014  04:42:00      -87.185      -30.094       -4.490       19.120       17.570       15.873      365.575      308.692      251.947        0.473        0.046       92.233        8.356        0.008      343.732       20.051      862.278
07/09/2014  04:43:00     -106.547      -29.237       -6.329       24.657       31.301       14.562      607.953      979.766      212.043        0.702        0.090      110.486       11.153        0.010      343.743       20.070      862.281
07/09/2014  04:44:00     -131.358      -61.159       -2.354       18.727       22.582       11.947      350.690      509.950      142.725        1.100        0.050      144.897        7.661        0.003      343.725       20.039      862.285
07/09/2014  04:45:00     -107.049      -54.852       -1.717       26.269       28.510       17.499      690.072      812.811      306.198        0.814        0.090      120.284       13.513        0.013      343.746       20.075      862.278
07/09/2014  04:46:00     -110.010      -21.427      -10.599       27.746       30.965       19.318      769.853      958.827      373.188        0.739        0.105      112.078       16.914        0.023      343.672       19.947      862.276
07/09/2014  04:47:00     -136.270        0.102       -9.445       43.857       28.612       23.410     1923.453      818.632      548.031        1.097        0.165      136.270       23.716        0.030      343.697       19.992      862.279
07/09/2014  04:48:00     -173.876      -30.579      -11.034       33.044       29.814       20.699     1091.893      888.859      428.458        1.685        0.120      176.544       18.663        0.011      343.696       19.989      862.280
07/09/2014  04:49:00     -132.355      -32.452       -5.398       52.058       34.415       22.748     2710.016     1184.362      517.480        1.151        0.221      136.275       24.163        0.031      343.643       19.899      862.279
07/09/2014  04:50:00     -118.870      -27.758       -6.275       35.439       32.479       17.213     1255.916     1054.897      296.302        0.877        0.130      122.068       17.252        0.020      343.632       19.880      862.276
07/09/2014  04:51:00      -81.175      -25.112        1.588       37.364       32.983       21.005     1396.078     1087.894      441.194        0.507        0.146       84.971       19.982        0.055      343.604       19.832      862.278
07/09/2014  04:52:00     -105.304      -17.021       -6.641       45.075       36.377       25.100     2031.758     1323.280      630.028        0.770        0.199      106.670       20.982        0.039      343.626       19.868      862.269
07/09/2014  04:53:00     -149.056       -6.385      -19.122       57.969       39.243       26.267     3360.423     1540.023      689.964        1.411        0.280      149.193       30.484        0.042      343.643       19.898      862.260
07/09/2014  04:54:00     -158.915      -18.880       -8.672       42.928       44.618       22.574     1842.791     1990.807      509.578        1.501        0.217      160.032       21.338        0.018      343.629       19.874      862.262
07/09/2014  04:55:00     -126.724      -22.551       -7.599       53.341       34.979       22.711     2845.275     1223.552      515.805        1.060        0.229      128.715       25.200        0.038      343.578       19.789      862.263
07/09/2014  04:56:00     -131.456      -36.707       -7.813       35.763       33.110       18.319     1278.996     1096.268      335.601        1.070        0.136      136.485       18.484        0.018      343.561       19.759      862.257
07/09/2014  04:57:00     -146.288      -30.614      -10.765       44.040       36.311       24.481     1939.554     1318.496      599.340        1.315        0.193      149.457       23.809        0.025      343.516       19.681      862.252
07/09/2014  04:58:00     -140.053      -12.176      -10.072       49.372       43.263       25.506     2437.638     1871.703      650.553        1.241        0.248      140.581       24.879        0.031      343.513       19.677      862.242
07/09/2014  04:59:00     -151.166      -26.024      -17.086       45.634       48.261       27.421     2082.489     2329.161      751.920        1.449        0.258      153.390       20.800        0.018      343.544       19.730      862.244
07/09/2014  05:00:00     -135.229      -43.752       -9.050       34.555       42.450       28.134     1194.045     1802.001      791.507        1.203        0.189      142.131       20.831        0.021      343.569       19.773      862.244
07/09/2014  05:01:00     -169.567      -17.354      -18.586       49.308       56.652       27.764     2431.299     3209.460      770.823        1.790        0.321      170.453       27.773        0.027      343.625       19.867      862.235
07/09/2014  05:02:00     -164.287       47.656      -20.633       53.403       41.006       28.216     2851.868     1681.498      796.145        1.751        0.266      171.060       20.856        0.015      343.778       20.128      862.223
07/09/2014  05:03:00     -142.480       35.094      -23.183       42.689       33.375       32.790     1822.380     1113.918     1075.197        1.304        0.201      146.738       19.713        0.018      343.932       20.392      862.219
07/09/2014  05:04:00     -103.607       11.441       -9.268       27.715       25.896       18.918      768.111      670.621      357.896        0.637        0.090      104.237       16.782        0.026      343.893       20.326      862.227
07/09/2014  05:05:00     -133.079      -47.433       -7.610       60.524       43.538       28.629     3663.185     1895.522      819.616        1.320        0.319      141.279       36.437        0.067      343.751       20.083      862.230
07/09/2014  05:06:00     -179.422      -37.793      -18.930       32.599       27.229       19.934     1062.681      741.406      397.363        1.809        0.110      183.360       18.995        0.011      343.649       19.909      862.230
07/09/2014  05:07:00     -125.913       -8.520      -12.388       55.034       42.284       20.777     3028.700     1787.933      431.695        1.066        0.262      126.201       25.000        0.039      343.631       19.880      862.231
07/09/2014  05:08:00     -116.012      -12.520      -12.695       40.245       25.676       20.206     1619.654      659.257      408.280        0.823        0.134      116.686       23.037        0.039      343.645       19.901      862.226
07/09/2014  05:09:00      -98.567      -10.099       -5.422       43.946       31.248       22.770     1931.240      976.444      518.477        0.664        0.171       99.083       18.807        0.036      343.600       19.827      862.210
07/09/2014  05:10:00     -128.015      -17.615       -5.808       34.882       31.151       24.806     1216.784      970.405      615.342        0.977        0.140      129.221       21.494        0.028      343.552       19.744      862.219
07/09/2014  05:11:00     -163.327        7.992       -8.822       37.121       23.260       19.293     1377.976      541.027      372.239        1.455        0.115      163.522       16.596        0.010      343.677       19.957      862.229
07/09/2014  05:12:00     -163.441       12.727      -18.810       36.570       24.940       19.279     1337.355      622.000      371.691        1.478        0.117      163.936       19.723        0.014      343.727       20.042      862.222
07/09/2014  05:13:00     -137.390        1.176      -12.746       32.976       34.623       15.276     1087.416     1198.719      233.349        1.078        0.126      137.395       13.819        0.010      343.739       20.063      862.223
07/09/2014  05:14:00     -113.688       36.896      -12.533       60.732       32.756       23.956     3688.384     1072.956      573.883        0.989        0.267      119.526       25.671        0.046      343.671       19.947      862.236
07/09/2014  05:15:00     -155.171       28.561       -7.275       22.411       19.018       14.646      502.244      361.674      214.520        1.301        0.054      157.778       11.137        0.005      343.845       20.243      862.241
07/09/2014  05:16:00      -91.464       11.916       -9.030       35.212       24.986       18.281     1239.903      624.297      334.193        0.539        0.110       92.237       14.500        0.025      343.714       20.019      862.244
07/09/2014  05:17:00      -65.792      -33.241       -3.874       24.874       27.720       14.181      618.720      768.380      201.087        0.352        0.079       73.713        9.525        0.017      343.758       20.095      862.255
07/09/2014  05:18:00      -73.864      -44.340       -4.212       43.506       24.181       17.887     1892.809      584.706      319.928        0.512        0.140       86.150       14.333        0.028      343.699       19.993      862.279
07/09/2014  05:19:00      -66.263      -77.784       -5.173       85.928       48.078       28.552     7383.702     2311.539      815.238        1.049        0.526      102.182       39.783        0.152      343.654       19.916      862.295
07/09/2014  05:20:00      -27.679      -37.837        2.153       48.390       34.357       20.319     2341.603     1180.434      412.855        0.307        0.197       46.881       17.539        0.140      343.591       19.812      862.305
07/09/2014  05:21:00      -83.746      -53.440       -3.823       70.953       31.108       24.229     5034.377      967.720      587.030        0.824        0.329       99.344       33.745        0.115      343.662       19.931      862.313
07/09/2014  05:22:00     -120.850      -66.035        1.603       61.075       37.939       25.002     3730.169     1439.381      625.104        1.238        0.290      137.715       27.334        0.039      343.581       19.793      862.317
07/09/2014  05:23:00     -138.911      -47.498       -6.339       26.704       24.269       18.455      713.121      588.995      340.571        1.162        0.082      146.807       15.102        0.011      343.588       19.805      862.333
07/09/2014  05:24:00      -82.741      -24.686        2.024       42.702       32.636       23.653     1823.428     1065.108      559.475        0.545        0.172       86.345       19.790        0.053      343.640       19.893      862.335
07/09/2014  05:25:00      -49.036      -48.245        1.040       49.045       41.508       34.910     2405.423     1722.946     1218.733        0.504        0.267       68.790       21.842        0.101      343.674       19.953      862.345
07/09/2014  05:26:00     -128.446     -123.098       -2.721       88.688       58.951       30.572     7865.634     3475.229      934.636        2.197        0.614      177.908       22.163        0.016      343.539       19.720      862.353
07/09/2014  05:27:00     -184.259     -127.085        3.076       62.572       53.198       33.951     3915.265     2830.035     1152.697        2.900        0.395      223.834       33.554        0.022      343.470       19.601      862.355
07/09/2014  05:28:00     -164.805      -96.937       -2.476       58.164       51.717       31.922     3383.100     2674.650     1019.038        2.182        0.354      191.199       33.918        0.031      343.426       19.528      862.348
07/09/2014  05:29:00     -133.715      -55.322       -5.333       51.739       52.885       29.671     2676.976     2796.862      880.357        1.366        0.318      144.708       29.584        0.042      343.405       19.492      862.331
07/09/2014  05:30:00     -122.181      -41.456       -5.044       47.459       34.598       22.697     2252.398     1197.046      515.168        1.032        0.198      129.022       20.367        0.025      343.413       19.506      862.320
07/09/2014  05:31:00     -121.511      -42.667        1.704       36.573       31.787       19.175     1337.591     1010.400      367.673        0.965        0.136      128.785       18.459        0.021      343.377       19.446      862.313
07/09/2014  05:32:00     -102.357      -34.003       -2.839       37.168       30.674       19.564     1381.466      940.908      382.757        0.717        0.135      107.857       17.532        0.026      343.369       19.433      862.309
07/09/2014  05:33:00      -86.996      -25.653       -3.065       26.428       25.628       18.328      698.430      656.819      335.914        0.496        0.085       90.699       10.767        0.014      343.412       19.506      862.321
07/09/2014  05:34:00     -107.789      -40.380       -0.985       35.165       23.403       18.427     1236.589      547.708      339.565        0.769        0.106      115.105       15.562        0.018      343.343       19.387      862.328
07/09/2014  05:35:00      -72.936      -40.373        6.631       35.644       26.999       21.730     1270.459      728.948      472.187        0.473        0.124       83.365       13.640        0.027      343.363       19.421      862.345
07/09/2014  05:36:00      -41.433      -30.020        9.478       34.251       23.062       17.396     1173.140      531.875      302.625        0.236        0.100       51.166       16.637        0.106      343.388       19.464      862.364
07/09/2014  05:37:00      -37.749      -43.329        3.967       42.330       35.165       16.743     1791.833     1236.590      280.333        0.331        0.165       57.466       16.979        0.087      343.441       19.556      862.392
07/09/2014  05:38:00      -62.239      -91.919       -1.062       34.488       25.583       18.783     1189.421      654.504      352.807        0.726        0.110      111.008       18.000        0.026      343.463       19.592      862.416
07/09/2014  05:39:00      -79.638      -77.331       -3.359       35.470       28.548       21.993     1258.125      814.994      483.701        0.744        0.128      111.006       23.976        0.047      343.399       19.483      862.428
07/09/2014  05:40:00      -48.911      -57.429      -12.247       22.003       18.578       16.258      484.139      345.128      264.324        0.347        0.055       75.435        7.013        0.009      343.455       19.581      862.430
07/09/2014  05:41:00      -75.559      -40.689      -11.754       27.071       23.158       14.112      732.860      536.304      199.151        0.449        0.073       85.818       12.046        0.020      343.483       19.626      862.456
07/09/2014  05:42:00      -60.216      -54.413       -0.876       26.227       24.152       14.261      687.867      583.336      203.383        0.403        0.074       81.159       10.785        0.018      343.422       19.521      862.484
07/09/2014  05:43:00      -74.617      -60.541       -2.800       25.510       23.144       16.200      650.762      535.628      262.432        0.534        0.072       96.088       11.033        0.013      343.435       19.544      862.504
07/09/2014  05:44:00      -96.647      -40.886       -3.953       28.479       20.195       14.277      811.043      407.848      203.839        0.623        0.071      104.940       11.241        0.011      343.386       19.460      862.514
07/09/2014  05:45:00      -27.496      -32.410       -1.922       26.651       13.589       13.377      710.302      184.663      178.947        0.144        0.054       42.502       11.369        0.072      343.329       19.362      862.518
07/09/2014  05:46:00      -40.438      -12.229        0.566       11.311       12.205        9.664      127.929      148.963       93.396        0.108        0.019       42.247        8.164        0.037      343.354       19.404      862.507
07/09/2014  05:47:00      -16.476       -5.917       -0.074       13.925        9.228        6.684      193.903       85.152       44.674        0.032        0.016       17.506        7.915        0.204      343.404       19.487      862.514
07/09/2014  05:48:00       10.053      -19.620        1.974        8.892        8.359        9.484       79.065       69.878       89.951        0.036        0.012       22.046        5.378        0.060      343.485       19.631      862.510
07/09/2014  05:49:00        0.220       -8.479        7.274        6.427        7.841        7.120       41.305       61.484       50.698        0.014        0.008        8.481        3.836        0.205      343.486       19.631      862.493
07/09/2014  05:50:00      -16.336      -22.941        2.678       14.441        8.232        7.053      208.553       67.770       49.750        0.056        0.016       28.163        1.261        0.002      343.577       19.786      862.477
07/09/2014  05:51:00      -39.004      -13.950       -9.688       12.908        8.288        6.644      166.608       68.694       44.145        0.104        0.014       41.424        4.702        0.013      343.546       19.734      862.466
07/09/2014  05:52:00      -42.428       -5.429       -6.079       14.179        9.296        7.835      201.048       86.413       61.380        0.111        0.017       42.774        4.051        0.009      343.501       19.657      862.462
07/09/2014  05:53:00      -62.433       -7.531       -8.760        9.259       13.363        7.169       85.724      178.563       51.398        0.217        0.016       62.885        1.364        0.000      343.406       19.494      862.472
07/09/2014  05:54:00      -57.318       -7.110       -9.108        9.899       10.360        6.661       97.980      107.331       44.366        0.183        0.012       57.757        4.189        0.005      343.339       19.382      862.484
07/09/2014  05:55:00      -24.509       -4.097       -6.426       12.928        8.818        6.722      167.126       77.763       45.192        0.047        0.015       24.849        5.454        0.048      343.328       19.361      862.502
07/09/2014  05:56:00       -1.505       17.958       -1.450       14.246       15.518        7.662      202.954      240.799       58.709        0.041        0.025       18.021        8.736        0.235      343.355       19.409      862.531
07/09/2014  05:57:00       25.192       37.137        6.597        8.370       12.380        9.848       70.059      153.255       96.976        0.119        0.016       44.875        3.669        0.007      343.309       19.330      862.547
07/09/2014  05:58:00       39.228       27.443        2.725        8.646        9.623        4.885       74.762       92.598       23.863        0.125        0.010       47.874        3.117        0.004      343.303       19.315      862.576
07/09/2014  05:59:00       31.747       16.475        3.159        7.732        6.797        6.098       59.790       46.201       37.189        0.072        0.007       35.767        4.586        0.016      343.401       19.487      862.597
07/09/2014  06:00:00       50.742       32.573        6.676       10.651        9.152       12.016      113.441       83.766      144.376        0.201        0.017       60.297        6.769        0.013      343.381       19.451      862.610
07/09/2014  06:01:00       25.080       17.190       31.364       18.429       15.889        8.742      339.624      252.452       76.429        0.129        0.033       30.405        8.834        0.084      343.367       19.431      862.626
07/09/2014  06:02:00        1.134      -52.469       -2.771       15.216       25.740       15.776      231.519      662.526      248.889        0.195        0.057       52.481       14.444        0.076      343.511       19.675      862.650
07/09/2014  06:03:00      -24.596      -18.695       -3.649       19.672       18.875       10.323      386.973      356.265      106.572        0.091        0.042       30.894        8.344        0.073      343.464       19.595      862.675
07/09/2014  06:04:00      -35.998      -15.651       -3.085       21.476       16.555       10.852      461.210      274.060      117.759        0.120        0.043       39.253        7.279        0.034      343.391       19.470      862.701
07/09/2014  06:05:00      -60.929      -29.192        1.321       14.576       12.035        8.289      212.450      144.832       68.703        0.250        0.021       67.561        5.467        0.007      343.325       19.356      862.710
07/09/2014  06:06:00      -68.609      -15.414       -4.965       16.022       12.842        7.442      256.709      164.917       55.377        0.272        0.024       70.319        8.238        0.014      343.369       19.433      862.715
07/09/2014  06:07:00      -68.738        7.702      -10.274       11.248       11.023        8.140      126.513      121.501       66.262        0.260        0.016       69.169        6.759        0.010      343.385       19.460      862.715
07/09/2014  06:08:00      -99.684       19.095      -16.665       13.826       10.185       10.093      191.171      103.731      101.868        0.549        0.020      101.496        4.212        0.002      343.333       19.369      862.710
07/09/2014  06:09:00     -108.587       12.070      -20.224       17.579       14.421       12.528      309.030      207.966      156.945        0.651        0.034      109.256        9.399        0.007      343.301       19.315      862.710
07/09/2014  06:10:00      -76.111        0.685      -14.268       24.788       18.148       14.437      614.458      329.348      208.427        0.357        0.058       76.114       12.358        0.026      343.318       19.346      862.707
07/09/2014  06:11:00      -62.832        1.526       -8.947       39.979       20.641       17.743     1598.304      426.040      314.818        0.318        0.117       62.850       14.643        0.054      343.381       19.453      862.702
07/09/2014  06:12:00      -69.015      -15.586       -2.278       23.458       21.798       15.156      550.282      475.157      229.707        0.313        0.063       70.753        9.652        0.019      343.347       19.395      862.700
07/09/2014  06:13:00     -114.096       -6.394       -6.509       29.949       21.401       17.092      896.918      458.000      292.134        0.737        0.082      114.275       17.193        0.023      343.278       19.276      862.703
07/09/2014  06:14:00      -66.344      -23.295       -5.153       21.394       30.727       16.347      457.688      944.156      267.235        0.332        0.083       70.315       15.132        0.046      343.237       19.206      862.699
07/09/2014  06:15:00      -42.804        6.592       -7.786       19.513       21.829       14.631      380.762      476.520      214.067        0.150        0.054       43.309        6.671        0.024      343.225       19.189      862.706
07/09/2014  06:16:00      -61.987        6.457       -5.818       39.826       19.948       20.940     1586.072      397.906      438.493        0.317        0.121       62.323       19.798        0.101      343.293       19.303      862.709
07/09/2014  06:17:00      -60.103       -8.154      -11.327       29.448       19.166       12.754      867.180      367.350      162.674        0.260        0.070       60.653       11.266        0.035      343.271       19.263      862.710
07/09/2014  06:18:00      -81.438       -0.302      -11.426       29.274       23.945       14.307      856.962      573.381      204.700        0.420        0.082       81.438       13.772        0.029      343.264       19.254      862.715
07/09/2014  06:19:00      -44.369      -17.547        1.344       25.966       17.188       15.783      674.217      295.422      249.087        0.175        0.061       47.712        8.113        0.029      343.338       19.380      862.729
07/09/2014  06:20:00      -24.875      -15.319       -1.159       24.551       15.907       16.260      602.745      253.017      264.383        0.099        0.056       29.214        9.557        0.107      343.371       19.436      862.744
07/09/2014  06:21:00       11.586       12.210        6.970       12.899       17.159       15.050      166.383      294.447      226.506        0.051        0.034       16.832        8.921        0.281      343.450       19.570      862.750
07/09/2014  06:22:00       30.243        7.267       -2.235       22.142        9.427       11.132      490.259       88.867      123.929        0.084        0.035       31.104        6.588        0.045      343.560       19.758      862.763
07/09/2014  06:23:00        5.806       13.039       15.792       20.717       16.999       13.989      429.187      288.968      195.701        0.068        0.046       14.273       10.523        0.544      343.734       20.054      862.774
07/09/2014  06:24:00       22.159       15.786       12.052       14.066       13.791       20.238      197.839      190.193      409.578        0.084        0.040       27.207        9.397        0.119      343.786       20.145      862.798
07/09/2014  06:25:00        0.154      -18.570        5.005        7.728       15.145       13.806       59.727      229.377      190.613        0.042        0.024       18.571        8.977        0.234      343.826       20.212      862.813
07/09/2014  06:26:00       -5.019        1.804       11.450        7.097        7.365        5.674       50.368       54.237       32.193        0.015        0.007        5.334        4.051        0.577      343.925       20.379      862.828
07/09/2014  06:27:00      -18.699       -5.437       -3.264        9.980        5.118        3.610       99.597       26.197       13.035        0.026        0.007       19.474        3.021        0.024      343.773       20.122      862.835
07/09/2014  06:28:00      -12.995       -2.761        4.021       11.840        5.141        7.598      140.185       26.433       57.731        0.021        0.011       13.285        8.619        0.421      343.830       20.220      862.834
07/09/2014  06:29:00      -18.656       -5.182       -3.569       10.266        4.719        4.246      105.381       22.268       18.032        0.027        0.007       19.362        4.042        0.044      343.778       20.130      862.840
07/09/2014  06:30:00        0.393       -2.209        2.098        7.770       11.426        7.596       60.372      130.542       57.695        0.013        0.012        2.243        5.518        6.052      343.969       20.456      862.860
07/09/2014  06:31:00       34.447       29.209       11.855       13.311       11.253        8.500      177.186      126.630       72.246        0.128        0.019       45.164        3.327        0.005      343.969       20.454      862.876
07/09/2014  06:32:00       34.583       27.246        4.631       10.602       10.181        6.890      112.394      103.662       47.468        0.111        0.013       44.027        3.402        0.006      343.926       20.382      862.879
07/09/2014  06:33:00       39.102       22.651        1.756        6.211        7.098        6.111       38.579       50.388       37.342        0.109        0.006       45.189        4.306        0.009      343.978       20.472      862.884
07/09/2014  06:34:00       52.576       18.363        7.727       10.179        8.326       10.518      103.604       69.317      110.626        0.172        0.014       55.690        5.992        0.012      343.993       20.497      862.893
07/09/2014  06:35:00       41.783       17.236       10.834       19.408       16.433       16.926      376.666      270.041      286.479        0.155        0.047       45.198       11.141        0.061      343.982       20.478      862.891
07/09/2014  06:36:00       13.942        8.862       18.635       23.259       40.115       15.001      540.965     1609.182      225.021        0.150        0.119       16.520        9.199        0.310      344.114       20.703      862.894
07/09/2014  06:37:00       34.786      -52.734        0.058       33.623       30.131       25.476     1130.510      907.878      649.026        0.334        0.134       63.174       23.823        0.142      344.174       20.806      862.901
07/09/2014  06:38:00        0.053       -3.848       29.190       13.189       22.847       18.895      173.953      521.994      357.003        0.096        0.053        3.848       13.741       12.752      344.385       21.166      862.895
07/09/2014  06:39:00        9.040       26.843       20.192       17.064       18.173       12.388      291.181      330.245      153.471        0.099        0.039       28.325       11.471        0.164      344.247       20.931      862.893
07/09/2014  06:40:00       20.701       32.325       21.543       14.500       15.330       13.647      210.240      235.010      186.230        0.128        0.032       38.385        7.508        0.038      344.179       20.815      862.884
07/09/2014  06:41:00        9.412       27.825       16.385       10.368        9.714       10.571      107.486       94.371      111.749        0.072        0.016       29.373        6.156        0.044      344.164       20.788      862.876
07/09/2014  06:42:00      -31.597        5.041        2.894       11.097       10.704       12.926      123.154      114.567      167.075        0.072        0.020       31.997       10.774        0.113      343.977       20.468      862.862
07/09/2014  06:43:00      -34.780       -9.910       -0.224        7.918        7.831        5.552       62.694       61.326       30.825        0.073        0.008       36.164        3.685        0.010      344.028       20.558      862.859
07/09/2014  06:44:00      -45.133      -16.713       -2.270        8.813        9.909        6.859       77.676       98.193       47.042        0.127        0.011       48.128        5.370        0.012      344.075       20.639      862.844
07/09/2014  06:45:00      -35.023       10.254        1.522       10.099        8.902        6.601      101.993       79.250       43.572        0.078        0.011       36.493        5.001        0.019      344.053       20.599      862.847
07/09/2014  06:46:00      -38.105        7.676        2.473        8.320        6.814        4.707       69.220       46.428       22.154        0.083        0.007       38.871        3.791        0.010      344.010       20.524      862.850
07/09/2014  06:47:00      -51.039       -3.061       -2.671        8.338       10.963        7.800       69.530      120.193       60.846        0.144        0.013       51.130        5.366        0.011      344.063       20.617      862.855
07/09/2014  06:48:00      -37.161       -8.900        0.961       15.760        9.604        7.864      248.365       92.238       61.838        0.093        0.020       38.212        8.740        0.052      344.117       20.710      862.857
07/09/2014  06:49:00      -28.211      -17.764       -1.378        7.618        7.948        5.052       58.034       63.163       25.522        0.063        0.007       33.337        2.589        0.006      344.163       20.788      862.854
07/09/2014  06:50:00      -19.651      -20.655        0.124        9.146        8.388        8.188       83.658       70.355       67.048        0.052        0.011       28.509        3.305        0.013      344.189       20.832      862.853
07/09/2014  06:51:00      -21.764      -14.644        5.456       10.097        7.612       10.475      101.951       57.945      109.723        0.049        0.013       26.232        7.502        0.082      344.353       21.111      862.847
07/09/2014  06:52:00      -21.898       -2.143        0.263        6.736        6.860        6.908       45.376       47.065       47.727        0.031        0.007       22.002        3.829        0.030      344.213       20.872      862.851
07/09/2014  06:53:00      -24.491       -7.307       -3.418        7.179        6.049        5.679       51.540       36.593       32.253        0.039        0.006       25.557        3.268        0.016      344.223       20.889      862.843
07/09/2014  06:54:00      -13.224       -2.827       -2.521        9.017       11.669        7.272       81.312      136.164       52.888        0.023        0.014       13.522        9.294        0.472      344.351       21.108      862.845
07/09/2014  06:55:00       -9.823       -7.887       -3.630        4.907        3.782        3.203       24.080       14.301       10.259        0.011        0.002       12.597        1.927        0.023      344.285       20.994      862.835
07/09/2014  06:56:00      -14.085      -11.007       -1.868        8.482       11.515        4.378       71.952      132.588       19.163        0.027        0.011       17.876        3.547        0.039      344.387       21.169      862.833
07/09/2014  06:57:00      -21.507      -38.597        3.146       15.046       13.818       11.025      226.381      190.937      121.554        0.125        0.027       44.184        8.189        0.034      344.321       21.059      862.846
07/09/2014  06:58:00      -22.340       -3.362        5.968       21.966       14.569       14.226      482.518      212.261      202.387        0.072        0.045       22.592       12.562        0.309      344.569       21.482      862.855
07/09/2014  06:59:00      -40.557      -23.032       11.470       25.280       41.993       22.336      639.079     1763.413      498.881        0.260        0.145       46.641       18.895        0.164      344.345       21.098      862.872
07/09/2014  07:00:00      -23.797      -48.832        7.269       18.034       27.721       18.016      325.208      768.475      324.561        0.221        0.071       54.322        9.521        0.031      344.464       21.302      862.897
07/09/2014  07:01:00      -20.478      -25.453       -0.911       26.389       30.213       16.175      696.395      912.833      261.622        0.147        0.094       32.668       17.993        0.303      344.506       21.374      862.923
07/09/2014  07:02:00      -32.278      -30.157        0.532       25.380       21.508       20.327      644.162      462.615      413.184        0.174        0.076       44.174       17.821        0.163      344.477       21.323      862.937
07/09/2014  07:03:00      -27.535      -25.747       -2.799       26.042       21.460       18.712      678.188      460.531      350.121        0.146        0.074       37.698       12.168        0.104      344.529       21.413      862.954
07/09/2014  07:04:00      -23.935      -14.930        5.360       20.470       18.818       18.232      419.012      354.101      332.400        0.096        0.055       28.210       17.432        0.382      344.689       21.686      862.953
07/09/2014  07:05:00      -17.001       -1.816       13.827       20.266       17.693       13.448      410.692      313.056      180.853        0.069        0.045       17.098        9.739        0.324      344.847       21.959      862.960
07/09/2014  07:06:00      -33.240      -26.855        7.546       38.079       21.032       13.656     1450.036      442.327      186.477        0.198        0.104       42.732       10.130        0.056      344.471       21.312      862.956
07/09/2014  07:07:00      -45.039      -30.950        1.305       37.903       19.731       17.184     1436.610      389.315      295.300        0.255        0.106       54.648       21.144        0.150      344.466       21.304      862.964
07/09/2014  07:08:00      -18.544      -28.436        6.392       18.299       21.984       18.857      334.843      483.290      355.576        0.118        0.059       33.948       13.368        0.155      344.698       21.702      862.970
07/09/2014  07:09:00      -24.204      -26.450       -1.604       22.318       42.542       33.502      498.110     1809.802     1122.369        0.236        0.172       35.852       34.147        0.907      344.637       21.597      862.984
07/09/2014  07:10:00      -13.157      -20.528        3.708       31.001       19.965       13.548      961.092      398.582      183.547        0.108        0.077       24.383        9.998        0.168      344.570       21.484      863.001
07/09/2014  07:11:00      -23.574      -17.214       12.100       19.608       20.375       15.914      384.474      415.136      253.248        0.103        0.053       29.190       15.528        0.283      344.564       21.472      863.009
07/09/2014  07:12:00      -34.724        9.349       13.468       17.411       33.890       23.634      303.154     1148.512      558.589        0.174        0.101       35.961       16.097        0.200      344.520       21.398      863.015
07/09/2014  07:13:00       23.478      -56.732       -1.083       35.710       39.909       35.037     1275.238     1592.729     1227.572        0.393        0.205       61.398       23.664        0.149      344.709       21.721      863.014
07/09/2014  07:14:00      -33.908      -12.169        6.178       32.148       36.425       23.300     1033.495     1326.768      542.912        0.212        0.145       36.026       23.030        0.409      344.660       21.636      863.009
07/09/2014  07:15:00      -18.566       15.470        2.430       12.208       12.500       12.947      149.024      156.240      167.630        0.053        0.024       24.166        6.021        0.062      344.734       21.763      863.020
07/09/2014  07:16:00      -14.975       -9.729       13.375       28.406       33.683       18.456      806.924     1134.550      340.610        0.139        0.114       17.858       12.944        0.525      344.884       22.020      863.024
07/09/2014  07:17:00        3.730      -78.526       10.410       25.301       31.409       35.911      640.126      986.502     1289.610        0.460        0.146       78.614       21.778        0.077      344.852       21.964      863.025
07/09/2014  07:18:00        1.031      -53.903       17.734       26.713       38.231       28.934      713.603     1461.640      837.205        0.312        0.151       53.913       19.246        0.127      344.994       22.208      863.024
07/09/2014  07:19:00      -10.178      -32.030       10.272       22.634       33.293       28.003      512.320     1108.405      784.151        0.182        0.120       33.608       17.494        0.271      344.924       22.087      863.020
07/09/2014  07:20:00        4.279        1.871       16.094       19.246       17.597       21.315      370.415      309.665      454.347        0.071        0.057        4.670       12.981        7.727      345.274       22.687      863.017
07/09/2014  07:21:00       -2.754        7.436       13.479       12.689       17.019       15.506      161.016      289.651      240.422        0.047        0.035        7.930        9.984        1.585      345.202       22.564      863.016
07/09/2014  07:22:00      -12.951        5.313        7.986        7.953        6.596        9.722       63.245       43.504       94.512        0.023        0.010       13.999        5.885        0.177      345.042       22.291      863.028
07/09/2014  07:23:00      -17.642       -5.593        3.910       16.373       15.489       14.461      268.085      239.924      209.117        0.054        0.036       18.508        7.053        0.145      345.117       22.421      863.032
07/09/2014  07:24:00      -31.270      -28.937        1.135       27.043       19.366       18.148      731.305      375.041      329.348        0.163        0.072       42.605       14.799        0.121      344.885       22.021      863.030
07/09/2014  07:25:00      -24.620      -22.556        6.845       26.204       21.744       20.002      686.628      472.787      400.082        0.136        0.078       33.390       18.976        0.323      344.952       22.136      863.028
07/09/2014  07:26:00      -34.523      -42.455        4.098       17.230       15.542       13.824      296.885      241.551      191.099        0.187        0.036       54.720       13.426        0.060      344.703       21.711      863.018
07/09/2014  07:27:00      -23.854      -41.817       -1.281       15.316       13.197       11.120      234.575      174.168      123.653        0.143        0.027       48.142        9.437        0.038      344.635       21.594      863.007
07/09/2014  07:28:00       -5.803      -28.091        1.074       10.298       19.512       11.278      106.048      380.725      127.201        0.072        0.031       28.684        6.995        0.059      344.836       21.937      863.001
07/09/2014  07:29:00        8.817      -12.319       16.089       14.063       11.134        9.491      197.761      123.957       90.087        0.045        0.021       15.149        4.684        0.096      345.189       22.541      863.001
07/09/2014  07:30:00        5.700       -9.509        8.712       10.683       11.301       11.634      114.134      127.722      135.356        0.029        0.019       11.087        9.694        0.765      345.276       22.690      863.002
07/09/2014  07:31:00      -23.168      -22.518        4.087       10.874       14.247       10.110      118.250      202.963      102.211        0.074        0.021       32.308        6.526        0.041      344.886       22.023      863.006
07/09/2014  07:32:00      -23.884       -7.865       -2.203        5.584        6.616        5.626       31.185       43.766       31.647        0.037        0.005       25.146        2.928        0.014      344.819       21.906      863.014
07/09/2014  07:33:00      -22.362       21.099        4.410       13.254       14.532       19.432      175.662      211.193      377.611        0.086        0.038       30.744        9.681        0.099      345.198       22.557      863.026
07/09/2014  07:34:00      -23.349       19.248        7.350       24.008       14.124       17.087      576.402      199.477      291.965        0.102        0.053       30.260       15.213        0.253      345.058       22.317      863.044
07/09/2014  07:35:00       58.572       47.694       33.441       37.022       25.925       26.874     1370.600      672.093      722.204        0.479        0.138       75.534        6.289        0.007      345.123       22.430      863.056
07/09/2014  07:36:00       74.288       42.227        9.375       44.941       29.703       29.685     2019.735      882.249      881.222        0.559        0.189       85.451       24.354        0.081      345.054       22.311      863.077
07/09/2014  07:37:00       85.076       50.562        1.378       38.319       34.686       27.477     1468.332     1203.100      755.004        0.661        0.171       98.967       22.692        0.053      344.986       22.193      863.081
07/09/2014  07:38:00       89.851       62.460       17.111       42.229       34.912       32.085     1783.250     1218.876     1029.446        0.815        0.202      109.428       23.973        0.048      345.078       22.352      863.092
07/09/2014  07:39:00      127.944       81.631       13.581       30.584       28.344       28.549      935.360      803.402      815.040        1.289        0.128      151.767       21.146        0.019      344.811       21.896      863.091
07/09/2014  07:40:00      127.902       76.305        4.836       34.853       30.256       28.456     1214.717      915.429      809.757        1.257        0.147      148.934       13.333        0.008      344.829       21.925      863.087
07/09/2014  07:41:00      129.792       83.160       16.804       38.513       32.856       37.818     1483.231     1079.534     1430.215        1.402        0.200      154.148       19.014        0.015      344.859       21.977      863.079
07/09/2014  07:42:00       99.476       42.415        2.531       49.831       39.080       28.856     2483.115     1527.276      832.681        0.827        0.242      108.142       23.682        0.048      344.883       22.018      863.076
07/09/2014  07:43:00      122.166       87.156       10.162       39.773       45.021       39.298     1581.921     2026.856     1544.301        1.389        0.258      150.069       19.767        0.017      344.907       22.058      863.080
07/09/2014  07:44:00       96.634       67.974        8.384       38.760       37.388       30.460     1502.355     1397.856      927.788        0.893        0.191      118.146       24.396        0.043      345.027       22.264      863.079
07/09/2014  07:45:00      100.886       83.722        5.752       42.989       35.356       36.213     1848.035     1250.015     1311.412        1.081        0.220      131.101       22.899        0.031      344.923       22.088      863.084
07/09/2014  07:46:00       26.523       36.641        7.103       28.919       31.304       23.081      836.284      979.954      532.735        0.222        0.117       45.233       21.866        0.234      345.155       22.484      863.082
07/09/2014  07:47:00       57.589       34.872       17.353       45.493       29.528       27.941     2069.610      871.925      780.714        0.428        0.186       67.324       29.810        0.196      345.104       22.397      863.085
07/09/2014  07:48:00       24.252       66.721       18.081       45.624       45.606       37.204     2081.519     2079.945     1384.147        0.546        0.277       70.992       32.832        0.214      345.144       22.465      863.085
07/09/2014  07:49:00       92.506       71.646        9.640       41.535       39.311       28.880     1725.178     1545.369      834.043        0.894        0.205      117.006       16.742        0.020      344.937       22.110      863.081
07/09/2014  07:50:00      113.514       63.365       15.922       49.861       37.706       36.692     2486.091     1421.714     1346.308        1.120        0.263      130.002       23.329        0.032      344.938       22.113      863.083
07/09/2014  07:51:00       95.279       43.892       19.813       31.908       41.037       35.600     1018.135     1684.014     1267.329        0.768        0.198      104.902       25.831        0.061      344.927       22.092      863.080
07/09/2014  07:52:00       39.128       57.918       32.466       37.367       31.218       32.269     1396.258      974.552     1041.279        0.468        0.171       69.896       26.664        0.146      345.251       22.649      863.080
07/09/2014  07:53:00       33.706       64.999       56.724       39.713       38.061       34.160     1577.159     1448.663     1166.887        0.638        0.210       73.219       20.268        0.077      345.249       22.646      863.090
07/09/2014  07:54:00       14.274       35.886       60.320       34.597       25.787       15.826     1196.982      664.973      250.477        0.362        0.106       38.621       17.276        0.200      345.508       23.089      863.095
07/09/2014  07:55:00        4.923        7.359       34.487       25.458       35.727       23.815      648.111     1276.395      567.131        0.188        0.125        8.854       17.169        3.760      345.538       23.141      863.104
07/09/2014  07:56:00       39.120       40.871       35.492       38.808       31.272       19.435     1506.056      977.938      377.702        0.366        0.143       56.576       11.838        0.044      345.544       23.152      863.107
07/09/2014  07:57:00       18.826       27.580       37.103       25.007       27.837       16.177      625.354      774.890      261.682        0.208        0.083       33.392       11.955        0.128      345.821       23.625      863.115
07/09/2014  07:58:00       34.517       56.622       10.559       46.828       31.559       27.797     2192.869      995.989      772.646        0.423        0.198       66.313       21.898        0.109      345.385       22.878      863.111
07/09/2014  07:59:00       31.319       41.588        7.613       47.236       29.811       25.120     2231.255      888.689      631.023        0.326        0.188       52.062       15.518        0.089      345.604       23.254      863.115
07/09/2014  08:00:00       29.541       52.334       -0.342       33.250       25.275       20.289     1105.534      638.828      411.653        0.288        0.108       60.095       10.946        0.033      345.513       23.098      863.120
07/09/2014  08:01:00      -15.547       26.987      -13.915       31.239       29.277       19.806      975.868      857.161      392.289        0.169        0.111       31.145        5.093        0.027      345.326       22.776      863.119
07/09/2014  08:02:00      -28.719       23.001       18.043       20.665       20.994       23.780      427.060      440.746      565.480        0.156        0.072       36.794       17.613        0.229      345.638       23.312      863.120
07/09/2014  08:03:00      -40.303       40.514       -4.717       13.535       19.102       17.435      183.208      364.874      303.985        0.207        0.043       57.146       12.030        0.044      345.200       22.561      863.119
07/09/2014  08:04:00      -31.334       19.884       -9.292       15.658       15.752       12.601      245.188      248.117      158.791        0.106        0.033       37.111        4.002        0.012      345.241       22.632      863.117
07/09/2014  08:05:00      -30.614        1.418       10.758       23.284       10.280       14.497      542.141      105.675      210.162        0.096        0.043       30.647       14.134        0.213      345.474       23.030      863.110
07/09/2014  08:06:00       13.233      -28.794       12.949       24.860       36.267       17.916      618.009     1315.300      320.975        0.171        0.113       31.689       17.426        0.302      345.530       23.127      863.108
07/09/2014  08:07:00        5.420       42.391        7.883       21.631       37.160       26.488      467.893     1380.832      701.636        0.222        0.128       42.736       14.752        0.119      345.649       23.331      863.101
07/09/2014  08:08:00       21.086       39.345        4.853       27.033       25.416       22.960      730.807      645.973      527.169        0.196        0.095       44.639       12.782        0.082      345.546       23.155      863.105
07/09/2014  08:09:00        2.264       36.482       13.078       15.945       25.926       22.640      254.233      672.176      512.561        0.147        0.072       36.552       18.225        0.249      346.007       23.947      863.101
07/09/2014  08:10:00      -27.243        7.167       13.672       17.331       16.240       18.413      300.377      263.726      339.052        0.094        0.045       28.170       13.883        0.243      345.790       23.574      863.114
07/09/2014  08:11:00      -30.063      -15.219       -7.768       15.907        8.535       11.295      253.045       72.846      127.586        0.082        0.023       33.695       11.640        0.119      345.359       22.833      863.119
07/09/2014  08:12:00      -25.484      -29.454        0.844       14.591       11.490        9.523      212.907      132.027       90.681        0.098        0.022       38.949        4.378        0.013      345.397       22.897      863.120
07/09/2014  08:13:00        4.233      -39.561       13.156       23.050       18.897       15.470      531.315      357.104      239.324        0.144        0.056       39.787       11.820        0.088      345.536       23.137      863.119
07/09/2014  08:14:00       16.630      -23.856        2.093       16.364       18.938       18.033      267.765      358.641      325.201        0.090        0.048       29.080       10.032        0.119      345.555       23.170      863.110
07/09/2014  08:15:00      -15.123       19.654       23.369       17.766       19.864       18.125      315.618      394.583      328.533        0.110        0.052       24.799       11.592        0.219      346.491       24.779      863.108
07/09/2014  08:16:00      -46.367       54.402       -1.790       23.977       29.880       23.664      574.879      892.804      559.961        0.357        0.101       71.480       17.792        0.062      345.853       23.682      863.107
07/09/2014  08:17:00      -29.469       50.632        6.413       30.186       27.624       28.075      911.210      763.063      788.182        0.297        0.123       58.584       22.131        0.143      346.117       24.135      863.104
07/09/2014  08:18:00        2.394       10.090        6.401       14.564       29.125       19.474      212.098      848.253      379.228        0.079        0.072       10.370        8.234        0.630      346.241       24.348      863.109
07/09/2014  08:19:00       11.029        3.434       31.384       18.669       11.759       14.396      348.518      138.264      207.236        0.091        0.035       11.552        7.951        0.474      346.712       25.159      863.107
07/09/2014  08:20:00      -29.850       12.394       -9.811       15.279       12.954       14.117      233.442      167.813      199.301        0.087        0.030       32.321        4.877        0.023      345.698       23.415      863.112
07/09/2014  08:21:00      -29.643        3.043       -2.947        8.976       11.670        7.423       80.577      136.179       55.102        0.058        0.014       29.798        5.541        0.035      345.632       23.301      863.112
07/09/2014  08:22:00      -31.199       -5.729       -4.986       20.592       23.581       14.843      424.022      556.078      220.315        0.112        0.060       31.720       12.178        0.147      345.616       23.274      863.108
07/09/2014  08:23:00      -44.857      -27.381       -5.833       18.335        8.427        7.326      336.185       71.006       53.669        0.163        0.023       52.554        3.121        0.004      345.628       23.294      863.111
07/09/2014  08:24:00      -25.229      -27.509       -6.120       10.157       10.746        9.170      103.173      115.484       84.086        0.087        0.015       37.326        4.726        0.016      345.647       23.326      863.112
07/09/2014  08:25:00      -26.634      -24.954       -5.123        8.547       17.573        6.007       73.056      308.806       36.080        0.089        0.021       36.498        3.547        0.009      345.690       23.401      863.117
07/09/2014  08:26:00      -38.966      -60.318       -4.629       19.028        9.826        9.354      362.049       96.549       87.495        0.286        0.027       71.809        9.362        0.017      345.571       23.194      863.124
07/09/2014  08:27:00      -46.602      -40.108      -12.514       10.983       15.518        8.698      120.617      240.824       75.653        0.219        0.022       61.485        4.623        0.006      345.616       23.276      863.122
07/09/2014  08:28:00      -23.071      -17.977       -4.356        9.574       15.060        7.410       91.665      226.800       54.905        0.062        0.019       29.248        3.852        0.017      345.747       23.499      863.118
07/09/2014  08:29:00      -22.042      -34.724        2.336       10.401        8.534        5.788      108.178       72.824       33.498        0.096        0.011       41.130        4.487        0.012      345.711       23.438      863.114
07/09/2014  08:30:00      -15.500       -6.598       15.736       12.339       25.290       21.248      152.259      639.603      451.462        0.089        0.062       16.846       18.442        1.198      346.664       25.075      863.099
07/09/2014  08:31:00      -38.508       29.341      -16.350       26.307       16.711       11.784      692.038      279.274      138.865        0.186        0.056       48.413       10.682        0.049      345.814       23.611      863.107
07/09/2014  08:32:00      -36.907       26.965      -16.905       15.499       12.195       15.768      240.229      148.724      248.615        0.151        0.032       45.708        8.352        0.033      345.859       23.692      863.112
07/09/2014  08:33:00      -23.566       -0.119      -10.930        8.300       10.022        7.907       68.883      100.444       62.518        0.045        0.012       23.567        3.268        0.019      345.909       23.777      863.119
07/09/2014  08:34:00      -14.679        7.934       -9.790        9.814        8.514        5.774       96.315       72.496       33.343        0.029        0.010       16.686        2.602        0.024      346.071       24.055      863.132
07/09/2014  08:35:00      -37.418       14.999       -1.286       12.407       11.799        8.745      153.943      139.221       76.472        0.100        0.018       40.313        8.145        0.041      346.005       23.943      863.150
07/09/2014  08:36:00      -33.028      -13.396       -3.906       10.317       10.961        5.689      106.444      120.142       32.366        0.077        0.013       35.641        2.141        0.004      345.843       23.665      863.156
07/09/2014  08:37:00      -29.946      -25.461       -6.000       13.265        7.256        7.366      175.966       52.648       54.256        0.093        0.014       39.306        4.279        0.012      345.903       23.768      863.165
07/09/2014  08:38:00      -36.413      -29.097        0.595        9.786       11.552       10.877       95.766      133.454      118.309        0.126        0.017       46.611        5.685        0.015      345.923       23.801      863.170
07/09/2014  08:39:00      -26.539      -18.127       -4.574       16.405       12.413        6.447      269.140      154.094       41.567        0.076        0.023       32.139        4.777        0.022      345.975       23.889      863.182
07/09/2014  08:40:00      -56.441      -24.692        0.190       12.856       12.741       11.992      165.274      162.325      143.801        0.213        0.024       61.606        7.399        0.014      345.971       23.882      863.186
07/09/2014  08:41:00      -15.430      -19.037       16.748       22.331       20.388       21.175      498.689      415.660      448.378        0.112        0.068       24.505       20.018        0.667      346.875       25.440      863.174
07/09/2014  08:42:00       -9.873       -0.708       20.683       19.171       13.089       12.134      367.520      171.323      147.244        0.061        0.034        9.899       12.554        1.608      346.702       25.141      863.179
07/09/2014  08:43:00      -16.515        0.336       25.086       26.484       28.075       25.867      701.411      788.212      669.090        0.153        0.108       16.518       22.926        1.926      346.907       25.494      863.164
07/09/2014  08:44:00      -34.854      -39.160       26.225       28.176       39.904       29.225      793.896     1592.298      854.111        0.334        0.162       52.424       22.152        0.179      346.352       24.537      863.159
07/09/2014  08:45:00       -1.456      -33.365       25.140       20.105       33.283       27.357      404.218     1107.772      748.379        0.200        0.113       33.397       18.187        0.297      346.786       25.284      863.159
07/09/2014  08:46:00        2.433       -7.189       21.621       13.824       39.266       27.900      191.107     1541.845      778.385        0.152        0.126        7.590       25.493       11.283      346.840       25.378      863.157
07/09/2014  08:47:00        3.303       -6.218       26.987       14.506       27.106       15.944      210.435      734.728      254.225        0.099        0.060        7.040       14.295        4.123      347.120       25.860      863.159
07/09/2014  08:48:00      -24.451        9.956       11.269       21.551       12.387       21.452      464.454      153.443      460.197        0.095        0.054       26.401       18.493        0.491      346.897       25.475      863.158
07/09/2014  08:49:00       -9.625       -5.109       16.937       10.074       14.077       16.331      101.489      198.157      266.698        0.049        0.028       10.897        8.726        0.641      347.271       26.121      863.164
07/09/2014  08:50:00       28.997       35.909       12.359       26.113       28.120       17.515      681.883      790.736      306.761        0.203        0.089       46.155       18.019        0.152      347.115       25.850      863.165
07/09/2014  08:51:00        8.461       55.331       10.990       34.671       39.938       26.645     1202.110     1595.045      709.954        0.338        0.175       55.974       24.423        0.190      347.001       25.654      863.171
07/09/2014  08:52:00       -8.371       48.005       11.326       22.665       37.789       29.373      513.710     1428.028      862.750        0.265        0.140       48.729       19.768        0.165      347.006       25.664      863.165
07/09/2014  08:53:00       -0.937       43.913       22.585       27.923       39.997       25.813      779.679     1599.743      666.318        0.274        0.152       43.923       24.398        0.309      347.314       26.195      863.156
07/09/2014  08:54:00       11.652       44.250       15.035       33.570       36.562       28.238     1126.978     1336.785      797.372        0.279        0.163       45.758       24.272        0.281      347.015       25.678      863.151
07/09/2014  08:55:00       -2.771       58.171       15.460       24.161       32.329       28.927      583.769     1045.144      836.783        0.305        0.123       58.237       22.706        0.152      347.239       26.066      863.128
07/09/2014  08:56:00        7.003       41.850       20.697       26.259       30.133       27.657      689.537      908.009      764.906        0.230        0.118       42.432       16.658        0.154      347.293       26.157      863.124
07/09/2014  08:57:00      -47.527       29.848       -4.422       40.310       30.944       26.150     1624.907      957.514      683.845        0.322        0.163       56.123       24.363        0.188      346.891       25.466      863.110
07/09/2014  08:58:00      -44.179       14.705        1.491       34.705       27.166       17.165     1204.440      737.969      294.652        0.220        0.112       46.562       20.402        0.192      346.820       25.343      863.100
07/09/2014  08:59:00      -56.176       -6.778       -1.342       24.592       29.730       16.054      604.751      883.898      257.717        0.247        0.087       56.583       11.005        0.038      346.423       24.660      863.104
07/09/2014  09:00:00      -62.296      -19.482       -8.104       16.771       19.852       10.026      281.270      394.095      100.521        0.255        0.039       65.272        7.154        0.012      346.295       24.439      863.100
07/09/2014  09:01:00      -11.052      -17.308       16.783       13.916       26.822       15.373      193.642      719.396      236.326        0.093        0.057       20.535       18.396        0.803      347.058       25.753      863.092
07/09/2014  09:02:00       -1.799        1.981       30.978       27.514       18.270       18.492      757.006      333.794      341.972        0.120        0.072        2.676        9.891       13.663      347.819       27.067      863.098
07/09/2014  09:03:00      -12.305       83.384        5.498       28.102       49.343       28.291      789.734     2434.707      800.372        0.558        0.201       84.287       28.473        0.114      347.130       25.878      863.101
07/09/2014  09:04:00       59.352       88.478       -2.253       44.616       49.243       34.363     1990.618     2424.825     1180.785        0.848        0.280      106.541       25.182        0.056      346.969       25.601      863.107
07/09/2014  09:05:00       56.078       45.588       11.981       53.657       33.011       28.055     2879.071     1089.712      787.059        0.506        0.238       72.270       21.842        0.091      346.961       25.585      863.101
07/09/2014  09:06:00      111.769       55.150       20.815       59.503       42.944       32.844     3540.657     1844.161     1078.710        1.121        0.323      124.635       32.087        0.066      346.803       25.312      863.095
07/09/2014  09:07:00       87.840       95.100       -8.815       33.399       24.460       24.998     1115.461      598.281      624.894        0.959        0.117      129.460       12.702        0.010      346.601       24.967      863.092
07/09/2014  09:08:00       98.374       94.392        9.217       39.496       28.652       35.014     1559.972      820.927     1225.999        1.114        0.180      136.335       21.005        0.024      346.657       25.064      863.079
07/09/2014  09:09:00       72.376       35.603       11.490       35.782       40.113       24.624     1280.354     1609.054      606.359        0.507        0.175       80.659       19.732        0.060      346.696       25.130      863.078
07/09/2014  09:10:00       16.666       91.602        3.770       28.438       53.029       29.547      808.728     2812.085      873.015        0.659        0.225       93.106       35.889        0.149      346.964       25.591      863.071
07/09/2014  09:11:00       21.361       87.559       -1.625       21.254       33.751       25.837      451.747     1139.138      667.569        0.519        0.113       90.127       22.554        0.063      346.863       25.417      863.066
07/09/2014  09:12:00       11.927       15.424       -1.059       18.736       34.853       22.216      351.039     1214.753      493.563        0.122        0.103       19.497       14.662        0.566      346.942       25.553      863.065
07/09/2014  09:13:00        0.344       22.960       10.682       18.641       27.460       21.326      347.495      754.038      454.816        0.110        0.078       22.963        9.906        0.186      347.151       25.914      863.060
07/09/2014  09:14:00       19.672       65.264        6.401       45.903       47.289       35.670     2107.114     2236.234     1272.323        0.515        0.281       68.164       23.576        0.120      347.432       26.397      863.063
07/09/2014  09:15:00       78.037       49.508       14.453       36.724       26.767       25.990     1348.653      716.470      675.475        0.574        0.137       92.417       13.924        0.023      346.937       25.545      863.059
07/09/2014  09:16:00       33.908       39.483        5.125       41.809       21.072       27.143     1748.001      444.049      736.769        0.283        0.146       52.045       14.102        0.073      346.971       25.603      863.068
07/09/2014  09:17:00      -73.232       28.614        4.288       23.595       21.206       18.923      556.739      449.713      358.088        0.378        0.068       78.624        8.468        0.012      346.645       25.039      863.066
07/09/2014  09:18:00      -40.445       30.317      -11.550       28.517       26.639       27.853      813.226      709.644      775.774        0.249        0.115       50.546       19.925        0.155      346.748       25.217      863.072
07/09/2014  09:19:00       -2.271       -2.230        7.662       19.166       11.404       14.756      367.347      130.055      217.729        0.039        0.036        3.183        4.807        2.281      347.388       26.322      863.060
07/09/2014  09:20:00        2.971        8.952       24.527       22.913       13.952       13.604      524.984      194.651      185.062        0.080        0.045        9.432       12.586        1.781      347.840       27.103      863.055
07/09/2014  09:21:00       -6.641       32.065       12.603       28.793       27.771       16.141      829.041      771.244      260.527        0.155        0.093       32.745       11.153        0.116      347.328       26.218      863.047
07/09/2014  09:22:00      110.672       70.273        7.463       39.863       30.637       34.151     1589.087      938.604     1166.290        1.047        0.185      131.098       23.594        0.032      347.110       25.843      863.025
07/09/2014  09:23:00       97.695       75.036        5.471       47.724       40.567       27.840     2277.559     1645.658      775.077        0.995        0.235      123.186       17.688        0.021      347.063       25.761      863.013
07/09/2014  09:24:00      102.335       78.080       13.516       41.359       29.482       26.468     1710.543      869.170      700.530        1.002        0.164      128.720       19.921        0.024      347.377       26.303      862.999
07/09/2014  09:25:00       99.216       82.551       33.114       38.956       29.482       32.185     1517.598      869.208     1035.857        1.059        0.171      129.068       26.180        0.041      347.239       26.065      863.002
07/09/2014  09:26:00       57.427       64.269       71.501       30.790       28.554       28.132      948.025      815.328      791.410        0.755        0.128       86.188        9.082        0.011      347.131       25.878      863.002
07/09/2014  09:27:00       15.271      -15.525       33.661       37.303       63.801       29.666     1391.487     4070.538      880.073        0.397        0.317       21.776       27.301        1.572      347.305       26.178      863.013
07/09/2014  09:28:00       37.530      -37.772        6.366       40.393       33.230       26.058     1631.602     1104.218      679.008        0.314        0.171       53.247       27.289        0.263      347.479       26.480      863.015
07/09/2014  09:29:00       19.191      -51.407       14.379       36.559       44.218       34.960     1336.555     1955.221     1222.203        0.387        0.226       54.872       26.832        0.239      347.478       26.476      863.016
07/09/2014  09:30:00       24.284      -20.241       43.406       37.385       43.502       29.498     1397.613     1892.421      870.161        0.352        0.208       31.613       20.430        0.418      347.627       26.734      863.013
07/09/2014  09:31:00      110.222       56.331       10.229       49.883       34.506       36.610     2488.333     1190.636     1340.297        1.022        0.251      123.782       24.513        0.039      346.904       25.486      863.009
07/09/2014  09:32:00       62.974       41.822        9.061       31.644       23.986       23.736     1001.337      575.322      563.421        0.397        0.107       75.596        9.232        0.015      347.117       25.854      863.004
07/09/2014  09:33:00        5.924       19.878       21.226       19.450       20.340       20.119      378.294      413.713      404.794        0.104        0.060       20.742       13.991        0.455      348.011       27.397      862.992
07/09/2014  09:34:00       -3.580       -7.307       32.409       13.930       17.778       13.611      194.037      316.061      185.267        0.091        0.035        8.137        6.743        0.687      348.431       28.123      862.989
07/09/2014  09:35:00      -47.588       16.114       16.868       19.982       17.781       19.817      399.277      316.167      392.732        0.196        0.055       50.242       18.388        0.134      347.330       26.222      862.980
07/09/2014  09:36:00       59.800       42.056       27.036       88.880       37.161       36.162     7899.743     1380.957     1307.692        0.833        0.529       73.107       15.588        0.045      347.503       26.521      862.985
07/09/2014  09:37:00       98.447       83.000       57.042       55.848       39.700       47.021     3118.970     1576.103     2210.990        1.337        0.345      128.767       26.763        0.043      347.627       26.734      862.971
07/09/2014  09:38:00       63.085       70.356       58.139       46.669       32.114       21.251     2177.959     1031.316      451.604        0.798        0.183       94.497       23.476        0.062      347.195       25.988      862.977
07/09/2014  09:39:00       30.820       38.723       50.276       27.536       42.375       36.871      758.216     1795.645     1359.490        0.444        0.196       49.491       27.047        0.299      347.627       26.734      862.959
07/09/2014  09:40:00       28.003       59.639       71.879       33.035       34.971       27.718     1091.305     1222.994      768.277        0.629        0.154       65.886       13.685        0.043      347.564       26.626      862.952
07/09/2014  09:41:00       33.406      -16.691       27.299       28.236       48.534       21.325      797.255     2355.560      454.761        0.287        0.180       37.344       18.342        0.241      347.495       26.506      862.939
07/09/2014  09:42:00       27.643        5.682       15.795       53.903       32.029       25.157     2905.493     1025.854      632.887        0.280        0.228       28.221       23.208        0.676      347.685       26.835      862.939
07/09/2014  09:43:00       54.448      -27.891       20.553       59.503       58.870       27.862     3540.557     3465.683      776.278        0.597        0.389       61.176       17.331        0.080      347.450       26.429      862.946
07/09/2014  09:44:00       12.924        1.490       33.169       49.758       50.370       33.406     2475.883     2537.148     1115.955        0.370        0.306       13.010       23.594        3.289      347.863       27.142      862.953
07/09/2014  09:45:00      100.950       64.294       66.372       73.722       48.502       42.207     5434.869     2352.467     1781.390        1.415        0.478      119.686       33.918        0.080      347.633       26.744      862.951
07/09/2014  09:46:00       55.222       46.297       29.078       48.749       42.196       38.050     2376.505     1780.533     1447.785        0.582        0.280       72.062       31.371        0.190      347.934       27.265      862.946
07/09/2014  09:47:00       55.156       60.415       41.102       35.733       37.388       35.658     1276.818     1397.839     1271.519        0.616        0.197       81.806       19.048        0.054      347.942       27.276      862.939
07/09/2014  09:48:00       63.533       47.302       30.671       43.079       35.178       32.104     1855.823     1237.516     1030.685        0.567        0.206       79.208       20.795        0.069      347.657       26.787      862.937
07/09/2014  09:49:00       11.344      -79.212       23.662       37.860       56.044       29.824     1433.411     3140.976      889.464        0.621        0.273       80.020       21.106        0.070      347.785       27.006      862.928
07/09/2014  09:50:00      -23.498       -0.676        9.528       34.306       44.465       29.495     1176.905     1977.170      869.945        0.233        0.201       23.508        9.623        0.168      348.211       27.741      862.909
07/09/2014  09:51:00      -16.603      -25.573       17.642       41.644       37.498       37.467     1734.239     1406.124     1403.759        0.289        0.227       30.490       20.197        0.439      348.189       27.704      862.918
07/09/2014  09:52:00       20.525      -52.473       33.748       41.242       57.524       48.083     1700.881     3309.001     2311.944        0.582        0.366       56.345       35.680        0.401      348.204       27.732      862.908
07/09/2014  09:53:00       -2.000       23.629       51.459       25.305       28.999       24.556      640.337      840.920      602.976        0.265        0.104       23.713       21.544        0.825      348.742       28.661      862.915
07/09/2014  09:54:00        6.019      -12.283       -0.422       14.269       28.758       24.933      203.598      827.029      621.663        0.092        0.083       13.678        8.244        0.363      347.887       27.182      862.895
07/09/2014  09:55:00      -54.164       26.214       -2.552       25.904       18.899       18.286      671.026      357.191      334.389        0.249        0.068       60.175       17.010        0.080      347.583       26.657      862.887
07/09/2014  09:56:00      -31.480      -18.351        5.709       29.849       23.124       16.911      890.977      534.741      285.981        0.154        0.086       36.439       14.539        0.159      348.010       27.394      862.865
07/09/2014  09:57:00      -76.088      -23.852        5.703       24.423       19.443       12.971      596.478      378.016      168.235        0.377        0.057       79.738       12.090        0.023      347.567       26.630      862.861
07/09/2014  09:58:00      -67.265      -22.976        2.401       30.227       28.397       19.892      913.680      806.413      395.673        0.359        0.106       71.080       20.288        0.081      347.875       27.161      862.850
07/09/2014  09:59:00      -79.688      -10.187       -3.501       26.311       26.488       24.621      692.257      701.610      606.215        0.423        0.100       80.337       19.851        0.061      347.783       27.004      862.840
07/09/2014  10:00:00      -43.862      -16.764       -8.212       23.987        9.558        8.939      575.386       91.351       79.913        0.151        0.037       46.957        8.946        0.036      347.468       26.459      862.842
07/09/2014  10:01:00      -30.336       10.825       14.749       37.311       30.661       24.780     1392.135      940.118      614.064        0.210        0.147       32.209       19.334        0.360      348.782       28.732      862.831
07/09/2014  10:02:00      -10.978      -28.231       22.537       34.452       21.806       24.976     1186.945      475.520      623.799        0.186        0.114       30.290       19.764        0.426      348.311       27.916      862.822
07/09/2014  10:03:00        8.273        5.195       40.460       36.330       36.092       29.193     1319.849     1302.649      852.203        0.260        0.174        9.769       20.773        4.522      348.636       28.477      862.800
07/09/2014  10:04:00       37.730       46.065       52.328       54.119       49.731       41.593     2928.842     2473.213     1729.956        0.671        0.357       59.544       28.122        0.223      348.598       28.412      862.794
07/09/2014  10:05:00       35.678      -17.065       31.560       57.695       95.485       44.104     3328.655     9117.321     1945.168        0.847        0.720       39.550       34.271        0.751      348.177       27.682      862.770
07/09/2014  10:06:00       19.541      -16.699       14.171       33.798       55.137       35.811     1142.305     3040.040     1282.443        0.316        0.273       25.704       28.395        1.220      348.596       28.408      862.771
07/09/2014  10:07:00       20.172      -17.019       23.339       47.215       71.352       42.953     2229.288     5091.145     1844.950        0.520        0.458       26.393       31.286        1.405      348.791       28.746      862.760
07/09/2014  10:08:00       34.698      -48.809       34.667       48.004       75.368       47.363     2304.353     5680.329     2243.282        0.751        0.511       59.885       41.458        0.479      348.544       28.319      862.755
07/09/2014  10:09:00        5.269      -65.176       -7.620       25.510       49.004       29.349      650.771     2401.402      861.353        0.412        0.196       65.389       28.538        0.190      348.194       27.714      862.756
07/09/2014  10:10:00       30.768        3.183       27.800       47.761       33.661       33.625     2281.141     1133.068     1130.657        0.314        0.227       30.932       25.855        0.699      348.850       28.849      862.748
07/09/2014  10:11:00      -18.242      -48.277       12.090       27.584       37.089       24.347      760.888     1375.624      592.762        0.277        0.136       51.608       22.047        0.182      348.470       28.192      862.733
07/09/2014  10:12:00       -9.728      -49.315       28.717       26.381       49.883       36.515      695.974     2488.309     1333.382        0.393        0.226       50.265       27.160        0.292      348.628       28.463      862.725
07/09/2014  10:13:00       42.037       31.922       50.504       60.059       41.853       46.713     3607.031     1751.706     2182.103        0.644        0.377       52.784       38.368        0.528      348.241       27.794      862.719
07/09/2014  10:14:00       14.199       41.967       30.261       29.122       26.538       32.783      848.094      704.256     1074.720        0.275        0.131       44.303       12.367        0.078      348.354       27.989      862.716
07/09/2014  10:15:00       42.372      -25.967       17.837       42.289       36.055       39.246     1788.351     1299.937     1540.218        0.371        0.231       49.696       33.208        0.447      348.327       27.941      862.701
07/09/2014  10:16:00       29.140      -33.867       18.874       41.320       45.708       36.497     1707.378     2089.200     1332.039        0.374        0.256       44.677       33.493        0.562      348.465       28.183      862.693
07/09/2014  10:17:00        1.283      -33.879       33.218       31.899       79.861       46.856     1017.521     6377.725     2195.454        0.592        0.480       33.904       55.337        2.664      348.304       27.904      862.688
07/09/2014  10:18:00        5.364       11.266       52.515       43.861       33.208       28.885     1923.781     1102.751      834.346        0.339        0.193       12.478       23.927        3.677      348.782       28.730      862.676
07/09/2014  10:19:00       17.027      -30.875        5.800       30.595       33.978       28.464      936.042     1154.503      810.216        0.209        0.145       35.259       25.254        0.513      348.275       27.852      862.681
07/09/2014  10:20:00      -34.790      -49.959       -0.957       27.713       39.420       27.308      767.991     1553.897      745.712        0.339        0.153       60.879       15.330        0.063      348.143       27.624      862.671
07/09/2014  10:21:00      -21.443      -37.090       36.427       25.770       42.929       31.699      664.104     1842.927     1004.824        0.334        0.176       42.842       21.539        0.253      348.740       28.656      862.664
07/09/2014  10:22:00       -3.710      -53.061        3.627       36.412       48.665       33.815     1325.837     2368.260     1143.468        0.384        0.242       53.191       30.997        0.340      348.479       28.205      862.658
07/09/2014  10:23:00       33.504      -99.469      -12.208       55.017       28.764       31.948     3026.835      827.388     1020.706        0.802        0.244      104.960       20.317        0.037      348.374       28.025      862.659
07/09/2014  10:24:00      -61.984     -103.702       -0.512       33.176       32.422       22.654     1100.631     1051.218      513.219        0.863        0.133      120.814       17.910        0.022      348.143       27.624      862.648
07/09/2014  10:25:00        2.008      -26.647       22.150       19.869       51.619       33.516      394.769     2664.530     1123.323        0.269        0.209       26.722       35.720        1.787      349.040       29.179      862.636
07/09/2014  10:26:00       -9.834        4.536       15.686       43.747       24.003       23.989     1913.807      576.130      575.464        0.171        0.153       10.830       14.265        1.735      348.748       28.671      862.621
07/09/2014  10:27:00       21.113       75.777       11.182       41.475       56.428       41.853     1720.171     3184.147     1751.704        0.648        0.333       78.664       34.319        0.190      348.939       29.002      862.610
07/09/2014  10:28:00       53.008       74.717       -2.778       38.267       43.880       35.365     1464.358     1925.456     1250.665        0.652        0.232       91.610       31.424        0.118      348.763       28.698      862.589
07/09/2014  10:29:00       71.807       59.462        7.423       28.748       50.349       34.236      826.452     2535.035     1172.084        0.664        0.227       93.231       18.278        0.038      348.112       27.572      862.588
07/09/2014  10:30:00      -15.089       59.855        4.040       25.110       45.430       28.251      630.508     2063.910      798.107        0.366        0.175       61.728       20.181        0.107      348.756       28.685      862.562
07/09/2014  10:31:00        4.192       49.742       20.623       25.040       74.131       28.744      626.986     5495.420      826.241        0.493        0.347       49.918       29.597        0.352      349.226       29.500      862.557
07/09/2014  10:32:00       -1.160       23.382       22.071       18.118       38.466       22.869      328.244     1479.625      523.009        0.168        0.117       23.411       22.692        0.940      349.529       30.025      862.548
07/09/2014  10:33:00        1.730       20.457       16.549       33.854       18.292       21.077     1146.067      334.605      444.248        0.131        0.096       20.530       15.797        0.592      349.252       29.544      862.542
07/09/2014  10:34:00        1.174       58.066       24.632       22.368       56.871       31.138      500.317     3234.357      969.550        0.434        0.235       58.078       35.067        0.365      349.473       29.927      862.534
07/09/2014  10:35:00      -14.465      100.140        4.277       32.973       57.844       42.250     1087.196     3345.951     1785.027        0.824        0.311      101.179       33.269        0.108      348.914       28.959      862.528
07/09/2014  10:36:00        9.727       58.071       24.358       33.257       46.339       41.022     1106.031     2147.303     1682.797        0.450        0.247       58.880       35.783        0.369      349.118       29.313      862.514
07/09/2014  10:37:00       -9.988       58.152        2.630       21.383       35.128       28.282      457.217     1233.968      799.846        0.299        0.125       59.004       22.262        0.142      348.829       28.812      862.511
07/09/2014  10:38:00      -12.324       19.236       -7.308       27.875       48.691       17.737      777.031     2370.823      314.613        0.202        0.173       22.846       15.623        0.468      348.614       28.440      862.498
07/09/2014  10:39:00      -19.446       53.947       -5.096       22.482       31.632       26.933      505.433     1000.609      725.368        0.277        0.112       57.344       16.957        0.087      348.755       28.683      862.494
07/09/2014  10:40:00      -51.709       71.226       -9.823       21.422       41.790       21.776      458.890     1746.375      474.191        0.526        0.134       88.017        8.033        0.008      348.544       28.318      862.478
07/09/2014  10:41:00      -55.399       -1.501       -5.999       16.130       18.659       13.176      260.180      348.176      173.609        0.194        0.039       55.419        5.452        0.010      348.317       27.926      862.471
07/09/2014  10:42:00      -38.441      -39.066       -1.464       39.071       48.871       24.904     1526.579     2388.377      620.227        0.377        0.227       54.808       24.575        0.201      348.376       28.025      862.456
07/09/2014  10:43:00       19.170      -25.557       22.331       19.790       35.419       21.378      391.644     1254.488      457.022        0.181        0.105       31.948       12.006        0.141      348.826       28.806      862.446
07/09/2014  10:44:00       30.156       53.009       26.213       46.278       40.639       31.802     2141.640     1651.523     1011.348        0.460        0.240       60.987       16.349        0.072      349.209       29.469      862.422
07/09/2014  10:45:00      129.583       70.191       23.615       61.656       44.511       38.918     3801.489     1981.270     1514.596        1.479        0.365      147.372       26.556        0.032      348.867       28.876      862.428
07/09/2014  10:46:00       72.058       44.339       23.033       56.099       31.444       32.418     3147.053      988.756     1050.944        0.644        0.259       84.607       22.923        0.073      349.366       29.743      862.421
07/09/2014  10:47:00       23.403       52.018       14.547       38.276       44.188       31.501     1465.056     1952.591      992.310        0.394        0.220       57.040       29.671        0.271      349.525       30.017      862.423
07/09/2014  10:48:00       48.311       45.645       14.415       63.051       52.788       31.563     3975.383     2786.595      996.249        0.619        0.388       66.463       20.847        0.098      349.386       29.775      862.420
07/09/2014  10:49:00        7.771        1.807       25.846       29.996       39.580       25.912      899.783     1566.562      671.407        0.193        0.157        7.978       17.309        4.707      349.941       30.740      862.424
07/09/2014  10:50:00       35.441       35.492       40.267       51.487       38.698       33.725     2650.869     1497.539     1137.345        0.471        0.264       50.157       29.185        0.339      349.936       30.730      862.414
07/09/2014  10:51:00       23.582       19.907       30.043       38.394       42.887       39.282     1474.077     1839.287     1543.041        0.335        0.243       30.861       26.550        0.740      349.837       30.558      862.414
07/09/2014  10:52:00       51.734       45.920       89.439       75.789      105.777       59.560     5743.925    11188.789     3547.363        1.663        1.024       69.174       58.811        0.723      349.010       29.124      862.397
07/09/2014  10:53:00       42.895      -21.484       29.417       51.862       91.434       54.225     2689.686     8360.137     2940.400        0.858        0.700       47.974       53.946        1.264      349.081       29.246      862.396
07/09/2014  10:54:00       77.950       58.501       42.989       41.417       30.910       41.359     1715.348      955.414     1710.558        0.786        0.219       97.461       21.747        0.050      348.946       29.015      862.398
07/09/2014  10:55:00       43.163       46.902       19.580       32.027       46.808       53.236     1025.754     2190.961     2834.107        0.525        0.303       63.741       41.274        0.419      348.940       29.003      862.395
07/09/2014  10:56:00      116.675       71.709       42.032       83.292       42.539       48.596     6937.597     1809.546     2361.559        1.581        0.555      136.950       54.199        0.157      349.068       29.224      862.386
07/09/2014  10:57:00      167.497      102.293       42.317       91.922       66.840       59.259     8449.652     4467.550     3511.588        2.837        0.821      196.263       53.792        0.075      349.130       29.329      862.367
07/09/2014  10:58:00       33.822        7.446       54.522       57.093       56.795       31.130     3259.623     3225.702      969.103        0.581        0.373       34.631       19.795        0.327      349.528       30.024      862.378
07/09/2014  10:59:00      124.377       96.623       46.872       46.599       43.386       42.585     2171.488     1882.376     1813.480        1.643        0.293      157.498       26.959        0.029      348.783       28.731      862.371
07/09/2014  11:00:00       19.405       -7.184       44.123       37.506       72.710       44.649     1406.673     5286.799     1993.557        0.553        0.434       20.692       42.125        4.145      349.510       29.992      862.370
07/09/2014  11:01:00       17.313      -33.002       42.896       38.701       65.797       37.914     1497.772     4329.304     1437.505        0.525        0.363       37.267       29.562        0.629      349.643       30.222      862.351
07/09/2014  11:02:00      150.824      -52.451       39.052       85.723       94.156       58.698     7348.452     8865.301     3445.453        2.334        0.983      159.684       53.705        0.113      349.053       29.198      862.342
07/09/2014  11:03:00      107.238      -54.207       22.981       80.174       83.270       60.527     6427.842     6933.964     3663.483        1.599        0.851      120.160       59.279        0.243      349.248       29.537      862.336
07/09/2014  11:04:00       61.673       59.770       92.790       64.139       83.667       67.106     4113.815     7000.102     4503.235        1.580        0.781       85.884       59.740        0.484      349.152       29.370      862.332
07/09/2014  11:05:00      140.143     -135.206       13.657       67.209       78.977       54.710     4517.103     6237.373     2993.187        2.593        0.687      194.733       39.623        0.041      349.078       29.240      862.332
07/09/2014  11:06:00       59.855       34.611       49.055       66.876       55.086       47.575     4472.431     3034.485     2263.378        0.848        0.489       69.141       34.832        0.254      349.426       29.846      862.329
07/09/2014  11:07:00       70.257       28.140       22.658       35.231       36.758       40.223     1241.209     1351.158     1617.882        0.523        0.211       75.683       13.722        0.033      349.299       29.625      862.327
07/09/2014  11:08:00       43.045       19.942       21.300       47.516       53.854       34.215     2257.759     2900.262     1170.642        0.452        0.316       47.440       26.455        0.311      349.374       29.755      862.303
07/09/2014  11:09:00       73.996       59.572       25.924       66.487       53.876       41.359     4420.539     2902.596     1710.584        0.936        0.452       94.996       30.456        0.103      349.535       30.034      862.289
07/09/2014  11:10:00      105.396       54.524       55.026       77.617       58.742       44.455     6024.470     3450.630     1976.216        1.428        0.573      118.665       35.096        0.087      349.614       30.169      862.287
07/09/2014  11:11:00      -17.197       13.780       56.999       27.856       38.243       38.732      775.975     1462.564     1500.133        0.374        0.187       22.037       33.071        2.252      350.218       31.220      862.280
07/09/2014  11:12:00        6.735       -1.768       45.628       44.137       69.511       39.364     1948.102     4831.844     1549.507        0.523        0.416        6.963       31.846       20.918      349.922       30.706      862.279
07/09/2014  11:13:00       14.525      -43.913       25.474       50.591       89.073       50.377     2559.499     7934.026     2537.799        0.791        0.652       46.253       58.380        1.593      349.564       30.085      862.269
07/09/2014  11:14:00       40.634      -82.646       17.406       60.187      119.002       63.716     3622.473    14161.445     4059.784        1.531        1.092       92.095       71.257        0.599      349.843       30.568      862.250
07/09/2014  11:15:00       72.487       34.976       89.768       68.332      101.444       54.277     4669.266    10290.983     2946.025        1.622        0.895       80.484       58.176        0.522      349.431       29.853      862.244
07/09/2014  11:16:00       79.128     -129.150       -0.335       73.151       89.005       57.731     5351.076     7921.826     3332.831        1.977        0.830      151.463       49.929        0.109      349.565       30.085      862.253
07/09/2014  11:17:00       45.377      -37.548       54.741       61.286      119.168       58.620     3755.979    14201.055     3436.324        1.393        1.070       58.898       69.701        1.400      349.714       30.344      862.255
07/09/2014  11:18:00       41.300       14.248       51.372       42.976       70.496       54.316     1846.896     4969.623     2950.252        0.716        0.488       43.689       55.781        1.630      349.424       29.841      862.254
07/09/2014  11:19:00       17.846      -21.577       23.645       34.482       37.184       31.966     1188.988     1382.630     1021.811        0.247        0.180       28.001       17.872        0.407      349.992       30.828      862.242
07/09/2014  11:20:00       73.382     -121.345       -4.558       65.493       88.878       52.054     4289.376     7899.298     2709.609        1.751        0.745      141.808       54.734        0.149      349.511       29.992      862.245
07/09/2014  11:21:00      -10.340      -62.044       31.556       49.149       44.324       37.282     2415.628     1964.597     1389.923        0.536        0.289       62.900       12.503        0.040      349.685       30.294      862.241
07/09/2014  11:22:00       23.134      -64.844       13.010       40.190       39.648       37.052     1615.258     1571.981     1372.885        0.473        0.228       68.847       21.889        0.101      349.875       30.625      862.235
07/09/2014  11:23:00       19.026        7.325       45.781       24.198       27.074       22.058      585.553      732.981      486.552        0.216        0.090       20.387       19.866        0.949      349.964       30.778      862.230
07/09/2014  11:24:00       12.798       27.651       38.188       28.285       30.521       17.974      800.051      931.549      323.082        0.222        0.103       30.470       16.481        0.293      350.007       30.855      862.243
07/09/2014  11:25:00      130.483       86.298       72.506       90.962       58.908       56.071     8274.152     3470.095     3143.906        2.231        0.744      156.439       47.849        0.094      349.435       29.858      862.213
07/09/2014  11:26:00      153.032      103.796       18.149       92.788       81.551       57.570     8609.611     6650.643     3314.282        2.655        0.929      184.912       50.621        0.075      349.469       29.918      862.177
07/09/2014  11:27:00       96.830       90.398       57.862       71.849       52.435       40.624     5162.310     2749.423     1650.299        1.523        0.478      132.468       23.959        0.033      349.677       30.281      862.175
07/09/2014  11:28:00       38.249       47.043       56.356       50.162       46.993       39.141     2516.223     2208.354     1531.994        0.655        0.313       60.630       34.092        0.316      349.980       30.807      862.177
07/09/2014  11:29:00       76.135       33.600       56.988       55.905       36.278       41.107     3125.384     1316.108     1689.750        0.815        0.307       83.220       27.009        0.105      349.628       30.196      862.167
07/09/2014  11:30:00        8.201      -13.382       60.181       43.859       53.437       36.460     1923.620     2855.460     1329.300        0.499        0.305       15.696       33.859        4.654      350.069       30.963      862.161
07/09/2014  11:31:00       46.303       18.263       66.475       62.639       66.874       49.377     3923.619     4472.099     2438.119        0.886        0.542       49.775       42.819        0.740      350.115       31.041      862.156
07/09/2014  11:32:00       48.672       -3.377       83.575       73.565       80.862       54.668     5411.785     6538.665     2988.633        1.215        0.747       48.789       62.369        1.634      350.335       31.425      862.129
07/09/2014  11:33:00        6.695      -82.305       18.527       37.249       60.946       39.528     1387.460     3714.439     1562.479        0.691        0.333       82.577       30.707        0.138      349.728       30.369      862.121
07/09/2014  11:34:00      -13.285       -4.903       31.094       26.380       27.200       23.398      695.897      739.866      547.463        0.157        0.099       14.161       21.186        2.238      350.190       31.172      862.127
07/09/2014  11:35:00       46.594      -90.061       13.559       45.630       77.557       38.421     2082.058     6015.147     1476.136        1.002        0.479      101.400       33.544        0.109      349.927       30.714      862.121
07/09/2014  11:36:00        9.359      -65.046       10.460       63.049       72.996       57.292     3975.201     5328.420     3282.369        0.850        0.629       65.716       52.018        0.627      349.879       30.633      862.105
07/09/2014  11:37:00       14.887     -148.461        3.715       82.304       77.424       47.123     6773.903     5994.488     2220.546        1.863        0.749      149.205       31.532        0.045      349.688       30.297      862.111
07/09/2014  11:38:00       -9.282      -92.636       19.260      119.721       95.768       59.058    14333.236     9171.589     3487.898        1.801        1.350       93.100       60.727        0.425      349.718       30.353      862.114
07/09/2014  11:39:00     -109.328      -92.003        9.903       79.039       48.252       31.315     6247.180     2328.280      980.634        1.503        0.478      142.888       37.830        0.070      349.478       29.934      862.094
07/09/2014  11:40:00      -69.817      -99.013       12.852       71.695       55.939       35.664     5140.102     3129.134     1271.903        1.219        0.477      121.153       34.159        0.079      349.568       30.092      862.101
07/09/2014  11:41:00      -45.848      -58.655       15.871       63.844       56.663       31.928     4076.045     3210.720     1019.414        0.705        0.415       74.447       35.053        0.222      349.877       30.629      862.099
07/09/2014  11:42:00      -39.929     -114.408       -8.665       60.928       71.046       43.996     3712.260     5047.534     1935.638        1.273        0.535      121.176       42.783        0.125      349.757       30.419      862.081
07/09/2014  11:43:00      -78.502      -84.899       -3.921       38.441       45.798       25.826     1477.718     2097.470      666.989        0.881        0.212      115.630       23.054        0.040      349.453       29.891      862.072
07/09/2014  11:44:00      -16.395       -9.376       16.551       44.413       60.093       38.964     1972.494     3611.135     1518.165        0.387        0.355       18.887       20.405        1.167      350.063       30.950      862.065
07/09/2014  11:45:00       99.625      -91.885        7.928       99.623      120.642       74.121     9924.818    14554.446     5493.864        2.420        1.499      135.529       85.995        0.403      349.974       30.796      862.038
07/09/2014  11:46:00       23.953       -5.340       53.826       62.133       65.730       66.409     3860.478     4320.469     4410.167        0.804        0.630       24.541       50.476        4.230      350.149       31.100      862.047
07/09/2014  11:47:00       55.072     -131.171        0.293       58.649      105.091       53.438     3439.712    11044.145     2855.661        1.879        0.867      142.263       56.941        0.160      349.751       30.407      862.045
07/09/2014  11:48:00       -6.607      -22.322       25.658       32.707       55.860       34.776     1069.717     3120.346     1209.354        0.330        0.270       23.279       39.494        2.878      349.977       30.803      862.032
07/09/2014  11:49:00        2.603      -67.590       17.081       48.797       38.186       26.446     2381.180     1458.178      699.398        0.470        0.227       67.640       25.523        0.142      349.917       30.698      862.027
07/09/2014  11:50:00       57.783      -73.495       17.283       82.445       96.817       72.672     6797.229     9373.581     5281.191        1.524        1.073       93.490       69.402        0.551      350.005       30.850      862.014
07/09/2014  11:51:00      -75.142     -118.854        2.475       87.716       86.196       43.431     7694.028     7429.786     1886.238        1.839        0.851      140.615       37.473        0.071      349.731       30.373      862.003
07/09/2014  11:52:00      -44.034     -127.756       -8.023       62.627       50.221       36.090     3922.123     2522.171     1302.474        1.303        0.387      135.132       19.911        0.022      349.656       30.243      862.000
07/09/2014  11:53:00     -130.404      -14.910       11.410       54.846       52.025       33.703     3008.086     2706.619     1135.902        1.210        0.343      131.254       22.733        0.030      349.549       30.060      861.968
07/09/2014  11:54:00      -36.109      -30.972       12.070       37.754       34.040       29.017     1425.399     1158.727      841.968        0.292        0.171       47.573       26.139        0.302      350.004       30.848      861.933
07/09/2014  11:55:00      -27.523       -4.679        2.239       59.096       36.059       26.344     3492.381     1300.284      694.020        0.313        0.274       27.917       19.135        0.470      350.361       31.470      861.910
07/09/2014  11:56:00       -8.440      -67.777       12.644       60.448       35.491       34.366     3653.979     1259.576     1180.996        0.546        0.305       68.301       21.938        0.103      350.087       30.992      861.882
07/09/2014  11:57:00        0.922      -23.509       48.134       71.375       73.909       54.847     5094.354     5462.494     3008.178        0.822        0.678       23.527       49.998        4.516      350.727       32.107      861.878
07/09/2014  11:58:00      136.315     -108.407       -3.522       79.202      102.937       78.896     6272.967    10595.964     6224.562        2.672        1.155      174.166       75.544        0.188      350.080       30.979      861.870
07/09/2014  11:59:00       96.342     -168.798       -4.010      112.367      121.175       74.012    12626.369    14683.430     5477.709        3.528        1.639      194.356       70.367        0.131      349.936       30.728      861.870
07/09/2014  12:00:00       44.799      -90.702       13.956       77.426      106.208       61.739     5994.728    11280.117     3811.713        1.575        1.054      101.162       62.792        0.385      350.089       30.994      861.859
07/09/2014  12:01:00       48.463       99.760      149.466       92.812      141.350       83.957     8614.103    19979.715     7048.745        3.514        1.782      110.909       98.142        0.783      350.049       30.925      861.839
07/09/2014  12:02:00       47.830     -135.019       -0.828       63.786       67.908       51.426     4068.629     4611.500     2644.645        1.592        0.566      143.240       38.859        0.074      350.094       31.003      861.837
07/09/2014  12:03:00      -19.253     -106.688      -15.717       83.031       63.543       39.411     6894.170     4037.716     1553.266        1.224        0.624      108.411       12.588        0.013      350.290       31.345      861.830
07/09/2014  12:04:00     -102.230      -78.089       18.475      100.060       69.985       45.914    10011.913     4897.921     2108.117        1.695        0.851      128.643       41.142        0.102      350.361       31.469      861.835
07/09/2014  12:05:00     -118.145     -100.947        8.174       81.492       59.893       44.108     6640.977     3587.140     1945.532        1.819        0.609      155.398       39.918        0.066      349.914       30.690      861.847
07/09/2014  12:06:00      -88.653     -108.224       -4.120       67.359       46.127       33.434     4537.180     2127.682     1117.849        1.368        0.389      139.900       31.792        0.052      349.725       30.363      861.843
07/09/2014  12:07:00      -68.945      -45.128      -17.962       39.598       35.913       36.678     1567.998     1289.744     1345.258        0.566        0.210       82.401       32.608        0.157      349.540       30.043      861.842
07/09/2014  12:08:00      -10.076      -20.089       11.788       59.210       52.334       30.798     3505.766     2738.891      948.511        0.392        0.360       22.474       39.870        3.147      350.010       30.859      861.829
07/09/2014  12:09:00       63.251       48.528       29.309       43.861       45.340       30.833     1923.816     2055.743      950.667        0.607        0.247       79.722       18.024        0.051      350.477       31.671      861.805
07/09/2014  12:10:00      101.326       68.085       38.022       60.152       51.466       47.941     3618.240     2648.720     2298.295        1.246        0.428      122.076       37.091        0.092      350.366       31.477      861.786
07/09/2014  12:11:00       61.605       48.537       60.275       72.577       58.352       55.563     5267.426     3404.942     3087.214        1.077        0.588       78.428       46.822        0.356      350.124       31.056      861.783
07/09/2014  12:12:00       53.616       63.140       68.548       59.299       73.364       34.909     3516.388     5382.296     1218.631        1.084        0.506       82.833       28.568        0.119      350.213       31.210      861.766
07/09/2014  12:13:00       -5.255      -41.212       12.629       29.746       39.976       29.358      884.805     1598.055      861.864        0.261        0.167       41.545       24.189        0.339      350.065       30.953      861.767
07/09/2014  12:14:00       17.974       21.806       33.559       27.526       32.401       23.855      757.657     1049.843      569.052        0.215        0.119       28.259       21.802        0.595      350.528       31.760      861.748
07/09/2014  12:15:00       42.458       10.259       42.915       39.962       32.258       29.430     1596.930     1040.565      866.129        0.363        0.175       43.680       24.013        0.302      350.546       31.791      861.721
07/09/2014  12:16:00       17.372       26.182       45.298       28.772       35.460       33.621      827.803     1257.383     1130.340        0.313        0.161       31.421       30.280        0.929      350.425       31.582      861.701
07/09/2014  12:17:00       40.365       40.495       39.037       41.492       49.191       34.453     1721.578     2419.712     1186.989        0.506        0.266       57.177       32.728        0.328      350.283       31.333      861.672
07/09/2014  12:18:00       68.870      -70.788       14.119       81.910      112.755       53.723     6709.203    12713.780     2886.200        1.613        1.115       98.762       76.558        0.601      350.200       31.188      861.648
07/09/2014  12:19:00       28.716       33.512       81.933       66.932       92.389       63.141     4479.861     8535.667     3986.731        1.283        0.850       44.132       71.561        2.629      350.853       32.324      861.628
07/09/2014  12:20:00      161.963     -152.407       -0.129      131.653      142.079       90.220    17332.468    20186.416     8139.595        4.755        2.283      222.395      108.085        0.236      350.339       31.430      861.609
07/09/2014  12:21:00       58.339       47.670       82.001       73.593       81.725       59.177     5415.920     6678.974     3501.943        1.400        0.780       75.339       66.075        0.769      350.294       31.354      861.616
07/09/2014  12:22:00       59.068       13.734       85.571      102.261       98.376       66.755    10457.221     9677.798     4456.265        1.779        1.230       60.644       79.022        1.698      350.356       31.459      861.607
07/09/2014  12:23:00       59.562     -122.914      -14.675       66.413       82.039       54.624     4410.658     6730.352     2983.763        1.650        0.706      136.585       41.294        0.091      350.262       31.296      861.620
07/09/2014  12:24:00       50.606       88.426       92.124       47.993       69.218       45.492     2303.324     4791.131     2069.483        1.401        0.458      101.883       39.981        0.154      350.060       30.945      861.608
07/09/2014  12:25:00       39.004       -7.815       50.323       52.790       70.306       53.643     2786.779     4942.940     2877.569        0.736        0.530       39.779       50.305        1.599      350.663       31.993      861.585
07/09/2014  12:26:00        2.090      -19.778       29.223       50.885       77.683       56.449     2589.259     6034.592     3186.453        0.653        0.591       19.888       44.880        5.092      350.265       31.303      861.555
07/09/2014  12:27:00       25.180      -69.212       16.170       39.079       78.601       44.341     1527.139     6178.127     1966.107        0.768        0.484       73.650       49.018        0.443      350.175       31.146      861.561
07/09/2014  12:28:00       10.540       18.342       67.461       48.322       88.185       48.654     2334.974     7776.567     2367.224        0.874        0.624       21.155       54.520        6.642      350.563       31.820      861.558
07/09/2014  12:29:00       27.311      -94.082      -25.231       99.741       92.966       44.565     9948.318     8642.652     1986.001        1.540        1.029       97.966       53.126        0.294      350.739       32.125      861.538
07/09/2014  12:30:00      -63.140      -45.852        9.387       88.342       61.313       45.415     7804.324     3759.235     2062.520        0.990        0.681       78.032       32.450        0.173      350.629       31.936      861.541
07/09/2014  12:31:00      -67.261     -112.877      -11.129       77.300       77.344       52.586     5975.229     5982.058     2765.322        1.605        0.736      131.397       35.971        0.075      350.509       31.725      861.532
07/09/2014  12:32:00      -80.435     -232.360       -5.215       73.810       87.161       40.970     5447.940     7596.985     1678.578        3.760        0.736      245.888       28.264        0.013      350.252       31.276      861.515
07/09/2014  12:33:00     -130.841     -116.827       -3.812       65.395       61.240       35.323     4276.479     3750.332     1247.736        2.003        0.464      175.408       23.416        0.018      350.487       31.686      861.508
07/09/2014  12:34:00     -125.519      -90.843       -4.092       69.341       62.520       39.527     4808.164     3908.696     1562.390        1.715        0.514      154.943       32.768        0.045      350.469       31.656      861.500
07/09/2014  12:35:00      -82.192      -90.944       -0.159       82.259       96.133       42.111     6766.571     9241.496     1773.358        1.640        0.889      122.582       31.225        0.065      350.237       31.251      861.489
07/09/2014  12:36:00        4.380      -87.861        3.556       57.590       62.449       47.780     3316.576     3899.860     2282.938        0.862        0.475       87.970       39.405        0.201      350.616       31.914      861.485
07/09/2014  12:37:00       -2.722      -76.000      -15.131       47.540       54.887       34.144     2260.069     3012.599     1165.824        0.622        0.322       76.049       18.171        0.057      350.544       31.787      861.477
07/09/2014  12:38:00       20.871      -71.742        9.625       54.903       81.910       46.567     3014.383     6709.304     2168.482        0.878        0.595       74.716       51.609        0.477      350.744       32.136      861.454
07/09/2014  12:39:00       20.821      -16.991       34.541       42.675       55.178       39.492     1821.138     3044.641     1559.598        0.417        0.321       26.874       37.583        1.956      350.793       32.222      861.432
07/09/2014  12:40:00        6.947      -91.411       26.098       61.052       99.926       49.963     3727.320     9985.208     2496.348        1.264        0.810       91.675       53.869        0.345      350.442       31.610      861.397
07/09/2014  12:41:00       62.040     -192.196        1.178      109.377       95.598       84.796    11963.313     9138.887     7190.410        3.454        1.415      201.962       70.309        0.121      350.360       31.464      861.374
07/09/2014  12:42:00        6.206      -51.887       45.396       58.889       85.166       63.792     3467.966     7253.176     4069.384        0.979        0.740       52.256       59.855        1.312      350.764       32.170      861.357
07/09/2014  12:43:00      -20.549     -136.537        5.157       93.288       73.999       54.372     8702.588     5475.897     2956.307        1.811        0.857      138.075       39.901        0.084      350.523       31.749      861.357
07/09/2014  12:44:00       89.840     -165.035        3.408       71.452       78.951       51.707     5105.446     6233.280     2673.574        2.466        0.701      187.904       43.511        0.054      350.370       31.483      861.357
07/09/2014  12:45:00       52.165     -147.078        0.927      148.616      126.805       81.102    22086.706    16079.587     6577.508        3.454        2.237      156.055       77.971        0.250      350.431       31.589      861.395
07/09/2014  12:46:00       -7.530     -147.953       -1.930       74.162       85.192       51.282     5499.949     7257.699     2629.894        1.867        0.769      148.145       27.605        0.035      350.154       31.107      861.403
07/09/2014  12:47:00      -27.121      -60.306       -6.405       36.484       73.988       26.405     1331.097     5474.168      697.240        0.596        0.375       66.124       21.661        0.107      350.396       31.530      861.384
07/09/2014  12:48:00      -50.881      -14.161        8.985       64.651       59.961       33.021     4179.707     3595.350     1090.406        0.587        0.443       52.815       31.704        0.360      350.732       32.115      861.378
07/09/2014  12:49:00       15.435      -81.257       -7.745       59.429       61.659       39.341     3531.838     3801.791     1547.689        0.789        0.444       82.710       26.791        0.105      350.381       31.503      861.375
07/09/2014  12:50:00      -24.957      -80.723      -13.331       44.684       51.357       25.143     1996.637     2637.577      632.179        0.629        0.263       84.493       27.629        0.107      350.253       31.282      861.379
07/09/2014  12:51:00       28.457      -68.983       -0.931       96.356       45.900       36.297     9284.501     2106.835     1317.500        0.914        0.635       74.622       35.457        0.226      350.148       31.100      861.373
07/09/2014  12:52:00       63.628       25.983       13.675       41.261       59.492       48.770     1702.469     3539.303     2378.465        0.626        0.381       68.729       12.049        0.031      350.164       31.126      861.320
07/09/2014  12:53:00       60.060     -192.576       15.330       60.557       60.319       36.853     3667.130     3638.432     1358.172        2.479        0.433      201.725       11.454        0.003      350.054       30.932      861.303
07/09/2014  12:54:00        4.508      -28.231       29.864       37.596       48.091       35.867     1413.470     2312.786     1286.414        0.336        0.251       28.589       28.208        0.974      350.628       31.934      861.310
07/09/2014  12:55:00      -55.156     -119.545       -5.537       59.985       66.586       39.223     3598.202     4433.711     1538.412        1.347        0.479      131.656       25.193        0.037      350.225       31.230      861.317
07/09/2014  12:56:00      -39.285     -102.449       11.153      105.406       55.301       35.702    11110.344     3058.204     1274.664        1.380        0.772      109.723       33.337        0.092      350.685       32.032      861.305
07/09/2014  12:57:00      -85.354     -142.829      -31.629       64.585       90.591       33.619     4171.228     8206.687     1130.240        2.109        0.675      166.390       26.120        0.025      350.470       31.657      861.330
07/09/2014  12:58:00      -19.255       -8.505       27.303       57.695       53.553       37.900     3328.728     2867.952     1436.424        0.441        0.382       21.050       47.454        5.082      351.018       32.612      861.308
07/09/2014  12:59:00       -8.315       -8.999       11.497       49.303       51.315       33.270     2430.770     2633.180     1106.925        0.323        0.309       12.253       38.254        9.748      350.492       31.697      861.298
07/09/2014  13:00:00       21.498      -38.578        9.384       36.681       62.434       28.288     1345.468     3898.007      800.191        0.404        0.302       44.164       21.462        0.236      350.512       31.733      861.269
07/09/2014  13:01:00     -228.536      -71.787      -19.829      120.206       80.896       50.165    14449.492     6544.243     2516.482        4.064        1.176      239.546       64.747        0.073      350.296       31.354      861.247
07/09/2014  13:02:00      -75.097      -17.983       14.195      108.453       48.515       33.382    11762.078     2353.710     1114.351        1.069        0.762       77.220       49.762        0.415      350.812       32.254      861.217
07/09/2014  13:03:00       12.823       79.819      112.540      114.883      104.045       97.342    13198.104    10825.380     9475.402        2.634        1.675       80.843       83.222        1.060      350.911       32.423      861.160
07/09/2014  13:04:00      120.737      107.851       89.107       91.586      106.902      104.257     8387.926    11427.983    10869.613        3.241        1.534      161.893       83.027        0.263      350.468       31.652      861.123
07/09/2014  13:05:00       97.204       24.289       49.855       74.504       91.793       43.499     5550.914     8425.968     1892.168        1.419        0.793      100.193       45.433        0.206      350.481       31.676      861.109
07/09/2014  13:06:00       -7.235      -70.571       -5.212       46.595       39.906       36.130     2171.061     1592.489     1305.350        0.506        0.253       70.941       24.531        0.120      350.535       31.771      861.122
07/09/2014  13:07:00       -7.609        1.581       32.915       33.137       42.155       37.342     1098.037     1777.054     1394.404        0.271        0.213        7.772       34.832       20.087      351.181       32.896      861.142
07/09/2014  13:08:00      -56.903     -145.109       30.294       71.723      193.757       65.840     5144.133    37541.932     4334.855        3.611        2.351      155.867       85.080        0.298      350.744       32.133      861.112
07/09/2014  13:09:00       52.167      -78.060       79.559      107.025      146.498       83.470    11454.424    21461.656     6967.319        2.751        1.994       93.887       81.994        0.763      350.822       32.268      861.051
07/09/2014  13:10:00       64.108     -195.038      -19.028      101.292      140.493       70.305    10260.026    19738.146     4942.843        3.872        1.747      205.304       61.985        0.091      350.701       32.059      861.060
07/09/2014  13:11:00       94.320     -220.018      -13.880      176.354      158.283       80.880    31100.588    25053.434     6541.531        6.009        3.135      239.383       67.062        0.078      350.596       31.874      861.026
07/09/2014  13:12:00        8.905     -207.210        7.348      129.623      125.415       78.051    16802.138    15729.010     6091.948        4.084        1.931      207.402       54.919        0.070      350.642       31.955      861.039
07/09/2014  13:13:00      -17.674     -243.651      -11.980      110.245      137.542       68.767    12153.933    18917.851     4728.897        4.781        1.790      244.291       56.024        0.053      350.581       31.848      861.045
07/09/2014  13:14:00       63.143     -173.333      -18.582      105.573       95.938       61.488    11145.621     9204.159     3780.817        2.925        1.207      184.476       60.698        0.108      350.558       31.809      861.036
07/09/2014  13:15:00      -38.435     -184.309       -8.627      103.960       82.139       47.554    10807.701     6746.863     2261.401        2.767        0.991      188.273       39.954        0.045      350.621       31.920      861.011
07/09/2014  13:16:00       57.050     -133.485       13.628       91.711      114.391       85.447     8410.986    13085.228     7301.119        2.502        1.440      145.165       65.244        0.202      350.883       32.375      860.983
07/09/2014  13:17:00       96.080      -83.712       15.807       85.021      105.832       59.426     7228.608    11200.420     3531.467        1.922        1.098      127.433       66.609        0.273      350.639       31.950      860.965
07/09/2014  13:18:00       62.284       20.714       82.373       60.595       79.687       68.733     3671.720     6350.026     4724.279        1.292        0.737       65.638       50.036        0.581      350.830       32.285      860.930
07/09/2014  13:19:00      136.221     -142.340      -12.774      106.327      123.537       78.164    11305.333    15261.466     6109.679        3.582        1.634      197.020       86.452        0.193      350.757       32.157      860.919
07/09/2014  13:20:00       51.360     -124.846        5.361      103.997      132.788       76.847    10815.343    17632.733     5905.462        2.630        1.718      134.998       73.224        0.294      350.819       32.263      860.911
07/09/2014  13:21:00       99.536     -236.464      -46.335      140.478       92.794       61.094    19734.019     8610.655     3732.461        5.002        1.604      256.559       59.232        0.053      350.690       32.038      860.897
07/09/2014  13:22:00       81.298     -156.046        8.541      100.332      136.144       95.180    10066.481    18535.138     9059.174        3.434        1.883      175.954       84.532        0.231      350.995       32.570      860.872
07/09/2014  13:23:00       94.892      -84.178       53.557      111.010      145.622      106.535    12323.186    21205.758    11349.799        3.191        2.244      126.848      105.346        0.690      350.881       32.372      860.850
07/09/2014  13:24:00      129.760     -112.696        1.497       97.975      125.062       69.512     9599.054    15640.427     4831.956        2.980        1.504      171.866       83.810        0.238      350.559       31.811      860.863
07/09/2014  13:25:00       51.245      -68.068       37.282       90.948      100.510       64.074     8271.515    10102.203     4105.465        1.556        1.124       85.201       71.232        0.699      350.987       32.557      860.847
07/09/2014  13:26:00      -63.611      -40.129       -2.854       56.198       52.207       41.491     3158.165     2725.610     1721.470        0.663        0.380       75.211       33.574        0.199      350.957       32.507      860.835
07/09/2014  13:27:00      -87.195      -55.613        4.775       71.437       81.214       42.857     5103.283     6595.788     1836.683        1.212        0.677      103.420       43.513        0.177      351.391       33.262      860.819
07/09/2014  13:28:00     -119.616     -157.190       -1.263      107.020      101.305       65.373    11453.257    10262.712     4273.684        3.250        1.299      197.527       50.241        0.065      350.853       32.322      860.820
07/09/2014  13:29:00      -50.898     -103.466       -7.380       74.866       73.230       48.814     5604.858     5362.642     2382.769        1.335        0.668      115.308       50.823        0.194      350.839       32.299      860.811
07/09/2014  13:30:00     -145.144      -25.088        1.582       98.606       70.080       41.247     9723.141     4911.182     1701.316        1.901        0.817      147.296       36.915        0.063      350.591       31.868      860.786
07/09/2014  13:31:00      -81.478      -81.471       -9.859       59.092      111.455       38.373     3491.832    12422.112     1472.493        1.538        0.869      115.222       39.513        0.118      350.646       31.964      860.785
07/09/2014  13:32:00     -101.746      -75.094        1.254       68.782       55.976       40.012     4730.916     3133.298     1600.931        1.273        0.473      126.457       30.207        0.057      350.922       32.445      860.787
07/09/2014  13:33:00      -34.488      -63.180        6.240       47.511       56.155       36.806     2257.335     3153.397     1354.712        0.599        0.338       71.980       33.209        0.213      351.004       32.588      860.774
07/09/2014  13:34:00     -193.442     -145.721        8.726      157.330       79.912       49.585    24752.673     6385.881     2458.708        4.616        1.680      242.187       48.666        0.040      350.741       32.127      860.763
07/09/2014  13:35:00     -246.755      -70.468       -9.681      100.879      103.493       48.448    10176.645    10710.820     2347.200        4.459        1.162      256.620       51.920        0.041      350.753       32.147      860.743
07/09/2014  13:36:00     -265.095      -42.134       -1.998      103.479       93.092       49.164    10707.933     8666.149     2417.110        4.692        1.090      268.422       51.252        0.036      350.705       32.064      860.721
07/09/2014  13:37:00     -222.221       -4.172      -15.266       42.916       62.345       31.439     1841.744     3886.931      988.433        2.817        0.336      222.260       19.491        0.008      350.412       31.553      860.681
07/09/2014  13:38:00     -121.855       27.742      -14.034       73.499       65.011       38.826     5402.147     4226.374     1507.454        1.347        0.557      124.973       39.867        0.102      351.142       32.827      860.641
07/09/2014  13:39:00      -51.425      114.867        1.399       41.894       57.999       40.776     1755.129     3363.928     1662.674        1.131        0.339      125.853       35.494        0.080      351.053       32.674      860.620
07/09/2014  13:40:00        6.327      199.948      -24.778       41.804       63.083       31.240     1747.567     3979.461      975.949        2.367        0.335      200.048       33.619        0.028      350.688       32.037      860.595
07/09/2014  13:41:00      -40.127      124.599      -12.250       34.533       50.220       30.621     1192.536     2522.058      937.643        1.097        0.233      130.901       24.254        0.034      350.909       32.423      860.582
07/09/2014  13:42:00       26.747       -8.612       25.875       29.342       30.105       26.618      860.975      906.309      708.509        0.197        0.124       28.099       16.768        0.356      351.262       33.039      860.565
07/09/2014  13:43:00       18.322      -35.380       10.500       41.336       39.488       27.494     1708.684     1559.315      755.908        0.286        0.201       39.843       17.751        0.198      350.996       32.573      860.557
07/09/2014  13:44:00       67.394      -39.061       47.130       88.940      149.354       77.259     7910.284    22306.635     5968.992        2.223        1.809       77.896      100.802        1.675      351.272       33.055      860.541
07/09/2014  13:45:00       97.842     -198.471       10.480      133.527      152.286       89.379    17829.431    23191.126     7988.640        4.903        2.450      221.277       95.241        0.185      351.039       32.646      860.515
07/09/2014  13:46:00       22.869      -68.866       38.788       74.944       99.446       70.775     5616.642     9889.457     5009.114        1.364        1.026       72.564       51.995        0.513      351.035       32.642      860.487
07/09/2014  13:47:00      -20.640     -173.079       31.919      112.590      119.904       90.395    12676.497    14376.952     8171.306        3.331        1.761      174.305       73.192        0.176      351.157       32.851      860.485
07/09/2014  13:48:00       64.076     -215.858      -33.142      116.377      118.048       65.797    13543.584    13935.339     4329.191        4.180        1.590      225.168       70.184        0.097      350.682       32.026      860.560
07/09/2014  13:49:00       54.111      -22.594       45.238       48.998       85.135       48.669     2400.827     7247.915     2368.627        0.875        0.601       58.638       52.747        0.809      350.894       32.396      860.540
07/09/2014  13:50:00       58.370      -35.065       22.197       70.388      113.786       62.575     4954.528    12947.160     3915.571        1.347        1.091       68.092       81.910        1.447      350.847       32.313      860.516
07/09/2014  13:51:00       43.862      -62.165       32.350       63.553      130.677       54.165     4038.942    17076.454     2933.799        1.544        1.202       76.082       75.634        0.988      350.868       32.351      860.495
07/09/2014  13:52:00      -20.118        8.695       38.569       85.314       51.418       42.116     7278.480     2643.826     1773.765        0.683        0.585       21.916       52.525        5.744      351.131       32.810      860.445
07/09/2014  13:53:00       62.265      -84.399       17.684       52.446       68.049       40.866     2750.605     4630.603     1670.024        1.018        0.453      104.881       29.646        0.080      351.129       32.804      860.428
07/09/2014  13:54:00       39.146      -85.609       46.399      141.699      150.862       85.387    20078.706    22759.304     7290.950        3.056        2.506       94.135       97.978        1.083      351.058       32.680      860.399
07/09/2014  13:55:00       27.942     -144.153        0.971       68.527      110.168       60.277     4695.958    12137.013     3633.370        2.101        1.023      146.836       40.849        0.077      351.425       33.321      860.417
07/09/2014  13:56:00      -21.367     -175.319       -1.556      102.774       83.244       53.361    10562.525     6929.645     2847.424        2.576        1.017      176.616       29.066        0.027      351.035       32.641      860.432
07/09/2014  13:57:00      -28.745       -5.353       23.712       38.244       62.299       39.521     1462.603     3881.144     1561.912        0.416        0.345       29.239       29.013        0.985      351.543       33.530      860.427
07/09/2014  13:58:00      -34.942      -36.322       25.942       81.551       88.178       55.263     6650.570     7775.341     3054.023        1.034        0.874       50.401       49.802        0.976      351.158       32.857      860.431
07/09/2014  13:59:00      -70.041      -12.376       36.986       71.631       60.422       40.950     5131.038     3650.840     1676.942        0.844        0.523       71.126       41.360        0.338      351.218       32.961      860.434
07/09/2014  14:00:00      -77.577      -20.468        0.209       41.397       46.435       39.906     1713.700     2156.214     1592.509        0.595        0.273       80.231       31.454        0.154      350.866       32.348      860.444
07/09/2014  14:01:00      -88.633      -59.645       -8.642       60.170       48.476       27.752     3620.443     2349.955      770.192        0.911        0.337      106.834       32.875        0.095      351.025       32.626      860.422
07/09/2014  14:02:00      -73.552      -27.392        5.972       66.022       43.337       30.187     4358.874     1878.090      911.280        0.667        0.357       78.487       38.674        0.243      351.323       33.145      860.387
07/09/2014  14:03:00       17.994      -41.847       21.500       56.196       50.730       30.566     3157.934     2573.581      934.300        0.460        0.333       45.552       33.273        0.534      351.236       32.993      860.359
07/09/2014  14:04:00      -62.167      -64.923      -25.820       48.920       18.871       20.951     2393.199      356.107      438.951        0.597        0.159       89.887       23.572        0.069      350.650       31.973      860.346
07/09/2014  14:05:00     -109.009       -9.517      -12.464       41.481       42.271       32.717     1720.714     1786.841     1070.380        0.835        0.229      109.424       25.602        0.055      350.776       32.191      860.340
07/09/2014  14:06:00      -81.728      -39.524       10.602       58.262       59.890       30.679     3394.483     3586.805      941.220        0.814        0.396       90.783       33.645        0.137      351.319       33.138      860.320
07/09/2014  14:07:00     -167.352      -52.074       -3.508       64.275       79.761       38.844     4131.299     6361.795     1508.865        2.136        0.600      175.267       25.448        0.021      351.391       33.261      860.295
07/09/2014  14:08:00     -144.478      -45.917       -5.409      100.546       79.443       48.011    10109.510     6311.235     2305.100        2.087        0.936      151.599       57.889        0.146      351.273       33.056      860.285
07/09/2014  14:09:00     -104.588       31.993      -33.857       43.967       59.572       34.087     1933.092     3548.882     1161.897        0.988        0.332      109.372       24.194        0.049      350.708       32.073      860.287
07/09/2014  14:10:00     -190.545       52.676      -17.034       90.681       51.076       41.391     8223.051     2608.742     1713.213        2.596        0.627      197.692       33.892        0.029      350.745       32.135      860.257
07/09/2014  14:11:00      -77.545       40.836        7.247       45.749       34.334       30.361     2092.986     1178.809      921.791        0.596        0.210       87.640       27.480        0.098      351.254       33.024      860.262
07/09/2014  14:12:00     -160.788        8.282      -11.927       95.272       96.666       47.190     9076.817     9344.269     2226.919        2.335        1.032      161.001       48.213        0.090      351.297       33.095      860.250
07/09/2014  14:13:00     -230.986      -98.803        6.698      126.033      119.281       53.927    15884.201    14227.913     2908.069        4.809        1.651      251.230       59.865        0.057      351.593       33.612      860.226
07/09/2014  14:14:00     -299.084     -136.308       -6.119       84.644       77.627       44.069     7164.601     6025.956     1942.060        6.160        0.757      328.681       44.117        0.018      350.907       32.415      860.271
07/09/2014  14:15:00     -182.996      -85.861      -26.476       86.245       62.267       36.323     7438.187     3877.173     1319.349        2.710        0.632      202.137       18.812        0.009      350.844       32.307      860.272
07/09/2014  14:16:00      -26.157       22.796       24.561       32.052       20.529       29.249     1027.343      421.444      855.499        0.206        0.115       34.697       24.495        0.498      351.274       33.059      860.267
07/09/2014  14:17:00     -107.788       10.908       -2.024       39.535       39.952       31.783     1563.031     1596.152     1010.129        0.795        0.208      108.339       23.456        0.047      350.782       32.201      860.247
07/09/2014  14:18:00     -141.959     -101.006      -18.888      100.468       84.789       43.220    10093.902     7189.153     1867.963        2.493        0.958      174.226       50.019        0.082      350.912       32.426      860.207
07/09/2014  14:19:00     -156.410      -85.734        4.246      116.866       86.238       47.517    13657.574     7437.029     2257.830        2.759        1.168      178.366       57.072        0.102      350.752       32.147      860.183
07/09/2014  14:20:00     -125.071      -35.705        0.420       95.959       67.343       41.416     9208.066     4535.049     1715.258        1.619        0.773      130.068       48.200        0.137      350.879       32.369      860.192
07/09/2014  14:21:00     -174.210      -49.776      -21.454       65.109       69.873       43.402     4239.207     4882.199     1883.777        2.214        0.550      181.181       40.371        0.050      350.862       32.338      860.197
07/09/2014  14:22:00     -311.635     -122.039      -12.795      126.381       75.810       45.500    15972.077     5747.228     2070.281        6.798        1.189      334.679       40.370        0.015      350.636       31.944      860.188
07/09/2014  14:23:00     -266.447      -50.714       -4.561      168.803       98.509       61.444    28494.324     9703.927     3775.398        5.777        2.099      271.231       79.862        0.087      350.788       32.209      860.170
07/09/2014  14:24:00     -253.088      -80.867        2.094       90.738       78.643       43.839     8233.457     6184.753     1921.872        4.347        0.817      265.693       42.013        0.025      350.615       31.905      860.173
07/09/2014  14:25:00     -226.904      -67.795      -10.438       81.976       55.129       38.604     6720.118     3039.185     1490.260        3.372        0.562      236.816       35.274        0.022      350.570       31.828      860.188
07/09/2014  14:26:00     -205.867      -96.821       -7.582       65.490       57.664       31.417     4288.908     3325.190      987.003        3.021        0.430      227.498       28.335        0.016      350.640       31.950      860.149
07/09/2014  14:27:00     -133.051       -6.924        5.366       72.862       70.663       35.971     5308.892     4993.309     1293.917        1.469        0.580      133.232       30.646        0.053      350.868       32.351      860.141
07/09/2014  14:28:00     -119.447       22.562        5.859       79.262       76.890       41.650     6282.542     5912.129     1734.701        1.437        0.696      121.559       42.136        0.120      351.115       32.780      860.154
07/09/2014  14:29:00      -97.035        6.165       -0.896       70.245       51.425       34.027     4934.407     2644.523     1157.862        0.909        0.437       97.230       35.587        0.134      351.145       32.833      860.170
07/09/2014  14:30:00      -75.577       60.013        2.652       53.167       48.117       37.053     2826.773     2315.217     1372.924        0.792        0.326       96.506       22.295        0.053      350.938       32.473      860.178
07/09/2014  14:31:00     -110.809       63.944       -0.471       71.813       48.739       38.815     5157.173     2375.463     1506.571        1.270        0.452      127.935       36.423        0.081      350.872       32.358      860.175
07/09/2014  14:32:00     -150.977       40.662       -7.083       66.377       37.414       26.858     4405.929     1399.838      721.337        1.551        0.326      156.357       22.860        0.021      350.762       32.166      860.169
07/09/2014  14:33:00     -154.660       81.330      -20.930       58.500       68.255       30.875     3422.279     4658.737      953.241        2.000        0.452      174.741       18.889        0.012      350.759       32.160      860.157
07/09/2014  14:34:00      -43.328      106.746        0.244       49.056       56.027       34.567     2406.484     3139.068     1194.898        1.001        0.337      115.204       38.577        0.112      350.934       32.465      860.153
07/09/2014  14:35:00      -74.298       13.033        6.204       34.517       43.166       24.141     1191.449     1863.342      582.787        0.468        0.182       75.432       16.748        0.049      350.829       32.283      860.134
07/09/2014  14:36:00       18.186        7.712       23.706       16.213       12.351       10.324      262.848      152.546      106.586        0.074        0.026       19.753        7.221        0.134      351.025       32.624      860.119
07/09/2014  14:37:00       -1.766       49.885        6.543       24.002       45.724       21.305      576.084     2090.706      453.907        0.283        0.156       49.916       26.465        0.281      350.768       32.178      860.110
07/09/2014  14:38:00        8.075      114.299       -0.994       27.268       51.776       30.401      743.540     2680.711      924.218        0.874        0.217      114.584       28.791        0.063      350.656       31.982      860.095
07/09/2014  14:39:00       -6.240       35.227       13.697       48.419       27.587       26.228     2344.443      761.024      687.888        0.263        0.190       35.775       20.250        0.320      350.762       32.166      860.077
07/09/2014  14:40:00       -5.812      105.613        6.908       29.819       54.675       28.902      889.144     2989.344      835.345        0.797        0.236      105.773       28.043        0.070      350.663       31.995      860.063
07/09/2014  14:41:00      -43.209       38.084      -11.003       35.578       36.892       22.393     1265.827     1361.047      501.452        0.328        0.156       57.597       17.683        0.094      350.780       32.199      860.064
07/09/2014  14:42:00      -55.435       57.146        4.632       38.202       30.922       30.167     1459.417      956.148      910.076        0.484        0.166       79.616       25.787        0.105      350.760       32.164      860.067
07/09/2014  14:43:00      -30.344       27.173       12.002       40.321       23.982       27.299     1625.746      575.123      745.260        0.237        0.147       40.733       29.514        0.525      350.938       32.472      860.051
07/09/2014  14:44:00     -110.267      150.945      -22.095       57.274       62.589       40.424     3280.276     3917.405     1634.077        2.213        0.442      186.930       39.860        0.045      350.763       32.165      860.054
07/09/2014  14:45:00     -137.295       85.084       -2.006       89.240       94.471       50.924     7963.789     8924.801     2593.298        2.278        0.974      161.521       44.316        0.075      350.786       32.206      860.047
07/09/2014  14:46:00     -245.972       61.464      -21.707       77.632       69.507       41.533     6026.665     4831.176     1724.987        3.866        0.629      253.535       33.874        0.018      350.647       31.959      860.063
07/09/2014  14:47:00     -154.501      -61.820      -14.769       86.507       48.671       33.760     7483.464     2368.856     1139.745        1.945        0.550      166.410       41.354        0.062      350.898       32.402      860.053
07/09/2014  14:48:00     -242.956      -88.612       -4.502       92.954       60.486       44.325     8640.491     3658.530     1964.695        4.058        0.713      258.611       39.496        0.023      350.869       32.350      860.032
07/09/2014  14:49:00     -121.044        8.723       -5.695       72.848       46.334       34.919     5306.869     2146.800     1219.323        1.172        0.434      121.358       35.614        0.086      350.893       32.396      860.042
07/09/2014  14:50:00     -181.841       -2.075      -13.425       64.301       44.278       27.048     4134.607     1960.517      731.595        2.004        0.341      181.852       27.303        0.023      351.071       32.704      860.031
07/09/2014  14:51:00      -67.771      -43.920        7.321       73.695       48.278       29.159     5430.987     2330.784      850.224        0.759        0.431       80.758       22.285        0.076      351.367       33.220      860.032
07/09/2014  14:52:00     -130.372      -85.718       10.946       73.891       80.113       47.940     5459.883     6418.155     2298.245        1.932        0.709      156.027       43.597        0.078      351.194       32.918      860.024
07/09/2014  14:53:00     -168.949     -125.492       -3.356       94.849       86.160       53.380     8996.414     7423.465     2849.376        3.178        0.963      210.456       51.394        0.060      350.985       32.551      860.020
07/09/2014  14:54:00     -117.875      -96.659        1.733       75.382       59.567       42.389     5682.443     3548.211     1796.853        1.713        0.551      152.439       39.327        0.067      350.871       32.355      860.034
07/09/2014  14:55:00     -104.624      -76.917       18.847       94.470       57.429       38.660     8924.599     3298.125     1494.604        1.547        0.686      129.856       42.586        0.108      351.047       32.663      860.013
07/09/2014  14:56:00     -150.609      -77.271       12.562       67.214       43.466       34.903     4517.781     1889.308     1218.189        1.822        0.381      169.275       36.594        0.047      350.878       32.367      859.993
07/09/2014  14:57:00     -107.119      -83.121       -0.911       87.806       62.791       32.258     7709.832     3942.653     1040.562        1.554        0.635      135.586       34.200        0.064      350.885       32.381      859.975
07/09/2014  14:58:00      -27.328     -197.373       -7.040       29.064       41.890       26.477      844.705     1754.800      701.026        2.153        0.165      199.256       20.199        0.010      350.628       31.930      859.971
07/09/2014  14:59:00       -4.035     -156.772      -25.619       64.216       39.080       32.869     4123.646     1527.247     1080.390        1.599        0.337      156.823       35.514        0.051      350.774       32.187      859.949
07/09/2014  15:00:00      -34.521     -112.227       -0.059       63.704       68.124       43.816     4058.251     4640.915     1919.849        1.220        0.531      117.416       39.082        0.111      351.181       32.895      859.926
07/09/2014  15:01:00       54.283      -74.169       18.806       60.848       71.602       52.134     3702.480     5126.819     2717.906        1.017        0.577       91.912       51.850        0.318      351.177       32.889      859.904
07/09/2014  15:02:00       76.012     -177.159      -23.683       62.464       83.880       39.271     3901.809     7035.837     1542.203        2.510        0.624      192.777       38.063        0.039      350.709       32.071      859.895
07/09/2014  15:03:00       31.215     -107.073       23.241       51.719       86.181       45.693     2674.848     7427.202     2087.859        1.258        0.609      111.530       45.565        0.167      350.981       32.547      859.878
07/09/2014  15:04:00       80.390     -118.035      -30.603       65.877       69.995       46.517     4339.751     4899.333     2163.858        1.637        0.570      142.810       45.119        0.100      351.029       32.631      859.869
07/09/2014  15:05:00       13.428      -36.151       44.987       40.514       91.430       50.300     1641.375     8359.414     2530.101        0.802        0.627       38.564       55.388        2.063      351.267       33.046      859.863
07/09/2014  15:06:00       50.720     -117.546      -13.778       77.567       72.714       54.931     6016.682     5287.276     3017.390        1.545        0.716      128.022       48.389        0.143      351.019       32.613      859.847
07/09/2014  15:07:00       55.091      -29.263       46.152       64.962       90.778       50.784     4220.116     8240.635     2579.047        1.053        0.752       62.381       66.156        1.125      351.220       32.964      859.850
07/09/2014  15:08:00       49.460      -47.300       10.135       57.694       59.022       47.856     3328.632     3483.605     2290.183        0.694        0.455       68.436       46.072        0.453      351.279       33.067      859.855
07/09/2014  15:09:00      -17.510     -125.224      -37.618       84.642       53.779       38.344     7164.335     2892.207     1470.259        1.446        0.576      126.442       30.996        0.060      351.261       33.035      859.842
07/09/2014  15:10:00      -89.141      -67.320        2.979       56.827       44.899       40.430     3229.281     2015.898     1634.585        0.968        0.344      111.705       24.983        0.050      351.508       33.467      859.840
07/09/2014  15:11:00      -95.248     -125.757       -0.669      112.541       85.811       44.610    12665.395     7363.573     1990.092        2.345        1.101      157.756       54.711        0.120      351.170       32.874      859.823
07/09/2014  15:12:00      -55.900      -76.378       23.952      103.082       55.153       43.101    10625.970     3041.852     1857.711        1.253        0.776       94.648       37.957        0.161      351.406       33.287      859.809
07/09/2014  15:13:00     -169.621     -122.277        6.158       95.995       63.662       44.400     9215.065     4052.805     1971.363        2.950        0.762      209.100       43.049        0.042      350.983       32.549      859.805
07/09/2014  15:14:00      -88.291     -158.740        1.942      124.262       93.063       64.714    15441.168     8660.709     4187.878        3.064        1.414      181.642       70.280        0.150      350.905       32.413      859.789
07/09/2014  15:15:00     -167.427      -88.554        1.658       74.724       68.274       39.138     5583.656     4661.312     1531.796        2.382        0.589      189.403       38.261        0.041      350.922       32.443      859.802
07/09/2014  15:16:00     -220.370       -9.743      -15.018       80.448       42.556       35.316     6471.926     1811.052     1247.187        2.921        0.477      220.585       41.559        0.035      350.750       32.140      859.822
07/09/2014  15:17:00     -107.708      -36.035      -12.310       52.185       44.743       23.314     2723.292     2001.945      543.562        0.916        0.263      113.576       11.819        0.011      350.737       32.122      859.808
07/09/2014  15:18:00      -92.939       22.732       -9.263       44.026       42.710       23.084     1938.258     1824.176      532.878        0.677        0.215       95.678       17.215        0.032      350.899       32.405      859.795
07/09/2014  15:19:00     -119.756       20.185      -10.474       59.540       41.898       27.018     3544.994     1755.413      729.992        1.044        0.302      121.445       28.145        0.054      350.835       32.293      859.804
07/09/2014  15:20:00      -22.062       90.603        3.007       40.657       42.603       28.083     1652.997     1815.030      788.659        0.648        0.213       93.250       28.850        0.096      351.002       32.585      859.784
07/09/2014  15:21:00      -75.664       74.479        6.012       47.109       50.409       35.203     2219.290     2541.051     1239.247        0.865        0.300      106.170       25.102        0.056      351.023       32.621      859.766
07/09/2014  15:22:00      -59.150       46.370        9.002       45.800       62.901       36.559     2097.597     3956.518     1336.531        0.656        0.370       75.159       36.367        0.234      351.033       32.638      859.770
07/09/2014  15:23:00     -115.107       -8.200       -9.245       61.276       52.222       38.259     3754.761     2727.177     1463.774        1.067        0.397      115.399       33.152        0.083      351.048       32.665      859.762
07/09/2014  15:24:00     -178.828      -41.134      -10.601       64.350       76.837       34.664     4140.957     5903.897     1201.597        2.251        0.562      183.498       29.180        0.025      350.909       32.420      859.753
07/09/2014  15:25:00     -189.037       54.977      -30.454       39.317       44.562       30.024     1545.813     1985.768      901.423        2.206        0.222      196.869       19.764        0.010      350.711       32.076      859.756
07/09/2014  15:26:00     -146.877      -18.060      -22.922       51.462       56.289       27.979     2648.289     3168.467      782.809        1.451        0.330      147.983       13.521        0.008      350.768       32.174      859.738
07/09/2014  15:27:00     -104.261       49.238      -12.282       75.368       84.256       29.522     5680.349     7099.019      871.537        1.355        0.683      115.303       27.253        0.056      350.811       32.251      859.734
07/09/2014  15:28:00      -55.419       21.824       -3.843       48.136       41.250       24.286     2317.078     1701.598      589.818        0.408        0.230       59.561       16.502        0.077      350.890       32.390      859.736
07/09/2014  15:29:00     -169.191      -85.100        5.352       82.935       66.112       43.038     6878.263     4370.803     1852.235        2.450        0.655      189.387       42.634        0.051      350.794       32.219      859.729
07/09/2014  15:30:00     -158.110      -61.737        2.739       55.032       47.170       29.059     3028.526     2224.989      844.425        1.746        0.305      169.736       23.237        0.019      350.740       32.127      859.733
07/09/2014  15:31:00     -103.505      -15.211       -4.325       32.595       34.141       17.498     1062.419     1165.599      306.187        0.675        0.127      104.616       13.365        0.016      350.695       32.051      859.737
07/09/2014  15:32:00        9.130        9.165       10.745       38.699       15.317       21.746     1497.602      234.621      472.889        0.124        0.110       12.936       11.734        0.823      350.679       32.023      859.735
07/09/2014  15:33:00      -41.460       34.656       -1.855       91.507       30.908       21.266     8373.549      955.296      452.254        0.635        0.489       54.037       14.560        0.073      350.320       31.398      859.734
07/09/2014  15:34:00     -174.541       -3.321       -9.819       24.470       43.779       18.983      598.766     1916.600      360.361        1.672        0.144      174.572       20.974        0.014      350.651       31.970      859.726
07/09/2014  15:35:00      -71.156      -15.375        5.671       60.091       33.810       28.100     3610.985     1143.147      789.628        0.544        0.277       72.799       36.018        0.245      350.777       32.192      859.703
07/09/2014  15:36:00      -89.134       12.150       -6.160       20.017       30.460       15.293      400.698      927.841      233.865        0.485        0.078       89.958        9.486        0.011      350.686       32.035      859.689
07/09/2014  15:37:00      -56.003       36.722        5.427       25.399       34.102       22.447      645.094     1162.919      503.883        0.341        0.116       66.969       18.749        0.078      350.630       31.936      859.676
07/09/2014  15:38:00        1.365       22.088       18.428       17.648       29.434       26.470      311.449      866.350      700.640        0.135        0.094       22.131       19.393        0.768      350.822       32.270      859.661
07/09/2014  15:39:00      -23.733       14.524       13.049       14.129       15.705       13.832      199.635      246.644      191.318        0.079        0.032       27.824       11.796        0.180      350.710       32.076      859.640
07/09/2014  15:40:00       37.498       17.191       10.622       28.576       19.506       25.613      816.566      380.495      656.013        0.183        0.093       41.250       13.197        0.102      350.074       30.969      859.632
07/09/2014  15:41:00        0.032       10.570       17.724       10.444       12.899       15.993      109.076      166.372      255.766        0.048        0.027       10.571        2.983        0.080      350.473       31.665      859.633
07/09/2014  15:42:00        8.951      -26.098        7.836       18.441       23.740       12.880      340.079      563.578      165.893        0.095        0.053       27.590        9.871        0.128      350.412       31.558      859.618
07/09/2014  15:43:00       12.409      -14.156       17.008       14.150       27.220       15.138      200.222      740.914      229.145        0.091        0.059       18.824       17.021        0.818      350.453       31.629      859.611
07/09/2014  15:44:00       25.385       34.687       15.931       24.819       22.181       18.769      616.002      491.975      352.277        0.178        0.073       42.983        9.526        0.049      349.885       30.641      859.596
07/09/2014  15:45:00       27.747       15.533        7.528       24.138       21.558       16.477      582.632      464.731      271.486        0.119        0.066       31.799        9.258        0.085      350.146       31.096      859.571
07/09/2014  15:46:00       11.587       26.927        8.215       19.671       22.483       14.996      386.953      505.465      224.877        0.102        0.056       29.314       10.041        0.117      350.543       31.786      859.559
07/09/2014  15:47:00       -9.529      -13.148       21.298       14.612       38.517       16.319      213.521     1483.545      266.296        0.134        0.098       16.238       19.682        1.469      350.509       31.726      859.544
07/09/2014  15:48:00       -0.069        5.733       23.314       17.283       23.036       12.151      298.711      530.638      147.657        0.078        0.049        5.734        6.624        1.335      350.165       31.129      859.532
07/09/2014  15:49:00       55.688      -26.957        3.341       30.790       38.679       25.702      948.044     1496.028      660.607        0.347        0.155       61.870       23.847        0.149      350.190       31.172      859.532
07/09/2014  15:50:00       19.822        6.299       33.483       25.323       35.410       26.818      641.272     1253.862      719.216        0.208        0.131       20.799       26.219        1.589      350.358       31.464      859.525
07/09/2014  15:51:00        6.629       17.028       23.996       15.194       30.241       20.801      230.857      914.509      432.662        0.124        0.079       18.273       15.624        0.731      350.533       31.769      859.519
07/09/2014  15:52:00       -7.871       26.042       29.479        9.578       17.548       11.937       91.743      307.931      142.486        0.108        0.027       27.205        4.964        0.033      350.229       31.239      859.528
07/09/2014  15:53:00        7.730      -21.167       19.641       24.870       41.524       20.814      618.529     1724.258      433.219        0.183        0.139       22.535       26.200        1.352      350.563       31.820      859.518
07/09/2014  15:54:00       42.364      -74.949       -5.531       31.153       42.850       20.950      970.485     1836.114      438.887        0.534        0.162       86.093        5.259        0.004      350.580       31.850      859.519
07/09/2014  15:55:00      -25.279      -27.210       -0.955       22.218       19.474       14.282      493.639      379.227      203.974        0.123        0.054       37.140        7.483        0.041      350.684       32.031      859.508
07/09/2014  15:56:00        1.947       -3.164        1.576       24.843       26.777       25.621      617.159      717.003      656.429        0.100        0.100        3.715       17.280       21.639      350.782       32.202      859.491
07/09/2014  15:57:00      -77.495       -6.385       -6.276       38.962       22.601       20.335     1518.024      510.815      413.510        0.426        0.122       77.758       15.483        0.040      351.005       32.590      859.483
07/09/2014  15:58:00      -68.885       26.218        9.309       44.448       29.979       24.530     1975.667      898.769      601.744        0.450        0.174       73.706       28.112        0.145      350.866       32.348      859.478
07/09/2014  15:59:00       35.270       24.417       33.633       27.809       20.418       21.593      773.319      416.907      466.279        0.231        0.083       42.897       10.049        0.055      350.532       31.765      859.463
07/09/2014  16:00:00       30.077      -33.773      -13.578       23.059       21.180       20.325      531.728      448.586      413.102        0.181        0.070       45.225       16.236        0.129      349.856       30.594      859.451
07/09/2014  16:01:00       59.304       52.757       18.242       33.017       33.060       23.068     1090.142     1092.970      532.137        0.467        0.136       79.374       16.448        0.043      350.656       31.981      859.449
07/09/2014  16:02:00        4.299       33.118       -4.009       20.888       26.511       16.554      436.308      702.814      274.040        0.127        0.071       33.396       13.755        0.170      350.903       32.413      859.446
07/09/2014  16:03:00       -7.482        6.413       20.358       13.809       11.155        9.997      190.693      124.426       99.945        0.046        0.021        9.855        5.136        0.272      350.895       32.398      859.439
07/09/2014  16:04:00      -10.998      -12.714       10.640       23.947       26.202       19.968      573.479      686.520      398.737        0.103        0.083       16.811       15.777        0.881      350.894       32.397      859.431
07/09/2014  16:05:00       17.508       32.633       23.131       27.628       19.426       21.178      763.301      377.353      448.502        0.175        0.079       37.033       12.686        0.117      350.456       31.634      859.409
07/09/2014  16:06:00       34.772       15.634       12.960       33.092       26.985       34.191     1095.066      728.198     1169.000        0.231        0.150       38.125       27.464        0.519      350.427       31.584      859.399
07/09/2014  16:07:00       51.656      -90.473       10.627       78.955       90.885       45.459     6233.858     8260.047     2066.517        1.376        0.828      104.181       49.252        0.223      350.557       31.808      859.380
07/09/2014  16:08:00       24.669      -68.891       10.419       73.810       45.558       33.575     5447.981     2075.562     1127.251        0.706        0.433       73.175       16.266        0.049      350.819       32.265      859.391
07/09/2014  16:09:00       12.698      -42.471       20.115       36.811       42.884       32.292     1355.021     1839.028     1042.771        0.330        0.212       44.329       24.714        0.311      350.808       32.245      859.374
07/09/2014  16:10:00       -0.069      -20.195        4.324       62.893       36.742       28.930     3955.568     1349.955      836.947        0.328        0.307       20.195       25.763        1.627      350.680       32.025      859.358
07/09/2014  16:11:00       36.351        8.714       51.281       61.279       53.005       49.693     3755.066     2809.583     2469.440        0.653        0.452       37.381       33.392        0.798      350.632       31.941      859.337
07/09/2014  16:12:00       84.455      -92.382        6.568       59.857       84.416       51.077     3582.911     7125.994     2608.878        1.451        0.666      125.168       65.592        0.275      350.722       32.094      859.325
07/09/2014  16:13:00       71.726      -77.292       -4.091       71.651       76.672       36.886     5133.794     5878.600     1360.575        1.175        0.619      105.445       52.844        0.251      350.805       32.240      859.309
07/09/2014  16:14:00       25.001       19.984       43.991       29.467       29.893       24.779      868.306      893.573      614.009        0.267        0.119       32.006        6.126        0.037      350.415       31.564      859.297
07/09/2014  16:15:00       26.970       21.870       51.232       40.348       53.290       33.171     1627.946     2839.804     1100.327        0.470        0.278       34.723       28.184        0.659      350.184       31.162      859.291
07/09/2014  16:16:00       79.917       31.150       61.606       52.569       49.532       38.504     2763.452     2453.438     1482.593        0.892        0.335       85.773       34.332        0.160      350.376       31.494      859.284
07/09/2014  16:17:00       86.070       17.741       32.277       29.999       40.643       35.802      899.935     1651.883     1281.801        0.630        0.192       87.879       24.569        0.078      350.290       31.346      859.274
07/09/2014  16:18:00       19.424       14.176       20.665       20.120       19.532       17.216      404.825      381.495      296.407        0.104        0.054       24.047        9.683        0.162      350.364       31.475      859.264
07/09/2014  16:19:00       20.041       23.843        5.889       32.920       31.037       18.535     1083.706      963.320      343.528        0.170        0.120       31.147       19.591        0.396      350.541       31.782      859.261
07/09/2014  16:20:00       30.130       39.347       -8.285       40.467       24.556       20.722     1637.607      602.989      429.385        0.260        0.133       49.558       20.211        0.166      350.831       32.286      859.259
07/09/2014  16:21:00       31.300       47.571        0.151       27.699       38.602       29.290      767.224     1490.085      857.931        0.318        0.156       56.945       23.369        0.168      350.856       32.332      859.264
07/09/2014  16:22:00       41.847       39.195       -9.778       53.279       38.961       30.953     2838.672     1517.990      958.119        0.435        0.266       57.336       25.989        0.205      350.869       32.353      859.268
07/09/2014  16:23:00       98.913       76.150       -0.588       60.133       48.298       32.225     3616.023     2332.673     1038.471        1.128        0.349      124.830       21.025        0.028      350.850       32.320      859.260
07/09/2014  16:24:00      118.151       62.737        8.097       70.966       53.996       42.389     5036.176     2915.615     1796.826        1.385        0.487      133.775       18.364        0.019      350.788       32.210      859.245
07/09/2014  16:25:00      171.272       58.430       22.973       74.068       54.034       46.903     5485.997     2919.720     2199.859        2.194        0.530      180.965       42.997        0.056      350.593       31.871      859.214
07/09/2014  16:26:00        0.399       48.187       12.700       49.662       41.182       37.066     2466.349     1695.995     1373.885        0.401        0.277       48.189       29.509        0.375      350.582       31.853      859.199
07/09/2014  16:27:00       90.650      128.165        6.211       74.893       64.333       46.565     5608.946     4138.741     2168.277        1.830        0.596      156.983       32.687        0.043      350.816       32.259      859.216
07/09/2014  16:28:00      166.574      144.883       12.608       93.959       67.919       65.703     8828.225     4612.978     4316.903        3.332        0.888      220.766       34.946        0.025      350.786       32.206      859.195
07/09/2014  16:29:00      141.703       82.323        2.002       65.605       67.826       54.696     4303.969     4600.418     2991.600        1.938        0.595      163.881       30.916        0.036      350.816       32.260      859.188
07/09/2014  16:30:00       56.594      102.771       -1.537       68.293       82.293       42.670     4663.927     6772.184     1820.722        1.351        0.663      117.323       47.737        0.166      350.850       32.319      859.177
07/09/2014  16:31:00      -73.675       58.045      -26.737       37.207       66.410       21.437     1384.372     4410.315      459.534        0.788        0.313       93.794       17.409        0.034      350.769       32.179      859.188
07/09/2014  16:32:00      -41.008        3.998       12.353       45.853       32.466       16.324     2102.518     1054.030      266.482        0.264        0.171       41.203       19.580        0.226      350.886       32.384      859.192
07/09/2014  16:33:00      -41.876       83.627       -4.329       25.256       76.052       20.812      637.875     5783.868      433.144        0.781        0.343       93.526       23.019        0.061      350.854       32.326      859.197
07/09/2014  16:34:00      -82.707       73.281      -16.463       43.337       47.840       22.825     1878.098     2288.634      520.992        0.858        0.234      110.501       27.159        0.060      350.859       32.334      859.197
07/09/2014  16:35:00      -66.739      -17.448      -13.417       43.705       35.246       18.392     1910.112     1242.309      338.266        0.421        0.175       68.982       24.089        0.122      350.882       32.377      859.186
07/09/2014  16:36:00       -4.694      -43.206        2.396       48.025       44.909       26.656     2306.366     2016.828      710.566        0.346        0.252       43.460       23.376        0.289      350.744       32.136      859.181
07/09/2014  16:37:00       22.023      -90.891      -25.236       27.751       31.259       18.880      770.116      977.097      356.441        0.574        0.105       93.521       15.041        0.026      350.594       31.874      859.165
07/09/2014  16:38:00      -24.639      -49.820        2.763       42.273       33.487       29.995     1786.985     1121.402      899.698        0.345        0.190       55.580       27.965        0.253      350.807       32.245      859.154
07/09/2014  16:39:00      -56.638      -33.804        2.545       34.071       26.762       20.924     1160.818      716.180      437.803        0.334        0.116       65.959       17.413        0.070      350.831       32.288      859.151
07/09/2014  16:40:00      -29.052       12.796       15.450       37.681       27.639       19.646     1419.832      763.929      385.982        0.191        0.128       31.745       19.520        0.378      350.806       32.242      859.157
07/09/2014  16:41:00     -118.599      -22.899       -7.921       42.283       38.764       26.314     1787.852     1502.666      692.419        0.932        0.199      120.789       20.384        0.028      350.906       32.418      859.164
07/09/2014  16:42:00     -112.276       95.228       -6.092       30.414       45.540       22.993      925.037     2073.916      528.684        1.262        0.176      147.222       21.005        0.020      350.938       32.473      859.163
07/09/2014  16:43:00       11.695        5.907       22.089       40.133       28.721       21.027     1610.693      824.906      442.119        0.177        0.144       13.102       12.062        0.848      350.764       32.170      859.152
07/09/2014  16:44:00       32.214        3.975       27.940       32.227       21.486       19.692     1038.581      461.660      387.786        0.186        0.094       32.458       16.525        0.259      350.029       30.892      859.133
07/09/2014  16:45:00        4.456      -25.647        6.357       17.686       26.648       19.405      312.788      710.113      376.556        0.106        0.070       26.032       15.170        0.340      350.378       31.498      859.127
07/09/2014  16:46:00      -39.328      -43.149       15.158       49.733       66.497       33.565     2473.350     4421.834     1126.640        0.583        0.401       58.383       43.777        0.562      350.723       32.098      859.126
07/09/2014  16:47:00     -106.065      -66.287      -13.680       34.347       44.955       19.259     1179.711     2020.965      370.915        0.970        0.179      125.075       26.127        0.044      350.933       32.465      859.137
07/09/2014  16:48:00     -106.452       -6.172       -4.076       53.310       37.670       19.617     2841.909     1419.007      384.834        0.802        0.232      106.631       18.203        0.029      351.066       32.695      859.149
07/09/2014  16:49:00     -191.501      -32.124      -22.018       87.665       72.769       41.694     7685.194     5295.301     1738.426        2.645        0.736      194.176       43.411        0.050      351.195       32.920      859.163
07/09/2014  16:50:00     -238.164      -44.022      -16.852       97.480       93.618       49.730     9502.402     8764.383     2473.027        3.984        1.037      242.199       50.675        0.044      350.987       32.555      859.159
07/09/2014  16:51:00     -182.252      -50.573      -10.167       88.200       57.536       37.686     7779.276     3310.351     1420.232        2.419        0.625      189.138       45.876        0.059      351.002       32.581      859.136
07/09/2014  16:52:00      -66.840       12.553       -3.149       75.761       34.742       24.882     5739.657     1207.021      619.101        0.610        0.378       68.009       32.152        0.224      351.054       32.676      859.109
07/09/2014  16:53:00       26.127       75.261       -1.339       21.368       41.718       23.151      456.580     1740.373      535.967        0.454        0.137       79.667       14.107        0.031      350.911       32.427      859.076
07/09/2014  16:54:00       41.424       78.620       15.346       63.113       36.790       25.813     3983.218     1353.538      666.322        0.707        0.300       88.865       18.707        0.044      350.879       32.370      859.044
07/09/2014  16:55:00      -16.581      197.859      -21.856       87.152       76.513       43.059     7595.517     5854.269     1854.040        2.760        0.765      198.552       40.996        0.043      350.927       32.453      859.031
07/09/2014  16:56:00      -93.294      169.938      -18.638       71.402       81.397       49.465     5098.306     6625.463     2446.764        2.605        0.709      193.862       54.335        0.079      350.956       32.503      859.057
07/09/2014  16:57:00     -120.886       95.206      -19.899       73.621      117.329       51.940     5419.984    13766.162     2697.804        2.298        1.094      153.875       48.168        0.098      350.975       32.535      859.047
07/09/2014  16:58:00      -56.285       46.921       -0.008       53.729       43.853       36.212     2886.754     1923.098     1311.337        0.574        0.306       73.277       32.386        0.195      351.070       32.704      859.033
07/09/2014  16:59:00      -41.702       -8.095       25.740       61.374       49.581       32.956     3766.752     2458.261     1086.073        0.489        0.366       42.480       27.141        0.408      351.121       32.792      859.016
07/09/2014  17:00:00       24.097      -11.476       43.487       66.162       42.110       34.776     4377.430     1773.263     1209.383        0.498        0.368       26.690       29.899        1.255      350.858       32.334      858.988
07/09/2014  17:01:00      -32.571       -9.123       27.236       76.687       40.085       23.803     5880.963     1606.834      566.590        0.497        0.403       33.824       33.932        1.006      350.896       32.401      858.981
07/09/2014  17:02:00      -78.677      -14.466        2.249       71.745       57.541       32.161     5147.392     3310.928     1034.301        0.795        0.475       79.996       41.473        0.269      351.003       32.585      858.986
07/09/2014  17:03:00       48.832      121.571      -27.103       42.461       64.753       21.827     1802.920     4192.953      476.415        1.218        0.324      131.012       18.889        0.021      350.892       32.393      859.003
07/09/2014  17:04:00       33.148       50.084        5.192       89.569       56.336       38.177     8022.673     3173.745     1457.468        0.814        0.633       60.060       32.736        0.297      350.937       32.472      858.995
07/09/2014  17:05:00       -8.759       43.338       17.883       27.754       52.145       27.395      770.272     2719.065      750.485        0.326        0.212       44.215       19.973        0.204      351.026       32.625      859.006
07/09/2014  17:06:00        7.783       99.165      -15.669       44.514       40.577       27.265     1981.507     1646.504      743.387        0.725        0.219       99.470       20.331        0.042      350.917       32.439      859.003
07/09/2014  17:07:00        7.124       74.397      -11.009       25.405       29.830       18.042      645.428      889.837      325.509        0.378        0.093       74.737       12.419        0.028      350.930       32.457      859.006
07/09/2014  17:08:00       -1.351       36.223       -0.388       17.095       30.512       18.055      292.254      930.990      325.967        0.143        0.077       36.248       13.454        0.138      351.012       32.603      859.003
07/09/2014  17:09:00      -52.710       71.635       -8.177       45.764       43.522       20.812     2094.333     1894.126      433.158        0.620        0.221       88.938       24.626        0.077      351.013       32.603      859.004
07/09/2014  17:10:00      -75.253      -55.026        3.150       95.445       84.464       33.510     9109.731     7134.236     1122.896        1.303        0.868       93.225       39.389        0.179      350.989       32.561      859.003
07/09/2014  17:11:00     -320.946       25.726      -33.266      110.611       90.042       43.530    12234.817     8107.608     1894.856        6.350        1.112      321.975       55.792        0.030      351.041       32.647      859.010
07/09/2014  17:12:00      -94.915       34.131        5.839       84.955      146.057       51.521     7217.363    21332.769     2654.461        2.070        1.560      100.865       46.436        0.212      351.098       32.749      858.989
07/09/2014  17:13:00     -295.967      -17.208      -21.012      126.416      112.398       51.791    15981.036    12633.245     2682.320        5.981        1.565      296.466       48.525        0.027      351.108       32.765      858.966
07/09/2014  17:14:00     -402.815     -133.775      -15.458      108.702      102.987       58.006    11816.109    10606.272     3364.661       10.309        1.289      424.448       42.431        0.010      351.182       32.894      858.971
07/09/2014  17:15:00     -462.351      -40.488      -41.175      153.784      119.270       62.825    23649.385    14225.447     3947.033       12.946        2.091      464.121       75.344        0.026      351.065       32.690      858.984
07/09/2014  17:16:00     -304.919     -136.942      -16.993       99.320       91.139       49.165     9864.475     8306.323     2417.191        6.630        1.029      334.258       37.994        0.013      351.162       32.858      858.993
07/09/2014  17:17:00     -208.211      -87.973       -8.096       91.137       68.661       47.412     8305.888     4714.310     2247.861        3.321        0.763      226.033       49.495        0.048      351.066       32.693      859.021
07/09/2014  17:18:00     -210.655      -70.469       -8.531       78.062       63.869       39.139     6093.626     4079.261     1531.894        3.056        0.585      222.129       39.747        0.032      351.191       32.909      859.019
07/09/2014  17:19:00      -44.560      -30.253       12.062       48.146       62.394       23.389     2318.037     3892.999      547.032        0.490        0.338       53.860        6.218        0.013      351.233       32.986      859.006
07/09/2014  17:20:00     -130.755      -66.838       -1.732       78.703       59.195       29.300     6194.096     3504.024      858.517        1.606        0.528      146.847       30.759        0.044      351.177       32.888      858.990
07/09/2014  17:21:00     -141.511      -20.325        7.531      106.022       71.736       43.495    11240.762     5145.988     1891.780        1.938        0.914      142.963       48.567        0.115      351.270       33.050      858.982
07/09/2014  17:22:00     -229.496        3.662       -0.317      101.478       89.255       50.408    10297.778     7966.394     2541.012        3.674        1.040      229.525       52.416        0.052      351.234       32.985      858.967
07/09/2014  17:23:00     -173.420      -71.640      -28.961      101.658      115.335       36.164    10334.378    13302.092     1307.803        3.049        1.247      187.635       30.466        0.026      350.927       32.450      858.953
07/09/2014  17:24:00     -164.702     -164.871       -6.837       78.545       94.454       52.607     6169.359     8921.586     2767.514        3.610        0.893      233.044       49.369        0.045      351.022       32.615      858.957
07/09/2014  17:25:00     -255.236     -110.922      -12.907      112.059      106.838       56.005    12557.303    11414.297     3136.507        5.236        1.355      278.296       65.510        0.055      351.084       32.723      858.956
07/09/2014  17:26:00     -275.230      -91.659       12.808      181.701      137.269       78.397    33015.078    18842.878     6146.129        7.115        2.900      290.092       95.037        0.107      351.245       33.005      858.914
07/09/2014  17:27:00     -282.618      -55.135      -18.174      144.998      161.907       72.280    21024.455    26213.862     5224.360        6.784        2.623      287.946       73.143        0.065      351.258       33.027      858.907
07/09/2014  17:28:00     -269.909      -71.302       -6.310      169.093      153.534       76.374    28592.489    23572.586     5832.942        6.798        2.900      279.168       85.734        0.094      351.410       33.294      858.905
07/09/2014  17:29:00     -373.645       33.901       -9.441      203.928      213.694       93.522    41586.719    45665.310     8746.285       11.841        4.800      375.180       95.528        0.065      351.211       32.945      858.909
07/09/2014  17:30:00     -374.343      -60.966       -0.256      203.036      212.814       88.020    41223.544    45289.908     7747.505       11.904        4.713      379.275      101.201        0.071      351.240       32.996      858.880
07/09/2014  17:31:00     -185.059      -26.147       35.823      257.370      147.950       89.315    66239.375    21889.178     7977.123        6.614        4.805      186.897      126.119        0.455      351.158       32.855      858.850
07/09/2014  17:32:00     -247.502     -158.020       -5.759      166.963      170.833       77.865    27876.784    29183.902     6062.964        7.468        3.156      293.646       84.627        0.083      351.152       32.843      858.876
07/09/2014  17:33:00     -230.867      -52.702       -3.502      145.893      143.520       72.605    21284.637    20598.128     5271.522        5.161        2.358      236.806       77.779        0.108      351.283       33.070      858.875
07/09/2014  17:34:00     -140.434      -80.019        1.563      132.972      123.330       57.695    17681.497    15210.256     3328.758        3.117        1.811      161.631       48.814        0.091      351.340       33.170      858.908
07/09/2014  17:35:00     -329.538     -191.526       -3.301      186.035      115.274       81.786    34609.193    13288.180     6688.954        9.993        2.729      381.153       88.694        0.054      351.213       32.947      858.909
07/09/2014  17:36:00     -409.003     -248.055      -38.014      231.202      177.170       88.355    53454.315    31389.326     7806.519       16.144        4.633      478.345       87.320        0.033      351.059       32.678      858.916
07/09/2014  17:37:00     -381.175     -227.369      -27.332      138.362      128.219       69.573    19144.169    16440.227     4840.388       11.907        2.021      443.837       66.006        0.022      351.004       32.584      858.913
07/09/2014  17:38:00     -241.639      -75.294        1.850      130.964      122.139       67.150    17151.640    14917.956     4509.093        5.031        1.829      253.098       69.587        0.076      351.182       32.894      858.897
07/09/2014  17:39:00     -422.506      -80.500      -34.399      161.891      130.455       69.071    26208.717    17018.412     4770.779       11.708        2.400      430.107       62.876        0.021      351.166       32.865      858.902
07/09/2014  17:40:00     -370.625     -114.336      -31.367      190.650      140.688       71.347    36347.366    19793.003     5090.450       10.632        3.062      387.861       86.358        0.050      351.147       32.832      858.873
07/09/2014  17:41:00     -393.557     -177.277       -3.107      153.303      130.773       74.918    23501.777    17101.648     5612.670       11.626        2.311      431.641       74.131        0.029      351.129       32.801      858.863
07/09/2014  17:42:00     -331.261     -213.481       -2.946      197.383       94.771       80.231    38959.917     8981.545     6436.957       10.484        2.719      394.091       83.345        0.045      350.994       32.567      858.895
07/09/2014  17:43:00     -247.229     -147.972        2.081      130.670       92.444       63.822    17074.616     8545.945     4073.192        5.635        1.485      288.128       55.712        0.037      351.041       32.648      858.868
07/09/2014  17:44:00     -249.247     -191.028      -10.032      151.196      110.056       51.505    22860.321    12112.395     2652.751        6.816        1.881      314.031       45.261        0.021      351.050       32.663      858.847
07/09/2014  17:45:00     -385.997     -220.623      -30.406      200.822      160.471      106.042    40329.599    25751.062    11244.942       13.795        3.866      444.599      108.170        0.059      351.040       32.647      858.815
07/09/2014  17:46:00     -468.374     -130.497      -14.183      191.270      160.109       92.378    36584.391    25634.772     8533.745       15.367        3.538      486.214       99.002        0.041      351.016       32.605      858.810
07/09/2014  17:47:00     -261.788     -142.412        0.886      164.685      128.471       69.683    27121.010    16504.888     4855.658        6.864        2.424      298.017       87.008        0.085      351.162       32.861      858.824
07/09/2014  17:48:00     -297.170     -178.747        6.509      182.290      134.690       71.950    33229.746    18141.442     5176.750        8.842        2.827      346.785       80.462        0.054      351.084       32.723      858.825
07/09/2014  17:49:00     -318.884     -174.249       14.008      204.062      189.834       81.118    41641.444    36036.985     6580.086       10.824        4.213      363.387      106.096        0.085      351.064       32.691      858.832
07/09/2014  17:50:00     -354.662     -179.595      -15.983      134.327       95.034       64.517    18043.861     9031.496     4162.453        9.476        1.562      397.542       59.438        0.022      350.897       32.398      858.838
07/09/2014  17:51:00     -242.942     -103.838      -10.441      135.279       82.688       57.851    18300.500     6837.360     3346.759        4.919        1.424      264.202       62.829        0.057      350.876       32.360      858.828
07/09/2014  17:52:00      -93.690      -38.377       37.526      132.343      127.050       74.982    17514.610    16141.608     5622.357        2.546        1.964      101.245       82.098        0.658      351.112       32.775      858.837
07/09/2014  17:53:00     -304.815      -75.270        1.086      183.648      159.104       82.319    33726.449    25314.238     6776.354        8.219        3.291      313.971       90.924        0.084      351.062       32.685      858.825
07/09/2014  17:54:00     -417.206     -107.471      -27.403      196.863      144.327       63.456    38755.177    20830.144     4026.658       12.498        3.181      430.826       80.872        0.035      351.044       32.653      858.824
07/09/2014  17:55:00     -284.011     -215.672        4.032      212.983      168.247       92.653    45361.963    28307.099     8584.624       10.471        4.113      356.619      104.599        0.086      350.997       32.572      858.814
07/09/2014  17:56:00     -289.465     -126.018       11.196      195.641      143.315       83.234    38275.302    20539.314     6927.966        8.276        3.287      315.707      102.039        0.104      351.010       32.595      858.811
07/09/2014  17:57:00     -429.496     -205.109        9.342      255.836      173.370       89.026    65451.819    30057.159     7925.658       16.501        5.172      475.959      112.299        0.056      350.830       32.283      858.797
07/09/2014  17:58:00     -518.312     -265.497      -16.974      180.039      149.310       91.480    32413.893    22293.527     8368.610       20.124        3.154      582.354       94.290        0.026      350.762       32.166      858.787
07/09/2014  17:59:00     -273.178     -143.156       -0.592      214.130      159.912       73.680    45851.713    25571.750     5428.794        8.597        3.843      308.415       69.032        0.050      350.919       32.437      858.812
07/09/2014  18:00:00     -323.303      -18.288      -10.518      254.996      101.810       81.161    65022.887    10365.368     6587.184        9.346        4.099      323.820      100.925        0.097      351.017       32.608      858.807
07/09/2014  18:01:00     -540.644     -111.590      -17.595      256.395      176.591      101.450    65738.491    31184.396    10292.053       20.612        5.361      552.040      118.501        0.046      350.795       32.221      858.805
07/09/2014  18:02:00     -329.276      -45.755        9.328      231.118      116.779       69.972    53415.379    13637.433     4896.099        9.126        3.597      332.440       86.443        0.068      350.887       32.382      858.819
07/09/2014  18:03:00     -205.866      -94.525       18.633      156.347      105.814       65.272    24444.287    11196.665     4260.455        4.578        1.995      226.530       71.563        0.100      350.973       32.533      858.871
07/09/2014  18:04:00     -286.706     -141.867       -4.334      169.407      147.776       72.510    28698.717    21837.705     5257.688        7.906        2.790      319.885       74.066        0.054      350.873       32.356      858.854
07/09/2014  18:05:00     -221.944      -66.440        8.405      160.278      116.687       78.769    25688.988    13615.872     6204.488        4.962        2.275      231.676       83.324        0.129      350.981       32.546      858.863
07/09/2014  18:06:00     -332.452     -189.681      -15.757      168.830      116.384       73.615    28503.576    13545.201     5419.159        9.710        2.373      382.758       80.557        0.044      350.837       32.294      858.869
07/09/2014  18:07:00     -305.182     -208.276       -4.541      160.344      150.862       94.740    25710.093    22759.270     8975.748        9.698        2.872      369.479       93.937        0.065      350.838       32.296      858.867
07/09/2014  18:08:00     -181.481      -89.919        8.079      124.680       96.625       66.200    15545.018     9336.467     4382.399        3.517        1.463      202.536       76.631        0.143      350.922       32.443      858.869
07/09/2014  18:09:00     -321.927      -46.804       -5.874      232.742      160.807       79.745    54169.048    25858.835     6359.252        9.611        4.319      325.311       92.951        0.082      350.892       32.391      858.880
07/09/2014  18:10:00     -395.362       -1.372      -25.167      145.596      151.518       66.563    21198.274    22957.831     4430.667       10.276        2.429      395.364       65.241        0.027      350.907       32.415      858.866
07/09/2014  18:11:00     -338.059      -78.649      -10.691      144.259      100.525       62.657    20810.586    10105.358     3925.913        7.771        1.742      347.087       54.686        0.025      350.944       32.482      858.870
07/09/2014  18:12:00     -409.635     -140.426      -15.302      174.876      142.251       74.525    30581.746    20235.367     5553.921       12.205        2.819      433.037       88.362        0.042      350.750       32.141      858.864
07/09/2014  18:13:00     -422.060      -57.646      -29.741      181.870      134.168       77.629    33076.806    18001.121     6026.201       11.971        2.855      425.979       86.007        0.041      350.804       32.236      858.829
07/09/2014  18:14:00     -283.299      -48.796        0.682      142.317      135.152       70.069    20254.022    18266.184     4909.608        6.303        2.171      287.470       60.456        0.044      350.982       32.545      858.849
07/09/2014  18:15:00     -353.759     -269.910       -1.291      211.364      198.294       87.089    44674.821    39320.478     7584.418       14.477        4.579      444.968      106.396        0.057      350.802       32.233      858.864
07/09/2014  18:16:00     -330.672     -196.711        0.383      133.519      131.129       80.373    17827.327    17194.750     6459.751        9.475        2.074      384.759       64.365        0.028      350.809       32.244      858.855
07/09/2014  18:17:00     -391.701     -152.903      -21.364      157.030      153.352       77.690    24658.484    23516.889     6035.813       11.573        2.711      420.487       81.386        0.037      350.866       32.344      858.872
07/09/2014  18:18:00     -293.983     -102.251      -12.950      151.232      125.234       71.384    22871.166    15683.457     5095.713        7.034        2.183      311.257       74.683        0.058      350.854       32.324      858.878
07/09/2014  18:19:00     -321.552     -210.794       -3.400      226.028      163.273       73.558    51088.753    26658.194     5410.798       11.549        4.158      384.487       87.921        0.052      350.708       32.069      858.870
07/09/2014  18:20:00     -311.671     -134.614       -2.726      203.612      175.170       78.887    41458.026    30684.438     6223.226        9.680        3.918      339.499       91.235        0.072      350.783       32.200      858.858
07/09/2014  18:21:00     -170.646     -140.783       -4.316      154.411      120.044       61.625    23842.712    14410.617     3797.689        4.550        2.103      221.224       67.381        0.093      350.917       32.435      858.873
07/09/2014  18:22:00     -257.910     -238.251       -4.114      173.382      147.310       93.971    30061.276    21700.375     8830.464        9.193        3.030      351.114      101.650        0.084      350.790       32.213      858.870
07/09/2014  18:23:00     -337.771     -247.741       -7.506      200.386      135.347       95.340    40154.505    18318.689     9089.799       12.153        3.378      418.885      104.086        0.062      350.769       32.175      858.887
07/09/2014  18:24:00     -271.838     -121.330        3.635      238.862      177.541       94.928    57054.833    31520.675     9011.401        9.309        4.879      297.686      114.245        0.147      350.767       32.173      858.891
07/09/2014  18:25:00     -423.066     -175.327      -23.281      142.486      163.429       73.011    20302.162    26709.048     5330.633       13.130        2.617      457.957       67.758        0.022      350.721       32.092      858.910
07/09/2014  18:26:00     -286.134      -93.911       -8.086      186.707      124.259       70.633    34859.550    15440.235     4989.025        7.301        2.764      301.151       83.691        0.077      350.769       32.176      858.927
07/09/2014  18:27:00     -235.804     -139.780       13.963      170.971      143.987       76.360    29231.002    20732.162     5830.789        6.556        2.790      274.121       79.827        0.085      350.823       32.271      858.940
07/09/2014  18:28:00     -169.008     -139.752       -4.904      156.328      131.175       80.503    24438.510    17206.784     6480.765        4.811        2.406      219.304       89.089        0.165      350.775       32.187      858.937
07/09/2014  18:29:00     -260.740     -187.414       17.256      172.841      151.322       82.564    29874.168    22898.352     6816.786        8.149        2.979      321.107       85.786        0.071      350.709       32.071      858.948
07/09/2014  18:30:00     -501.784     -193.174      -31.719      257.165      183.290      108.992    66133.699    33595.173    11879.309       20.084        5.580      537.683      129.260        0.058      350.620       31.915      858.965
07/09/2014  18:31:00     -446.366      -96.814      -18.050      210.749      178.178      104.888    44415.182    31747.546    11001.388       14.804        4.358      456.745      109.962        0.058      350.587       31.858      858.978
07/09/2014  18:32:00     -366.051      -66.561       -4.923      216.452      134.628       81.603    46851.668    18124.672     6659.083       10.503        3.582      372.053       96.441        0.067      350.637       31.946      858.968
07/09/2014  18:33:00     -292.036     -142.277       -3.153      130.966      146.247       65.356    17152.177    21388.255     4271.463        7.417        2.141      324.851       54.980        0.029      350.650       31.967      858.960
07/09/2014  18:34:00     -284.961     -167.810       -2.269      161.796      133.933       73.134    26177.815    17937.957     5348.547        7.941        2.473      330.701       81.805        0.061      350.661       31.988      858.968
07/09/2014  18:35:00     -432.177     -124.591       -6.808      149.055      100.098       67.633    22217.406    10019.564     4574.274       11.957        1.841      449.778       76.802        0.029      350.644       31.958      858.979
07/09/2014  18:36:00     -257.822      -84.910        5.028      150.498      102.748       69.551    22649.707    10557.063     4837.278        5.587        1.902      271.444       71.903        0.070      350.691       32.040      858.972
07/09/2014  18:37:00     -174.304     -119.847       -0.231      156.609      114.873       71.911    24526.395    13195.745     5171.166        4.381        2.145      211.530       84.882        0.161      350.678       32.017      858.960
07/09/2014  18:38:00     -254.120      -96.748        0.680      201.794      106.573       55.627    40721.002    11357.802     3094.365        6.455        2.759      271.914       64.975        0.057      350.696       32.048      858.963
07/09/2014  18:39:00     -398.260      -66.513      -22.595      232.775      143.594       72.277    54184.081    20619.237     5223.953       12.177        4.001      403.776       78.492        0.038      350.615       31.907      858.987
07/09/2014  18:40:00     -452.003     -207.901      -23.236      216.846      154.381       87.216    47022.117    23833.366     7606.615       16.325        3.923      497.523       99.764        0.040      350.575       31.835      858.987
07/09/2014  18:41:00     -190.888     -143.978       16.614      190.366      141.853       74.929    36239.120    20122.256     5614.425        5.970        3.099      239.098       99.915        0.175      350.597       31.876      858.993
07/09/2014  18:42:00     -341.910     -107.576      -11.515      195.894      163.956       84.326    38374.361    26881.428     7110.941       10.048        3.618      358.434       87.942        0.060      350.653       31.974      858.981
07/09/2014  18:43:00     -423.735      -90.383       -5.250      190.839      146.967       85.657    36419.550    21599.404     7337.115       12.654        3.268      433.267       88.704        0.042      350.541       31.776      859.032
07/09/2014  18:44:00     -262.662      -76.569        3.302      227.243      160.845       86.131    51639.161    25871.038     7418.580        7.988        4.246      273.595      108.539        0.157      350.520       31.742      859.032
07/09/2014  18:45:00     -353.447     -195.796      -14.156      185.845      200.455      104.519    34538.518    40182.319    10924.233       12.454        4.282      404.055      111.832        0.077      350.518       31.736      859.037
07/09/2014  18:46:00     -296.262      -96.504        2.336      235.186      191.370      104.768    55312.272    36622.398    10976.292        9.998        5.146      311.583      103.131        0.110      350.503       31.713      859.025
07/09/2014  18:47:00     -376.794     -119.870      -27.045      206.494      176.378       92.143    42639.733    31109.369     8490.413       11.964        4.112      395.401       95.177        0.058      350.453       31.624      859.055
07/09/2014  18:48:00     -393.064     -137.954      -30.473      186.959      142.446       83.782    34953.603    20290.851     7019.407       11.835        3.113      416.570       70.341        0.029      350.482       31.674      859.057
07/09/2014  18:49:00     -444.355      -66.691       -4.359      223.485      166.673       73.378    49945.406    27779.988     5384.332       14.250        4.155      449.332       86.751        0.037      350.475       31.663      859.074
07/09/2014  18:50:00     -407.643     -134.911      -32.147      217.957      210.957       90.124    47505.374    44502.753     8122.288       14.275        5.007      429.388      107.921        0.063      350.440       31.603      859.071
07/09/2014  18:51:00     -434.830      -85.917       -2.422      236.310      137.690       86.507    55842.363    18958.440     7483.474       13.936        4.114      443.236      109.740        0.061      350.408       31.548      859.072
07/09/2014  18:52:00     -333.065      -35.529      -13.841      169.307      128.458       77.408    28664.927    16501.464     5992.021        8.176        2.558      334.954       87.934        0.069      350.455       31.630      859.073
07/09/2014  18:53:00     -365.856      -98.308      -14.924      135.375      114.877       63.769    18326.419    13196.833     4066.506        8.966        1.779      378.834       63.646        0.028      350.464       31.644      859.097
07/09/2014  18:54:00     -485.001       19.585      -27.823      170.641      164.681       74.473    29118.236    27119.983     5546.280       14.907        3.089      485.396       77.167        0.025      350.417       31.564      859.106
07/09/2014  18:55:00     -299.452     -117.001        1.230      137.313      127.134       72.372    18854.724    16163.035     5237.772        7.180        2.013      321.497       64.365        0.040      350.477       31.666      859.125
07/09/2014  18:56:00     -424.953     -116.756      -24.456      192.146      152.226       78.603    36920.084    23172.736     6178.419       13.053        3.314      440.701       90.128        0.042      350.451       31.622      859.134
07/09/2014  18:57:00     -299.964     -156.181      -18.835      128.632      122.899       76.400    16546.265    15104.279     5836.952        7.610        1.874      338.188       61.520        0.033      350.466       31.646      859.152
07/09/2014  18:58:00     -368.950      -82.460      -34.591      144.098       81.679       54.387    20764.309     6671.539     2957.968        8.725        1.520      378.053       51.504        0.019      350.457       31.631      859.172
07/09/2014  18:59:00     -338.776      -39.633      -22.527      167.642      105.896       74.182    28103.705    11213.963     5502.933        8.083        2.241      341.087       79.616        0.054      350.463       31.642      859.156
07/09/2014  19:00:00     -172.776      -50.029        7.172      153.406      117.292       63.268    23533.351    13757.335     4002.800        3.684        2.065      179.873       73.982        0.169      350.416       31.564      859.157
07/09/2014  19:01:00     -332.451        3.178      -14.496      150.692      115.049       61.475    22708.088    13236.169     3779.181        7.523        1.986      332.466       68.935        0.043      350.422       31.571      859.165
07/09/2014  19:02:00     -317.272      -51.964       -3.479      194.825      113.731       65.080    37956.744    12934.646     4235.457        7.924        2.756      321.499       87.077        0.073      350.370       31.484      859.160
07/09/2014  19:03:00     -365.755      -51.918      -19.536      157.044      118.742       67.363    24662.709    14099.733     4537.737        9.007        2.165      369.421       69.893        0.036      350.401       31.536      859.175
07/09/2014  19:04:00     -335.877      -57.899      -28.449      139.618      127.180       50.639    19493.183    16174.668     2564.266        7.760        1.912      340.830       35.417        0.011      350.397       31.528      859.192
07/09/2014  19:05:00     -326.419     -153.276       -4.197      173.775      149.106       91.950    30197.592    22232.674     8454.726        9.546        3.044      360.615       88.335        0.060      350.323       31.402      859.193
07/09/2014  19:06:00     -187.369     -119.718       21.146      189.459      132.617       81.302    35894.692    17587.393     6610.061        5.498        3.005      222.350      105.191        0.224      350.346       31.441      859.205
07/09/2014  19:07:00     -249.910     -169.380        4.966      206.834      121.996       75.251    42780.404    14882.910     5662.787        7.724        3.166      301.902       65.925        0.048      350.285       31.334      859.199
07/09/2014  19:08:00     -265.905      -64.985      -17.136      139.488       98.145       59.111    19456.916     9632.499     3494.145        5.390        1.629      273.730       61.180        0.050      350.319       31.393      859.216
07/09/2014  19:09:00     -287.946      -30.161        3.180      160.825      118.418       75.668    25864.819    14022.907     5725.702        6.472        2.281      289.521       86.872        0.090      350.320       31.395      859.238
07/09/2014  19:10:00     -395.327      -80.364        0.246      248.689      161.220       92.299    61846.183    25991.809     8519.045       12.953        4.818      403.413      114.305        0.080      350.235       31.246      859.221
07/09/2014  19:11:00     -341.842     -108.838       -2.483      181.260      155.774       76.950    32855.357    24265.510     5921.256        9.586        3.152      358.750       83.471        0.054      350.230       31.238      859.248
07/09/2014  19:12:00     -446.957     -206.216      -22.971      212.631      143.374       86.176    45211.750    20556.080     7426.328       15.800        3.660      492.235       95.622        0.038      350.206       31.195      859.220
07/09/2014  19:13:00     -364.143     -195.083      -18.148      180.641      191.260       80.921    32631.081    36580.264     6548.232       12.336        3.788      413.107       92.058        0.050      350.210       31.202      859.228
07/09/2014  19:14:00     -319.952     -201.060       -0.673      267.446      146.880       95.960    71527.546    21573.836     9208.255       12.253        5.115      377.881      114.113        0.091      350.212       31.205      859.228
07/09/2014  19:15:00     -251.578      -25.743       -5.763      156.743      114.296       65.055    24568.418    13063.628     4232.131        5.292        2.093      252.892       81.921        0.105      350.227       31.232      859.268
07/09/2014  19:16:00     -221.504     -139.576       -9.050      161.206      125.481       83.270    25987.520    15745.410     6933.955        5.864        2.433      261.812       89.687        0.117      350.261       31.293      859.278
07/09/2014  19:17:00     -329.743     -158.910       10.727      228.353      155.183       97.975    52144.897    24081.651     9599.102       10.995        4.291      366.036      120.528        0.108      350.156       31.109      859.288
07/09/2014  19:18:00     -480.554      -24.821      -34.098      243.404      137.329       95.671    59245.607    18859.219     9152.848       15.997        4.363      481.194      117.397        0.060      350.176       31.144      859.300
07/09/2014  19:19:00     -471.565      -72.624      -13.717      235.579      156.036       88.843    55497.537    24347.088     7893.118       15.777        4.387      477.125      103.101        0.047      350.146       31.091      859.309
07/09/2014  19:20:00     -450.616      -98.282      -27.867      216.956      154.103       90.356    47070.061    23747.718     8164.153       14.622        3.949      461.209       99.585        0.047      350.067       30.952      859.303
07/09/2014  19:21:00     -198.754      -33.643       13.647      139.230      144.866       79.383    19384.992    20986.135     6301.722        4.374        2.334      201.582       84.860        0.177      350.140       31.081      859.304
07/09/2014  19:22:00     -182.143      -17.722       11.408      166.997      125.116       82.882    27888.055    15654.071     6869.507        4.201        2.521      183.003       91.766        0.251      350.134       31.071      859.328
07/09/2014  19:23:00     -221.269      -80.141       16.853      175.046      139.859       67.175    30641.042    19560.518     4512.535        5.518        2.736      235.335       69.605        0.087      350.123       31.052      859.327
07/09/2014  19:24:00     -383.456     -119.982      -13.222      208.613      189.748      106.539    43519.589    36004.321    11350.552       12.623        4.544      401.788      108.428        0.073      350.071       30.962      859.327
07/09/2014  19:25:00     -389.148     -233.393      -11.414      229.435      213.891       92.785    52640.404    45749.497     8609.079       15.650        5.350      453.771      114.365        0.064      350.045       30.914      859.326
07/09/2014  19:26:00     -444.276     -102.094      -17.921      214.266      131.455       83.888    45909.958    17280.461     7037.201       13.916        3.511      455.855       94.098        0.043      350.025       30.881      859.353
07/09/2014  19:27:00     -380.118      -88.924       -5.781      213.125      173.279       93.233    45422.475    30025.452     8692.327       11.827        4.207      390.381      100.800        0.067      350.027       30.886      859.346
07/09/2014  19:28:00     -370.131      -78.626       -3.418      174.014      127.838       74.761    30280.971    16342.644     5589.213        9.769        2.611      378.390       77.852        0.042      350.027       30.884      859.386
07/09/2014  19:29:00     -319.044      -62.888       -9.350      175.897      137.790       79.405    30939.696    18986.189     6305.098        8.102        2.812      325.183       86.177        0.070      349.979       30.802      859.368
07/09/2014  19:30:00     -327.082     -136.804      -13.698      191.396      133.947       71.503    36632.338    17941.732     5112.656        9.278        2.984      354.540       66.457        0.035      349.979       30.805      859.355
07/09/2014  19:31:00     -302.839      -23.764       -8.038      140.671      108.671       58.134    19788.468    11809.310     3379.617        6.365        1.749      303.770       58.361        0.037      350.000       30.840      859.382
07/09/2014  19:32:00     -170.781      -54.280        0.866      124.325       94.535       62.260    15456.694     8936.906     3876.255        3.019        1.413      179.200       43.292        0.058      350.031       30.893      859.372
07/09/2014  19:33:00     -408.744      -38.074      -29.406      170.340      139.966       68.164    29015.576    19590.488     4646.276       11.131        2.663      410.513       73.216        0.032      349.996       30.831      859.382
07/09/2014  19:34:00     -287.740      -38.172       -4.142      179.288      145.148       76.553    32144.255    21068.005     5860.305        7.166        2.954      290.261       83.312        0.082      349.973       30.791      859.373
07/09/2014  19:35:00     -523.277      -64.322      -26.519      152.654      131.372       74.203    23303.314    17258.545     5506.064       16.236        2.303      527.215       73.498        0.019      349.954       30.759      859.382
07/09/2014  19:36:00     -470.376     -139.390      -23.532      182.983      135.987       71.816    33482.814    18492.568     5157.493       14.918        2.857      490.594       77.545        0.025      349.929       30.715      859.377
07/09/2014  19:37:00     -425.291       14.923      -37.390      137.307      117.915       71.949    18853.091    13904.065     5176.688       11.021        1.897      425.553       72.355        0.029      349.932       30.720      859.376
07/09/2014  19:38:00     -581.430      -30.398      -43.872      199.625      197.082       98.550    39850.217    38841.195     9712.115       21.464        4.420      582.224       89.970        0.024      349.878       30.628      859.381
07/09/2014  19:39:00     -435.969      -24.457      -11.287      218.228      154.694       98.597    47623.528    23930.254     9721.410       13.602        4.064      436.655      114.404        0.069      349.878       30.627      859.378
07/09/2014  19:40:00     -179.443       -5.246       18.727      215.684      136.445       80.708    46519.601    18617.201     6513.855        5.210        3.583      179.519       94.554        0.277      349.822       30.530      859.387
07/09/2014  19:41:00     -447.124     -111.189      -23.667      221.272      152.017       91.103    48961.497    23109.202     8299.796       14.659        4.019      460.742       95.108        0.043      349.837       30.554      859.384
07/09/2014  19:42:00     -277.354      -53.978        1.537      151.358      131.705       72.154    22909.197    17346.215     5206.251        6.264        2.273      282.558       83.440        0.087      349.827       30.536      859.400
07/09/2014  19:43:00     -186.415      -73.846      -13.333      168.043      108.928       68.301    28238.600    11865.250     4664.970        4.257        2.238      200.509       64.979        0.105      349.840       30.562      859.409
07/09/2014  19:44:00     -351.730     -105.670      -15.092      222.311      166.209       87.692    49422.181    27625.412     7689.900       10.991        4.237      367.260       96.779        0.069      349.796       30.484      859.406
07/09/2014  19:45:00     -293.272      -82.449      -16.884      207.020      110.121       89.522    42857.487    12126.703     8014.137        7.803        3.150      304.641      104.163        0.117      349.835       30.551      859.393
07/09/2014  19:46:00     -205.825      -61.521        3.725      133.095      132.748       72.341    17714.198    17621.912     5233.197        4.336        2.028      214.823       70.263        0.107      349.825       30.532      859.428
07/09/2014  19:47:00     -189.940      -84.321       -1.418      181.348      108.716       63.856    32887.198    11819.155     4077.550        4.598        2.439      207.815       80.888        0.152      349.804       30.499      859.435
07/09/2014  19:48:00     -201.667      -50.007        1.637      142.022      109.013       69.602    20170.300    11883.797     4844.397        4.003        1.845      207.775       67.074        0.104      349.794       30.481      859.442
07/09/2014  19:49:00     -372.404       31.446       -1.284      180.017      136.371       85.121    32406.040    18597.172     7245.649        9.895        2.912      373.729       88.297        0.056      349.774       30.445      859.421
07/09/2014  19:50:00     -331.938      -98.964       -9.368      175.416      142.762       86.112    30770.914    20381.075     7415.324        8.931        2.928      346.376       90.019        0.068      349.746       30.395      859.434
07/09/2014  19:51:00     -287.879     -124.213        6.693      136.988      135.468       74.136    18765.832    18351.618     5496.147        7.047        2.131      313.534       74.030        0.056      349.718       30.345      859.451
07/09/2014  19:52:00     -217.407      -73.659       -2.428      187.627      131.329       88.015    35203.999    17247.430     7746.612        5.644        3.010      229.546       93.072        0.164      349.695       30.307      859.454
07/09/2014  19:53:00     -297.780      -96.182       16.256      222.885      159.055       94.175    49677.661    25298.545     8868.870        9.100        4.192      312.928      111.555        0.127      349.710       30.334      859.452
07/09/2014  19:54:00     -238.913      -77.774       14.601      168.161      135.607       81.591    28278.284    18389.192     6657.114        5.832        2.666      251.253       87.307        0.121      349.659       30.245      859.446
07/09/2014  19:55:00     -258.222      -91.201       -1.062      201.557      193.563       94.675    40625.399    37466.545     8963.339        8.101        4.353      273.854      123.367        0.203      349.680       30.282      859.433
07/09/2014  19:56:00     -345.007     -166.283      -31.166      154.361      138.838       81.100    23827.367    19275.887     6577.164        9.866        2.484      382.988       82.326        0.046      349.629       30.193      859.427
07/09/2014  19:57:00     -365.804      -50.326       -8.253      161.069      113.696       68.966    25943.162    12926.880     4756.339        9.001        2.181      369.249       77.312        0.044      349.617       30.173      859.427
07/09/2014  19:58:00     -139.314     -163.075       16.035      160.976      176.808       84.308    25913.412    31261.142     7107.900        5.526        3.214      214.480       80.043        0.139      349.588       30.124      859.418
07/09/2014  19:59:00     -290.927     -167.406       -2.179      166.891      143.465       85.671    27852.487    20582.314     7339.552        8.421        2.789      335.653       94.718        0.080      349.600       30.145      859.413
07/09/2014  20:00:00     -442.317     -208.864      -23.734      182.263      155.761       85.334    33219.674    24261.479     7281.820       15.229        3.238      489.150       73.354        0.022      349.586       30.120      859.424
07/09/2014  20:01:00     -300.935     -178.883       -1.366      206.338      206.626      103.852    42575.225    42694.252    10785.261       10.929        4.803      350.088       98.121        0.079      349.541       30.042      859.390
07/09/2014  20:02:00     -276.894     -196.028       10.210      216.877      179.183      112.554    47035.616    32106.420    12668.317       10.349        4.591      339.260      106.377        0.098      349.528       30.020      859.401
07/09/2014  20:03:00     -407.078     -100.532      -27.596      192.202      146.277       79.659    36941.782    21396.917     6345.586       12.062        3.234      419.308      103.536        0.061      349.544       30.046      859.421
07/09/2014  20:04:00     -322.619     -100.979      -17.747      204.869      117.240       66.324    41971.266    13745.143     4398.898        8.734        3.006      338.053       72.726        0.046      349.512       29.991      859.448
07/09/2014  20:05:00     -318.466     -114.648       -9.061      229.285      131.063       92.631    52571.543    17177.380     8580.583        9.648        3.916      338.474      108.827        0.103      349.496       29.964      859.438
07/09/2014  20:06:00     -315.048     -126.125       -0.595      165.168      105.831       73.527    27280.364    11200.272     5406.272        7.952        2.194      339.356       73.843        0.047      349.503       29.976      859.448
07/09/2014  20:07:00     -212.270      -95.093        5.330      159.903      126.117       78.561    25569.051    15905.381     6171.897        5.088        2.382      232.597       69.053        0.088      349.456       29.893      859.461
07/09/2014  20:08:00     -226.091     -100.093       10.840      132.727      122.123       70.015    17616.325    14913.907     4902.160        4.934        1.872      247.257       69.316        0.079      349.453       29.888      859.489
07/09/2014  20:09:00     -262.608      -57.827       -0.429      170.130      114.068       68.204    28944.330    13011.591     4651.817        5.945        2.330      268.900       70.290        0.068      349.435       29.858      859.494
07/09/2014  20:10:00     -302.971     -166.926      -16.341      157.535       96.393       71.517    24817.385     9291.562     5114.703        7.957        1.961      345.913       66.774        0.037      349.435       29.858      859.503
07/09/2014  20:11:00     -276.057      -22.086       -8.716      181.112      118.545       75.804    32801.457    14052.921     5746.206        6.468        2.630      276.939       79.271        0.082      349.403       29.802      859.517
07/09/2014  20:12:00     -357.890     -123.652      -19.908      190.970      161.173       73.757    36469.572    25976.653     5440.038       10.582        3.394      378.649       76.199        0.040      349.398       29.793      859.512
07/09/2014  20:13:00     -392.361     -230.910      -14.769      193.596      158.558      109.279    37479.259    25140.530    11941.975       14.101        3.728      455.266      110.892        0.059      349.387       29.773      859.510
07/09/2014  20:14:00     -362.796     -191.345       -2.873      235.626      150.265       92.436    55519.812    22579.600     8544.473       12.743        4.332      410.163      106.705        0.068      349.364       29.733      859.518
07/09/2014  20:15:00     -288.871     -188.356       -9.548      186.961      147.123       81.031    34954.316    21645.310     6566.031        9.108        3.158      344.855       83.475        0.059      349.378       29.759      859.511
07/09/2014  20:16:00     -255.046     -158.912        3.616      180.494      152.706       73.965    32578.148    23319.033     5470.827        7.583        3.068      300.502       78.853        0.069      349.341       29.694      859.524
07/09/2014  20:17:00     -111.291      -94.008       22.876      156.558      112.918       66.040    24510.278    12750.399     4361.345        3.168        2.081      145.682       74.296        0.260      349.295       29.615      859.530
07/09/2014  20:18:00     -364.000     -257.340       -4.350      252.262      163.181       96.787    63636.302    26628.101     9367.629       14.917        4.982      445.780      126.805        0.081      349.321       29.659      859.520
07/09/2014  20:19:00     -469.205     -240.904      -13.640      164.747      171.527       76.919    27141.567    29421.666     5916.594       17.042        3.124      527.435       79.224        0.023      349.327       29.671      859.503
07/09/2014  20:20:00     -321.766     -186.925       -4.650      176.453      143.937       77.998    31135.780    20717.837     6083.657        9.821        2.897      372.121       89.027        0.057      349.298       29.620      859.520
07/09/2014  20:21:00     -397.682     -211.528       -8.656      244.952      152.805       90.960    60001.240    23349.494     8273.672       14.728        4.581      450.439      107.906        0.057      349.266       29.565      859.526
07/09/2014  20:22:00     -315.205      -79.525       -6.715      237.801      156.513       87.380    56549.448    24496.226     7635.186        9.719        4.434      325.082      111.913        0.119      349.238       29.517      859.552
07/09/2014  20:23:00     -302.748      -76.634       -5.731      156.922      113.208       73.951    24624.431    12816.069     5468.739        7.023        2.145      312.296       57.468        0.034      349.223       29.491      859.563
07/09/2014  20:24:00     -276.578      -88.593        5.743      188.011      165.795       78.190    35348.145    27487.841     6113.666        7.665        3.447      290.420       84.551        0.085      349.199       29.449      859.576
07/09/2014  20:25:00     -412.578     -253.093       -7.492      254.644      172.994      103.891    64843.395    29926.837    10793.436       16.993        5.278      484.022      121.044        0.063      349.178       29.413      859.564
07/09/2014  20:26:00     -319.306     -183.043      -13.388      164.988      131.312       88.052    27221.169    17242.893     7753.197        9.392        2.611      368.050       95.609        0.067      349.155       29.372      859.568
07/09/2014  20:27:00     -299.369     -127.668       -1.593      152.095      102.917       72.164    23132.834    10591.920     5207.633        7.242        1.947      325.455       78.327        0.058      349.112       29.297      859.585
07/09/2014  20:28:00     -265.727      -32.397       14.033      162.406      123.822       72.688    26375.643    15331.953     5283.581        5.942        2.350      267.694       80.324        0.090      349.086       29.253      859.591
07/09/2014  20:29:00     -405.079     -157.362      -14.885      158.497      145.177       72.779    25121.192    21076.366     5296.713       12.028        2.575      434.571       71.381        0.027      349.112       29.296      859.592
07/09/2014  20:30:00     -184.280     -105.862       14.865      187.029      165.238       81.253    34979.708    27303.511     6602.063        5.712        3.444      212.522       87.038        0.168      349.051       29.193      859.596
07/09/2014  20:31:00     -260.874     -129.393       -2.389      170.742      124.219       75.365    29152.955    15430.307     5679.824        6.752        2.513      291.201       81.565        0.078      349.048       29.187      859.610
07/09/2014  20:32:00     -351.843     -195.976      -27.461      186.811      152.902       93.811    34898.174    23379.126     8800.521       11.500        3.354      402.741       84.925        0.044      349.061       29.210      859.623
07/09/2014  20:33:00     -254.193      -63.743       -2.913      136.925      107.765       67.757    18748.568    11613.286     4591.063        5.181        1.748      262.064       66.071        0.064      349.040       29.173      859.636
07/09/2014  20:34:00     -383.939     -141.056       -5.671      166.641      171.782       85.913    27769.380    29508.956     7381.044       11.599        3.233      409.030       91.691        0.050      349.036       29.165      859.633
07/09/2014  20:35:00     -422.365     -202.294      -16.250      202.201      157.306       82.751    40885.105    24745.198     6847.789       14.602        3.624      468.311       92.808        0.039      349.032       29.159      859.624
07/09/2014  20:36:00     -393.113      -99.596       -3.255      180.734      138.103       84.804    32664.750    19072.548     7191.690       11.169        2.946      405.533       88.322        0.047      348.995       29.095      859.633
07/09/2014  20:37:00     -449.848     -144.714      -17.502      143.572      184.970       87.613    20612.887    34213.888     7676.088       14.305        3.125      472.552       59.439        0.016      349.000       29.105      859.623
07/09/2014  20:38:00     -289.915     -177.363       -3.735      138.707      125.188       64.443    19239.555    15671.925     4152.939        7.729        1.953      339.865       56.071        0.027      348.985       29.077      859.623
07/09/2014  20:39:00     -224.558     -127.022       -2.281      122.581      116.714       66.859    15026.016    13622.266     4470.062        4.984        1.656      257.994       60.084        0.054      348.934       28.990      859.626
07/09/2014  20:40:00     -253.236     -133.545       -8.140      176.662      126.379       76.982    31209.581    15971.578     5926.187        6.756        2.655      286.291       91.454        0.102      348.896       28.925      859.616
07/09/2014  20:41:00     -466.653     -173.277      -13.049      164.794      131.913       90.504    27157.011    17400.909     8190.921       15.035        2.637      497.785       68.777        0.019      348.904       28.938      859.649
07/09/2014  20:42:00     -338.325     -216.988      -15.114      164.920      158.100       85.815    27198.736    24995.474     7364.260       11.066        2.978      401.930       83.624        0.043      348.888       28.909      859.670
07/09/2014  20:43:00     -220.157      -82.658       11.829      175.736      109.457       62.453    30883.234    11980.763     3900.338        5.110        2.338      235.163       81.676        0.121      348.868       28.875      859.717
07/09/2014  20:44:00     -372.693     -164.190      -23.624      167.069      146.888       69.441    27911.958    21576.087     4822.083       11.035        2.716      407.257       80.692        0.039      348.878       28.893      859.756
07/09/2014  20:45:00     -310.571      -39.862      -13.209      133.887       98.794       59.418    17925.808     9760.244     3530.534        6.471        1.561      313.119       57.542        0.034      348.850       28.842      859.774
07/09/2014  20:46:00     -355.949      -33.577       -8.585      113.713      117.497       70.367    12930.659    13805.469     4951.575        7.979        1.584      357.529       72.373        0.041      348.840       28.827      859.783
07/09/2014  20:47:00     -470.588       43.469      -28.520      179.229      149.498       69.299    32123.147    22349.632     4802.387       14.171        2.964      472.592       64.097        0.018      348.869       28.875      859.786
07/09/2014  20:48:00     -206.433     -103.460        3.257      150.780      158.271       86.177    22734.512    25049.826     7426.555        5.426        2.761      230.908       93.385        0.164      348.805       28.766      859.763
07/09/2014  20:49:00     -188.861      -54.324      -19.347       80.626       63.918       42.018     6500.578     4085.506     1765.551        2.567        0.618      196.518       35.545        0.033      348.795       28.750      859.768
07/09/2014  20:50:00     -244.836      -12.070      -11.432      129.261       87.467       61.292    16708.367     7650.445     3756.732        4.416        1.406      245.133       67.726        0.076      348.792       28.744      859.753
07/09/2014  20:51:00     -293.942      -91.428      -21.383      136.510      159.458       69.699    18635.004    25426.936     4857.996        7.206        2.446      307.833       67.959        0.049      348.787       28.735      859.752
07/09/2014  20:52:00     -245.041     -116.445      -13.502      117.534      110.513       62.654    13814.347    12213.121     3925.484        5.186        1.498      271.301       66.089        0.059      348.762       28.691      859.756
07/09/2014  20:53:00     -313.431      -71.552       -7.605      116.790      120.956       56.648    13639.799    14630.286     3208.993        6.744        1.574      321.495       49.136        0.023      348.729       28.634      859.745
07/09/2014  20:54:00     -412.425     -148.010      -12.152      220.313      153.189       91.397    48537.747    23466.965     8353.400       13.624        4.018      438.180       98.686        0.051      348.726       28.630      859.749
07/09/2014  20:55:00     -338.236     -193.159      -13.699      219.576      125.533       90.822    48213.781    15758.410     8248.673       11.205        3.611      389.504      117.163        0.090      348.707       28.599      859.772
07/09/2014  20:56:00     -497.472     -116.236      -21.537      180.582      166.704       82.780    32609.768    27790.089     6852.518       16.434        3.363      510.871       89.152        0.030      348.710       28.601      859.802
07/09/2014  20:57:00     -376.575      -15.105      -19.037      181.927      127.037       67.714    33097.615    16138.325     4585.233        9.810        2.691      376.878       69.280        0.034      348.701       28.587      859.826
07/09/2014  20:58:00     -297.782      -97.141      -19.521      165.928      129.625       71.970    27531.936    16802.630     5179.642        7.399        2.476      313.226       74.684        0.057      348.681       28.552      859.871
07/09/2014  20:59:00     -228.601      -61.416        4.551      146.894      111.364       59.871    21577.725    12401.949     3584.554        4.680        1.878      236.707       69.515        0.086      348.649       28.496      859.906
07/09/2014  21:00:00     -424.973     -102.682       -8.691      187.606      160.546       89.867    35196.169    25775.135     8076.042       13.012        3.452      437.202       98.490        0.051      348.668       28.530      859.932
07/09/2014  21:01:00     -278.637       -5.362        1.204      234.097      121.825       83.216    54801.631    14841.451     6924.908        7.711        3.828      278.688      102.295        0.135      348.663       28.520      859.931
07/09/2014  21:02:00     -260.911      -15.031      -13.942      129.323      100.049       66.053    16724.374    10009.821     4363.017        4.979        1.555      261.344       73.292        0.079      348.640       28.480      859.957
07/09/2014  21:03:00     -274.329      -43.885      -21.388      133.265       80.848       55.646    17759.488     6536.423     3096.459        5.251        1.370      277.817       65.108        0.055      348.619       28.443      859.964
07/09/2014  21:04:00     -351.608      -30.536      -16.541      122.408      105.661       53.455    14983.809    11164.348     2857.403        7.692        1.450      352.932       49.787        0.020      348.614       28.434      859.977
07/09/2014  21:05:00     -318.542      -50.277        3.847      165.322      120.082       59.857    27331.300    14419.783     3582.847        7.467        2.267      322.485       67.268        0.044      348.580       28.376      859.960
07/09/2014  21:06:00     -404.658      -79.775      -29.008      191.830      113.511       65.270    36798.734    12884.684     4260.183       11.244        2.697      412.447       72.635        0.031      348.568       28.355      859.961
07/09/2014  21:07:00     -416.846      -92.193      -24.835      125.984      114.137       70.519    15872.093    13027.260     4972.913       10.837        1.694      426.920       75.068        0.031      348.535       28.298      859.954
07/09/2014  21:08:00     -287.438      -40.325       -1.174      115.817      113.407       66.477    13413.558    12861.208     4419.162        5.747        1.535      290.253       65.921        0.052      348.487       28.216      859.975
07/09/2014  21:09:00     -322.197       -3.838      -19.533      162.759       95.567       58.790    26490.368     9133.000     3456.252        7.164        1.954      322.220       66.136        0.042      348.453       28.157      859.985
07/09/2014  21:10:00     -405.779      -85.598      -14.470      138.772      125.944       65.433    19257.558    15861.795     4281.481       10.579        1.970      414.709       54.143        0.017      348.468       28.183      860.001
07/09/2014  21:11:00     -317.259      -84.541       -4.820      126.479      120.519       68.342    15996.923    14524.719     4670.685        7.150        1.760      328.330       70.999        0.047      348.446       28.144      860.000
07/09/2014  21:12:00     -351.387      -29.506      -22.364      220.348      104.516       65.004    48553.130    10923.525     4225.565        9.426        3.185      352.624       86.455        0.060      348.456       28.162      860.022
07/09/2014  21:13:00     -273.215      -77.827      -28.554      155.403       96.646       81.784    24150.183     9340.458     6688.542        6.084        2.009      284.084       96.185        0.115      348.424       28.107      860.045
07/09/2014  21:14:00     -193.661      -69.917        4.264      118.933       79.548       49.017    14145.174     6327.805     2402.621        3.264        1.144      205.896       49.932        0.059      348.370       28.014      860.079
07/09/2014  21:15:00     -214.947     -114.905        3.344      167.508      151.502       69.510    28058.836    22952.949     4831.587        5.762        2.792      243.732       68.820        0.080      348.399       28.065      860.104
07/09/2014  21:16:00     -244.987     -174.978      -16.753      165.365      130.408       84.644    27345.738    17006.145     7164.679        7.121        2.576      301.057       80.630        0.072      348.437       28.132      860.108
07/09/2014  21:17:00     -236.904      -49.788       -0.704      113.517      110.403       65.090    12886.008    12188.883     4236.768        4.395        1.466      242.079       58.740        0.059      348.396       28.058      860.144
07/09/2014  21:18:00     -220.750       -5.316       -1.612      152.660      105.185       71.657    23305.198    11063.956     5134.765        4.413        1.975      220.814       85.630        0.150      348.368       28.011      860.165
07/09/2014  21:19:00     -409.359      -28.134      -15.192      173.117      114.177       74.163    29969.361    13036.307     5500.222       10.854        2.425      410.325       83.070        0.041      348.423       28.104      860.190
07/09/2014  21:20:00     -309.446      -57.473       -9.984      178.636      102.279       56.568    31910.733    10460.997     3199.894        7.236        2.279      314.738       75.439        0.057      348.425       28.108      860.206
07/09/2014  21:21:00     -364.195      -44.613      -22.549      116.517      155.755       63.275    13576.220    24259.571     4003.688        8.848        2.092      366.917       54.506        0.022      348.408       28.080      860.232
07/09/2014  21:22:00     -320.269      -59.137      -15.978      110.376      117.726       53.071    12182.840    13859.309     2816.502        6.759        1.443      325.683       43.275        0.018      348.377       28.025      860.232
07/09/2014  21:23:00     -348.200       -8.758      -26.079      126.313      107.957       65.203    15955.040    11654.645     4251.439        7.693        1.593      348.310       60.037        0.030      348.380       28.029      860.240
07/09/2014  21:24:00     -277.526     -117.152       -7.904      134.437      106.861       63.400    18073.305    11419.245     4019.610        6.215        1.676      301.239       60.364        0.040      348.341       27.962      860.229
07/09/2014  21:25:00     -295.703      -84.179       -0.952      118.233      113.091       65.881    13978.964    12789.665     4340.245        6.281        1.555      307.452       70.073        0.052      348.330       27.943      860.248
07/09/2014  21:26:00     -400.749      -66.627      -34.537      162.135      128.887       55.048    26287.736    16611.837     3030.277       10.607        2.296      406.250       70.076        0.030      348.342       27.964      860.255
07/09/2014  21:27:00     -350.900      -81.834      -29.367      155.065      101.894       61.419    24045.064    10382.370     3772.310        8.444        1.910      360.316       68.920        0.037      348.321       27.928      860.266
07/09/2014  21:28:00     -254.694      -90.869      -12.007       81.838       84.251       53.799     6697.525     7098.284     2894.289        4.498        0.835      270.418       43.132        0.025      348.299       27.889      860.283
07/09/2014  21:29:00     -230.721      -19.395      -20.325      109.878       79.090       40.248    12073.252     6255.225     1619.877        3.698        0.997      231.535       38.262        0.027      348.274       27.846      860.288
07/09/2014  21:30:00     -254.497     -110.291        3.473      165.179      104.738       64.226    27284.007    10969.945     4125.036        5.965        2.119      277.367       68.340        0.061      348.286       27.868      860.299
07/09/2014  21:31:00     -268.937     -113.528      -10.689      187.785      111.814       59.275    35263.134    12502.383     3513.511        6.830        2.564      291.917       66.657        0.052      348.285       27.865      860.293
07/09/2014  21:32:00     -355.253     -137.539      -21.564      142.642       93.527       60.774    20346.598     8747.222     3693.501        8.918        1.639      380.948       61.020        0.026      348.302       27.895      860.301
07/09/2014  21:33:00     -241.949      -62.414       -1.625      157.247      111.987       60.248    24726.510    12541.028     3629.820        5.166        2.045      249.870       69.144        0.077      348.265       27.830      860.308
07/09/2014  21:34:00     -287.250      -78.651      -16.077      121.359      111.269       52.095    14728.116    12380.801     2713.842        5.938        1.491      297.823       47.343        0.025      348.246       27.797      860.327
07/09/2014  21:35:00     -348.214      -56.245       -8.713      121.690      108.687       58.434    14808.354    11812.791     3414.476        7.726        1.502      352.727       58.532        0.028      348.294       27.880      860.348
07/09/2014  21:36:00     -249.384      -53.785       13.520      131.965      106.977       67.902    17414.872    11443.974     4610.669        4.936        1.673      255.118       69.292        0.074      348.262       27.826      860.353
07/09/2014  21:37:00     -304.570      -65.160       -9.008      144.235       92.965       61.801    20803.707     8642.429     3819.304        6.517        1.663      311.462       53.394        0.029      348.307       27.903      860.358
07/09/2014  21:38:00     -283.491      -85.672       -1.907      154.122       97.351       66.610    23753.490     9477.240     4436.904        6.268        1.883      296.154       76.558        0.067      348.268       27.837      860.367
07/09/2014  21:39:00     -378.402       -3.229      -20.240      120.569      103.576       66.879    14536.967    10728.055     4472.777        8.667        1.487      378.415       61.033        0.026      348.301       27.891      860.381
07/09/2014  21:40:00     -411.935      -15.736      -35.447      158.510      111.935       54.767    25125.546    12529.349     2999.410       10.592        2.033      412.235       47.017        0.013      348.343       27.964      860.392
07/09/2014  21:41:00     -325.385      -70.674       -9.727      126.971      110.371       62.404    16121.611    12181.755     3894.260        7.158        1.610      332.972       64.325        0.037      348.297       27.886      860.405
07/09/2014  21:42:00     -252.433      -41.494       -8.511      117.888       90.276       61.390    13897.688     8149.688     3768.770        4.566        1.291      255.820       58.587        0.052      348.259       27.820      860.440
07/09/2014  21:43:00     -284.252      -27.868      -11.586      101.489       77.629       55.553    10300.067     6026.225     3086.114        5.056        0.971      285.614       57.348        0.040      348.261       27.823      860.474
07/09/2014  21:44:00     -247.052     -109.972       -0.533      146.911      103.194       70.525    21582.761    10648.921     4973.769        5.516        1.860      270.423       67.820        0.063      348.227       27.764      860.465
07/09/2014  21:45:00     -297.771       -6.407      -21.026      152.405      112.916       56.373    23227.159    12750.070     3177.942        6.415        1.958      297.840       62.635        0.044      348.288       27.870      860.485
07/09/2014  21:46:00     -342.175      -34.743      -16.634      118.189      134.541       57.522    13968.584    18101.242     3308.788        7.697        1.769      343.935       50.770        0.022      348.232       27.772      860.504
07/09/2014  21:47:00     -313.528       -8.467      -27.646      127.652      116.551       56.418    16295.034    13584.163     3183.044        6.609        1.653      313.642       57.428        0.034      348.233       27.777      860.526
07/09/2014  21:48:00     -348.865        3.006      -36.222      126.169       88.911       52.910    15918.718     7905.122     2799.459        7.482        1.331      348.878       55.879        0.026      348.207       27.731      860.557
07/09/2014  21:49:00     -393.535      -79.329      -19.944      156.253       88.937       68.219    24414.874     7909.752     4653.812        9.926        1.849      401.451       82.015        0.042      348.251       27.806      860.582
07/09/2014  21:50:00     -213.407      -28.437        2.760      154.094      113.118       63.789    23744.911    12795.685     4069.054        4.348        2.030      215.293       68.153        0.100      348.186       27.696      860.587
07/09/2014  21:51:00     -204.760       49.270      -13.571       65.409       65.357       43.838     4278.318     4271.550     1921.812        2.750        0.524      210.605       32.312        0.024      348.172       27.671      860.603
07/09/2014  21:52:00     -146.723       68.581      -26.815       50.233      114.171       41.325     2523.378    13034.949     1707.759        2.211        0.863      161.960       28.259        0.030      348.111       27.568      860.628
07/09/2014  21:53:00     -171.272       -9.721      -10.992       93.315       59.810       42.030     8707.675     3577.214     1766.556        2.180        0.703      171.548       39.207        0.052      348.081       27.516      860.652
07/09/2014  21:54:00     -156.396       -4.525      -20.155       96.507       82.412       41.363     9313.543     6791.812     1710.873        2.135        0.891      156.461       27.531        0.031      348.106       27.557      860.663
07/09/2014  21:55:00     -158.995       70.693      -29.734       81.419       76.193       45.136     6629.053     5805.426     2037.239        2.281        0.724      174.002       29.108        0.028      348.067       27.489      860.666
07/09/2014  21:56:00     -126.507       82.230       -7.725       57.371       76.933       40.659     3291.476     5918.689     1653.159        1.684        0.543      150.884       26.003        0.030      348.019       27.408      860.669
07/09/2014  21:57:00     -136.998      118.613      -11.051       68.667      114.439       41.177     4715.216    13096.225     1695.552        2.623        0.975      181.212       32.715        0.033      348.048       27.457      860.658
07/09/2014  21:58:00     -180.372      114.326      -25.797       64.523      121.378       51.777     4163.232    14732.590     2680.820        3.392        1.079      213.552       27.154        0.016      348.018       27.405      860.648
07/09/2014  21:59:00     -187.103       56.416      -38.003      123.953       79.612       48.153    15364.469     6338.084     2318.696        3.182        1.201      195.423       39.443        0.041      348.038       27.439      860.677
07/09/2014  22:00:00     -200.355       -3.704      -16.592      122.211       84.520       47.333    14935.633     7143.669     2240.396        3.237        1.216      200.389       54.886        0.075      348.032       27.429      860.697
07/09/2014  22:01:00     -140.416       62.545      -16.551       65.298       52.719       32.071     4263.888     2779.268     1028.579        1.599        0.404      153.716       34.465        0.050      348.007       27.388      860.720
07/09/2014  22:02:00     -131.558      178.211      -24.624       77.311       67.831       39.987     5976.993     4600.982     1598.921        3.092        0.609      221.510       37.517        0.029      347.988       27.354      860.736
07/09/2014  22:03:00      -62.199      151.090      -11.775       61.097       89.246       41.409     3732.837     7964.836     1714.711        2.012        0.671      163.391       39.222        0.058      347.885       27.178      860.783
07/09/2014  22:04:00     -143.072      211.564      -38.017       56.006       80.211       40.926     3136.671     6433.811     1674.923        3.896        0.562      255.399       36.878        0.021      348.036       27.436      860.828
07/09/2014  22:05:00     -117.966      172.548      -34.245       64.569       96.892       45.776     4169.200     9388.136     2095.434        3.025        0.783      209.018       41.705        0.040      348.007       27.387      860.871
07/09/2014  22:06:00     -174.288      228.395      -45.079       78.201       89.001       46.339     6115.459     7921.212     2147.274        5.038        0.809      287.299       42.835        0.022      348.108       27.560      860.924
07/09/2014  22:07:00     -175.255      296.303      -48.684       92.918      126.001       53.851     8633.665    15876.153     2899.969        7.414        1.370      344.253       57.204        0.028      348.218       27.750      860.971
07/09/2014  22:08:00     -141.778      314.045      -46.803      111.067      131.451       61.640    12335.823    17279.352     3799.510        7.716        1.671      344.565       63.384        0.034      348.247       27.801      860.996
07/09/2014  22:09:00     -142.085      200.731      -36.432       82.667       74.004       51.004     6833.905     5476.666     2601.358        3.836        0.746      245.929       42.867        0.030      348.244       27.796      861.042
07/09/2014  22:10:00     -189.944      251.951      -41.478      112.500      129.860       66.358    12656.357    16863.547     4403.390        6.760        1.696      315.528       66.048        0.044      348.249       27.801      861.077
07/09/2014  22:11:00     -183.558      316.847      -53.136      119.188      128.224       66.412    14205.839    16441.517     4410.490        8.598        1.753      366.177       70.100        0.037      348.232       27.773      861.091
07/09/2014  22:12:00     -160.723      238.832      -31.533      113.307      103.922       58.123    12838.574    10799.851     3378.328        5.544        1.351      287.876       51.954        0.033      348.106       27.556      861.110
07/09/2014  22:13:00     -219.427      315.950      -63.917      128.553      131.921       68.257    16525.816    17403.250     4659.037        9.532        1.929      384.672       64.313        0.028      348.038       27.438      861.132
07/09/2014  22:14:00     -215.780      238.536      -51.768      119.910      141.012       49.484    14378.504    19884.377     2448.686        7.142        1.836      321.652       66.208        0.042      347.969       27.319      861.124
07/09/2014  22:15:00     -221.557      245.767      -47.929       95.922      102.034       58.275     9200.945    10411.036     3395.977        6.739        1.150      330.891       52.023        0.025      347.918       27.232      861.129
07/09/2014  22:16:00     -195.697      232.335      -37.747      116.595      121.855       64.619    13594.412    14848.679     4175.581        6.315        1.631      303.771       61.468        0.041      347.860       27.131      861.161
07/09/2014  22:17:00     -183.718      195.947      -23.498      132.192       98.332       70.689    17474.743     9669.153     4996.942        5.241        1.607      268.603       65.831        0.060      347.846       27.108      861.182
07/09/2014  22:18:00     -178.940      341.189      -46.735      101.667      109.080       59.773    10336.201    11898.344     3572.856        8.821        1.290      385.266       55.840        0.021      347.814       27.051      861.203
07/09/2014  22:19:00     -210.123      329.431      -50.765       99.155      109.513       57.246     9831.749    11993.140     3277.112        9.017        1.255      390.739       61.220        0.025      347.805       27.035      861.240
07/09/2014  22:20:00     -155.635      216.895      -35.755      100.814      113.588       57.916    10163.401    12902.247     3354.296        4.948        1.321      266.957       61.389        0.053      347.751       26.944      861.253
07/09/2014  22:21:00     -168.187      218.224      -31.529      100.075      103.488       53.107    10015.064    10709.695     2820.352        5.022        1.177      275.516       45.045        0.027      347.786       27.004      861.247
07/09/2014  22:22:00     -227.876      227.302      -45.027      123.418      131.517       57.525    15231.933    17296.811     3309.079        7.072        1.792      321.859       61.755        0.037      347.807       27.039      861.233
07/09/2014  22:23:00     -227.669      166.596      -35.442      161.060      128.106       69.868    25940.351    16411.182     4881.581        6.403        2.362      282.112       72.539        0.066      347.756       26.953      861.235
07/09/2014  22:24:00     -146.836      195.369      -51.306       96.809      103.077       50.339     9371.996    10624.812     2534.016        4.244        1.127      244.397       49.857        0.042      347.713       26.878      861.256
07/09/2014  22:25:00     -113.552      206.355      -23.282       75.283      103.115       53.114     5667.549    10632.653     2821.134        3.757        0.956      235.534       51.335        0.048      347.682       26.825      861.262
07/09/2014  22:26:00     -138.470      212.183      -28.670       96.127       87.617       55.542     9240.456     7676.808     3084.965        4.251        1.000      253.368       57.891        0.052      347.758       26.958      861.257
07/09/2014  22:27:00     -158.536      226.310      -35.687      109.290      136.466       54.483    11944.284    18623.026     2968.394        5.557        1.677      276.315       41.158        0.022      347.800       27.027      861.233
07/09/2014  22:28:00     -120.840      214.610      -34.017       86.569      101.322       56.715     7494.118    10266.216     3216.644        4.139        1.049      246.292       50.228        0.042      347.784       27.000      861.262
07/09/2014  22:29:00     -129.544      313.790      -36.562       92.014      174.737       63.734     8466.593    30532.894     4061.997        7.981        2.153      339.479       61.753        0.033      347.867       27.144      861.258
07/09/2014  22:30:00     -127.608      216.207      -17.067       97.371      168.923       55.991     9481.148    28535.094     3135.047        5.223        2.058      251.057       66.066        0.069      347.840       27.097      861.284
07/09/2014  22:31:00     -190.901      301.842      -58.856      124.932      108.802       65.598    15607.969    11837.850     4303.051        8.138        1.587      357.144       66.048        0.034      347.842       27.100      861.301
07/09/2014  22:32:00     -152.101      284.284      -40.483       89.531      119.867       58.548     8015.751    14368.062     3427.815        6.570        1.291      322.416       58.567        0.033      347.805       27.037      861.302
07/09/2014  22:33:00     -161.420      240.313      -27.268      100.629      148.456       59.874    10126.183    22039.216     3584.869        6.014        1.788      289.494       60.748        0.044      347.807       27.041      861.324
07/09/2014  22:34:00     -231.919      263.163      -50.938       98.922      145.170       55.146     9785.498    21074.203     3041.090        7.976        1.695      350.772       58.650        0.028      347.843       27.102      861.336
07/09/2014  22:35:00     -128.248      267.476      -32.072       80.553      149.200       58.111     6488.829    22260.770     3376.904        6.057        1.606      296.633       54.917        0.034      347.799       27.025      861.316
07/09/2014  22:36:00     -156.790      245.265      -25.970       78.254      114.628       61.233     6123.766    13139.486     3749.438        5.421        1.151      291.098       53.136        0.033      347.761       26.959      861.313
07/09/2014  22:37:00     -207.388      222.144      -44.013      129.619       86.511       57.918    16801.175     7484.106     3354.509        6.096        1.382      303.904       68.360        0.051      347.849       27.112      861.312
07/09/2014  22:38:00     -138.619      172.288      -17.484       81.917      105.167       48.638     6710.409    11060.088     2365.625        3.467        1.007      221.130       50.003        0.051      347.825       27.072      861.313
07/09/2014  22:39:00     -213.268       95.659      -21.798       95.642       87.799       51.657     9147.362     7708.706     2668.473        3.731        0.976      233.739       39.801        0.029      347.954       27.295      861.324
07/09/2014  22:40:00     -211.153       41.768      -29.578      136.875      103.143       62.097    18734.791    10638.538     3856.069        4.021        1.661      215.245       51.453        0.057      347.984       27.348      861.315
07/09/2014  22:41:00     -153.330       26.339       -0.619      106.653      131.757       69.005    11374.765    17359.890     4761.701        2.884        1.675      155.576       33.886        0.047      347.936       27.262      861.304
07/09/2014  22:42:00     -133.540       27.749        0.225      111.920      105.242       55.523    12526.072    11075.909     3082.825        2.264        1.334      136.392       47.517        0.121      347.833       27.087      861.313
07/09/2014  22:43:00     -169.387       -7.096      -20.561       83.814       82.772       48.315     7024.811     6851.180     2334.326        2.268        0.811      169.535       49.008        0.084      347.818       27.060      861.312
07/09/2014  22:44:00      -48.054       20.585       -3.803       56.120       49.030       36.571     3149.499     2403.910     1337.441        0.482        0.345       52.277       36.742        0.494      347.683       26.830      861.310
07/09/2014  22:45:00      -71.535      102.552       -8.256       60.286       83.864       37.808     3634.452     7033.238     1429.459        1.390        0.605      125.036       26.687        0.046      347.689       26.841      861.322
07/09/2014  22:46:00     -131.163      140.241      -12.340       60.937       83.739       44.573     3713.361     7012.160     1986.778        2.487        0.636      192.019       33.668        0.031      347.637       26.748      861.329
07/09/2014  22:47:00     -113.099      151.787      -32.664       60.723       84.890       47.694     3687.306     7206.246     2274.691        2.503        0.658      189.289       48.928        0.067      347.688       26.837      861.327
07/09/2014  22:48:00     -142.323      181.237      -30.973       67.285       87.333       46.354     4527.230     7626.966     2148.693        3.418        0.715      230.441       41.535        0.032      347.695       26.847      861.318
07/09/2014  22:49:00     -140.154      122.565        0.673       83.478       63.321       54.520     6968.542     4009.519     2972.421        2.431        0.698      186.186       33.257        0.032      347.693       26.845      861.338
07/09/2014  22:50:00     -123.777      131.594      -23.723       64.269       62.741       36.802     4130.564     3936.396     1354.379        2.131        0.471      180.659       31.991        0.031      347.700       26.858      861.339
07/09/2014  22:51:00     -124.222       77.950      -20.280       58.295       55.105       38.581     3398.257     3036.519     1488.529        1.492        0.396      146.654       38.595        0.069      347.690       26.841      861.339
07/09/2014  22:52:00     -104.333       46.376      -14.806       51.029       44.353       27.459     2603.996     1967.171      753.987        0.929        0.266      114.176       25.625        0.050      347.617       26.716      861.345
07/09/2014  22:53:00     -129.129       70.079      -30.296       86.839       78.830       44.838     7540.985     6214.117     2010.402        1.913        0.788      146.920       26.300        0.032      347.605       26.694      861.358
07/09/2014  22:54:00     -140.447       73.154      -25.716       90.727       76.689       54.427     8231.387     5881.155     2962.308        2.140        0.854      158.356       39.595        0.063      347.549       26.596      861.350
07/09/2014  22:55:00     -127.515       72.248       -5.247      103.677       68.607       56.209    10748.960     4706.919     3159.475        2.006        0.931      146.561       57.984        0.157      347.479       26.475      861.338
07/09/2014  22:56:00     -170.494       82.788      -16.626       76.894       61.704       47.600     5912.670     3807.331     2265.775        2.409        0.599      189.531       34.837        0.034      347.506       26.522      861.345
07/09/2014  22:57:00     -173.489       71.725      -23.296       80.046       90.778       55.498     6407.366     8240.654     3080.028        2.675        0.886      187.731       24.593        0.017      347.551       26.598      861.341
07/09/2014  22:58:00     -127.932       80.297      -22.424       70.338       83.539       50.360     4947.496     6978.789     2536.111        1.889        0.723      151.044       39.252        0.068      347.549       26.598      861.336
07/09/2014  22:59:00     -153.681      102.699      -17.468       93.230       99.662       62.497     8691.915     9932.463     3905.836        2.850        1.127      184.837       40.756        0.049      347.621       26.720      861.329
07/09/2014  23:00:00     -181.897       71.215      -16.788       99.448       60.445       57.585     9889.915     3653.590     3316.071        2.765        0.843      195.341       54.291        0.077      347.625       26.727      861.330
07/09/2014  23:01:00     -177.013      131.643      -38.192       71.580       68.449       41.001     5123.749     4685.220     1681.096        3.080        0.575      220.598       34.737        0.025      347.645       26.762      861.315
07/09/2014  23:02:00     -160.322       78.684      -37.533       60.111       73.893       31.298     3613.377     5460.147      979.543        2.168        0.503      178.590       22.696        0.016      347.666       26.799      861.285
07/09/2014  23:03:00     -122.041       78.911      -22.157       44.440       57.496       33.180     1974.933     3305.777     1100.919        1.400        0.319      145.331       31.139        0.046      347.667       26.801      861.264
07/09/2014  23:04:00     -221.995       60.223      -38.924      100.008       82.569       39.404    10001.612     6817.590     1552.682        3.639        0.919      230.019       40.276        0.031      347.728       26.904      861.235
07/09/2014  23:05:00     -179.996      -20.077        1.714       98.797       67.589       42.654     9760.919     4568.275     1819.363        2.447        0.807      181.112       41.557        0.053      347.518       26.544      861.242
07/09/2014  23:06:00     -152.497       10.303       -6.262       77.515       72.047       45.273     6008.585     5190.784     2049.672        1.832        0.662      152.845       36.871        0.058      347.463       26.449      861.242
07/09/2014  23:07:00     -116.733      -32.018        6.226       63.462       57.814       37.133     4027.455     3342.510     1378.850        1.172        0.437      121.045       32.723        0.073      347.329       26.218      861.248
07/09/2014  23:08:00     -122.040      -17.350       -6.141       88.411       46.072       31.289     7816.539     2122.613      978.997        1.307        0.546      123.267       35.325        0.082      347.321       26.205      861.243
07/09/2014  23:09:00     -114.085       -2.091       -3.650       77.053       60.950       36.605     5937.165     3714.933     1339.937        1.201        0.550      114.105       36.905        0.105      347.309       26.184      861.235
07/09/2014  23:10:00     -104.397       23.704       -9.148       68.160       85.754       42.952     4645.798     7353.747     1844.849        1.269        0.692      107.054       42.348        0.156      347.338       26.234      861.236
07/09/2014  23:11:00     -137.871       66.759      -15.871       71.847       75.488       34.915     5162.048     5698.454     1219.025        1.790        0.604      153.184       25.478        0.028      347.401       26.342      861.240
07/09/2014  23:12:00     -137.710      116.172      -23.303      107.508      120.577       52.099    11557.952    14538.755     2714.254        3.090        1.441      180.166       59.692        0.110      347.461       26.445      861.234
07/09/2014  23:13:00      -59.093      143.888      -26.436       48.476       78.188       32.483     2349.881     6113.373     1055.151        1.720        0.476      155.550       40.155        0.067      347.485       26.487      861.221
07/09/2014  23:14:00      -71.114      157.569      -27.741       72.067       76.002       32.979     5193.640     5776.276     1087.614        2.135        0.603      172.873       28.533        0.027      347.443       26.416      861.235
07/09/2014  23:15:00      -68.121      117.384       -7.408       46.246       43.784       32.506     2138.671     1917.002     1056.636        1.179        0.256      135.718       23.368        0.030      347.366       26.283      861.250
07/09/2014  23:16:00      -58.249       61.091       -4.952       68.392       56.696       33.309     4677.404     3214.432     1109.485        0.807        0.450       84.410       29.940        0.126      347.397       26.335      861.253
07/09/2014  23:17:00      -23.034      139.208      -21.688       40.187       43.750       19.887     1614.976     1914.028      395.512        1.215        0.196      141.101       18.479        0.017      347.359       26.271      861.258
07/09/2014  23:18:00     -104.210       11.446      -10.482       39.706       55.157       26.388     1576.528     3042.265      696.327        0.821        0.266      104.837       21.929        0.044      347.358       26.270      861.277
07/09/2014  23:19:00      -64.202      -70.394       -2.522       61.422       43.802       29.323     3772.665     1918.658      859.859        0.782        0.328       95.274       30.615        0.103      347.370       26.292      861.302
07/09/2014  23:20:00      -72.675      -36.475       13.688       68.216       33.884       32.026     4653.464     1148.129     1025.686        0.681        0.341       81.314       39.073        0.231      347.250       26.083      861.321
07/09/2014  23:21:00      -48.333      -25.895       11.069       54.435       49.724       27.244     2963.224     2472.482      742.232        0.465        0.309       54.833       35.149        0.411      347.144       25.900      861.337
07/09/2014  23:22:00      -58.412       70.675       -6.509       35.180       43.041       21.139     1237.602     1852.497      446.868        0.599        0.177       91.690       22.046        0.058      347.164       25.935      861.347
07/09/2014  23:23:00       10.574       74.712      -12.201       30.299       31.077       22.306      918.049      965.809      497.540        0.411        0.119       75.456       22.808        0.091      347.314       26.194      861.350
07/09/2014  23:24:00      -32.095      -10.577       10.479       37.483       23.191       27.267     1404.960      537.830      743.483        0.197        0.134       33.792       28.145        0.694      347.266       26.110      861.352
07/09/2014  23:25:00       28.280       97.027       -2.197       42.566       44.271       27.620     1811.868     1959.890      762.865        0.738        0.227      101.064       25.126        0.062      347.166       25.938      861.365
07/09/2014  23:26:00      -22.655       20.299       -7.804       27.535       31.328       15.373      758.201      981.462      236.333        0.148        0.099       30.418       11.596        0.145      347.178       25.960      861.375
07/09/2014  23:27:00      -46.234       -6.002      -10.581       33.959       46.711       24.300     1153.229     2181.950      590.477        0.310        0.196       46.621       11.560        0.061      347.191       25.981      861.385
07/09/2014  23:28:00      -83.432       65.677      -15.450       37.064       76.256       27.407     1373.750     5814.961      751.144        0.973        0.397      106.180       32.022        0.091      347.131       25.879      861.391
07/09/2014  23:29:00      -68.106       54.600      -20.322       31.479       65.119       26.230      990.939     4240.541      688.017        0.698        0.296       87.290       28.858        0.109      347.147       25.906      861.402
07/09/2014  23:30:00      -43.395      100.499       -0.431       40.095       66.390       28.556     1607.620     4407.683      815.434        0.941        0.342      109.468       29.836        0.074      347.122       25.863      861.411
07/09/2014  23:31:00     -114.354      170.519      -47.376      102.417       90.367       38.469    10489.162     8166.242     1479.851        3.226        1.007      205.313       34.314        0.028      347.191       25.980      861.415
07/09/2014  23:32:00      -41.750      156.980      -20.130       43.199       68.137       26.364     1866.157     4642.594      695.083        1.700        0.360      162.437       30.659        0.036      347.105       25.832      861.412
07/09/2014  23:33:00      -27.285       55.190      -19.222       30.476       49.001       19.741      928.764     2401.065      389.715        0.394        0.186       61.567       14.880        0.058      347.153       25.915      861.391
07/09/2014  23:34:00      -80.044      -17.598       -7.312       37.110       67.014       34.416     1377.120     4490.932     1184.452        0.691        0.353       81.956       34.482        0.177      347.157       25.924      861.380
07/09/2014  23:35:00      -47.895       75.366      -16.996       60.862       62.716       39.790     3704.151     3933.264     1583.257        0.874        0.461       89.297       33.519        0.141      347.168       25.942      861.388
07/09/2014  23:36:00      -52.835      170.589      -19.664       43.362       59.661       36.400     1880.227     3559.494     1324.970        1.952        0.338      178.584       32.330        0.033      347.206       26.007      861.385
07/09/2014  23:37:00      -80.107      190.909      -10.482       53.301       71.255       47.106     2840.974     5077.205     2219.014        2.655        0.507      207.035       45.292        0.048      347.208       26.008      861.376
07/09/2014  23:38:00      -63.259      125.871      -19.926       66.283      114.695       32.590     4393.425    13155.010     1062.083        1.942        0.931      140.873       40.040        0.081      347.206       26.005      861.393
07/09/2014  23:39:00      -88.021       84.367      -20.351       56.909       44.864       29.034     3238.579     2012.816      842.992        1.069        0.305      121.924       23.966        0.039      347.243       26.070      861.408
07/09/2014  23:40:00     -162.401       81.559      -28.383       87.068       77.345       40.858     7580.759     5982.232     1669.337        2.453        0.762      181.731       57.174        0.099      347.312       26.188      861.420
07/09/2014  23:41:00     -129.929       57.808      -14.760       58.873       53.570       30.167     3466.052     2869.722      910.029        1.384        0.362      142.208       25.081        0.031      347.249       26.081      861.418
07/09/2014  23:42:00     -122.710      137.071      -12.272       70.809       66.626       47.801     5013.879     4438.969     2284.922        2.287        0.587      183.974       35.736        0.038      347.253       26.087      861.436
07/09/2014  23:43:00      -96.595       54.732      -17.367       45.495       79.257       30.837     2069.751     6281.676      950.910        1.096        0.465      111.023       39.221        0.125      347.262       26.103      861.446
07/09/2014  23:44:00      -44.157      140.172      -20.537       60.385       55.786       33.526     3646.313     3112.035     1123.966        1.495        0.394      146.963       32.270        0.048      347.144       25.898      861.438
07/09/2014  23:45:00      -46.120       82.841      -10.107       37.051       31.921       34.196     1372.780     1018.947     1169.379        0.633        0.178       94.813       27.099        0.082      347.031       25.705      861.440
07/09/2014  23:46:00      -62.388       63.462      -12.476       34.770       53.439       28.205     1208.958     2855.734      795.507        0.647        0.243       88.993       29.351        0.109      347.053       25.742      861.453
07/09/2014  23:47:00      -48.394      -24.470        1.356       40.899       41.710       25.704     1672.741     1739.693      660.686        0.351        0.204       54.228       24.499        0.204      347.071       25.774      861.459
07/09/2014  23:48:00      -56.352       90.193       -4.964       39.110      104.891       33.667     1529.610    11002.051     1133.455        1.250        0.683      106.350        9.398        0.008      346.978       25.614      861.455
07/09/2014  23:49:00      -82.381       83.245      -17.767       40.235       93.131       34.414     1618.889     8673.346     1184.338        1.275        0.574      117.117       45.960        0.154      347.015       25.677      861.448
07/09/2014  23:50:00      -59.766       86.224      -10.170       46.456       34.230       23.086     2158.201     1171.725      532.976        0.749        0.193      104.913       20.591        0.039      346.939       25.548      861.461
07/09/2014  23:51:00      -11.166      118.730      -18.666       38.229       46.108       27.559     1461.458     2125.934      759.497        0.946        0.217      119.254       25.030        0.044      346.816       25.336      861.450
07/09/2014  23:52:00      -20.801       29.569      -15.382       21.351       19.350       14.755      455.850      374.437      217.719        0.130        0.052       36.152       12.602        0.122      346.817       25.338      861.433
07/09/2014  23:53:00     -112.978       47.708      -30.686       69.631       72.419       29.947     4848.415     5244.551      896.836        1.348        0.549      122.638       29.726        0.059      346.857       25.405      861.435
07/09/2014  23:54:00     -126.782      113.352      -19.062       88.059       66.993       49.699     7754.397     4488.096     2470.001        2.200        0.736      170.066       45.021        0.070      346.749       25.220      861.439
07/09/2014  23:55:00     -132.086      126.087      -14.158       51.647       66.131       46.375     2667.435     4373.328     2150.595        2.137        0.460      182.606       35.060        0.037      346.746       25.214      861.441
07/09/2014  23:56:00     -165.276       24.014      -44.205       67.834       60.105       41.890     4601.478     3612.619     1754.753        1.991        0.498      167.012       34.675        0.043      346.871       25.428      861.434
07/09/2014  23:57:00     -166.512      141.417      -30.297       89.229       67.896       42.776     7961.854     4609.934     1829.794        3.152        0.720      218.460       36.986        0.029      346.848       25.389      861.437
07/09/2014  23:58:00     -241.860      128.247      -41.627      102.261       80.451       44.411    10457.258     6472.363     1972.340        4.779        0.945      273.758       29.533        0.012      346.954       25.569      861.438
07/09/2014  23:59:00     -171.733      148.408      -29.644       79.121      110.112       41.942     6260.065    12124.562     1759.149        3.627        1.007      226.974       41.471        0.033      346.844       25.381      861.442
